| time (UTC) | temp C | wind direction | speed KPH | gust KPH | rain 1hr cm | rain 24hr cm | rain mn cm | humidity % | barometer mb |
| 20260906075004 | 18 | 245 | 4.8 | 16.1 | 0.00 | 0.08 | 0.00 | 59 | 1016.8 |
| 20260906074905 | 18 | 200 | 3.2 | 16.1 | 0.00 | 0.08 | 0.00 | 60 | 1016.9 |
| 20260906074804 | 17 | 200 | 3.2 | 16.1 | 0.00 | 0.08 | 0.00 | 60 | 1016.8 |
| 20260906074704 | 17 | 148 | 3.2 | 14.5 | 0.00 | 0.08 | 0.00 | 60 | 1016.6 |
| 20260906074625 | 17 | 152 | 3.2 | 14.5 | 0.00 | 0.08 | 0.00 | 61 | 1016.6 |
| 20260906074525 | 17 | 185 | 3.2 | 14.5 | 0.00 | 0.08 | 0.00 | 61 | 1016.7 |
| 20260906074404 | 17 | 172 | 3.2 | 14.5 | 0.00 | 0.08 | 0.00 | 61 | 1016.6 |
| 20260906074325 | 17 | 175 | 3.2 | 14.5 | 0.00 | 0.08 | 0.00 | 61 | 1016.6 |
| 20260906074204 | 17 | 192 | 3.2 | 14.5 | 0.00 | 0.08 | 0.00 | 60 | 1016.7 |
| 20260906074104 | 17 | 176 | 3.2 | 14.5 | 0.00 | 0.08 | 0.00 | 60 | 1016.8 |
| 20260906074004 | 17 | 178 | 3.2 | 14.5 | 0.00 | 0.08 | 0.00 | 62 | 1016.7 |
| 20260906073904 | 17 | 183 | 1.6 | 14.5 | 0.00 | 0.08 | 0.00 | 62 | 1016.6 |
| 20260906073804 | 17 | 178 | 1.6 | 14.5 | 0.00 | 0.08 | 0.00 | 62 | 1016.8 |
| 20260906073704 | 17 | 179 | 1.6 | 14.5 | 0.00 | 0.08 | 0.00 | 62 | 1016.7 |
| 20260906073604 | 17 | 184 | 1.6 | 14.5 | 0.00 | 0.08 | 0.00 | 62 | 1016.8 |
| 20260906073504 | 17 | 187 | 1.6 | 14.5 | 0.00 | 0.08 | 0.00 | 62 | 1016.6 |
| 20260906073404 | 17 | 189 | 1.6 | 11.3 | 0.00 | 0.08 | 0.00 | 63 | 1017.0 |
| 20260906073304 | 17 | 184 | 1.6 | 11.3 | 0.00 | 0.08 | 0.00 | 63 | 1016.7 |
| 20260906073204 | 17 | 177 | 1.6 | 11.3 | 0.00 | 0.08 | 0.00 | 64 | 1016.7 |
| 20260906073104 | 17 | 194 | 1.6 | 11.3 | 0.00 | 0.08 | 0.00 | 64 | 1016.6 |
| 20260906073004 | 17 | 192 | 1.6 | 11.3 | 0.00 | 0.08 | 0.00 | 64 | 1016.7 |
| 20260906072904 | 17 | 197 | 1.6 | 11.3 | 0.00 | 0.08 | 0.00 | 64 | 1016.6 |
| 20260906072804 | 17 | 200 | 1.6 | 11.3 | 0.00 | 0.08 | 0.00 | 64 | 1016.9 |
| 20260906072704 | 17 | 204 | 1.6 | 11.3 | 0.00 | 0.08 | 0.00 | 64 | 1016.9 |
| 20260906072604 | 16 | 196 | 1.6 | 11.3 | 0.00 | 0.08 | 0.00 | 65 | 1016.8 |
| 20260906072525 | 16 | 191 | 1.6 | 11.3 | 0.00 | 0.08 | 0.00 | 66 | 1016.8 |
| 20260906072404 | 16 | 190 | 1.6 | 11.3 | 0.00 | 0.08 | 0.00 | 66 | 1016.8 |
| 20260906072306 | 16 | 191 | 1.6 | 11.3 | 0.00 | 0.08 | 0.00 | 66 | 1016.9 |
| 20260906072204 | 16 | 188 | 1.6 | 11.3 | 0.00 | 0.08 | 0.00 | 65 | 1016.8 |
| 20260906072104 | 16 | 183 | 1.6 | 11.3 | 0.00 | 0.08 | 0.00 | 65 | 1016.8 |
| 20260906072025 | 16 | 180 | 1.6 | 11.3 | 0.00 | 0.08 | 0.00 | 65 | 1016.8 |
| 20260906071904 | 16 | 177 | 1.6 | 11.3 | 0.00 | 0.08 | 0.00 | 66 | 1016.5 |
| 20260906071804 | 16 | 178 | 1.6 | 11.3 | 0.00 | 0.08 | 0.00 | 66 | 1016.5 |
| 20260906071704 | 16 | 174 | 1.6 | 11.3 | 0.00 | 0.08 | 0.00 | 66 | 1016.7 |
| 20260906071625 | 16 | 180 | 1.6 | 11.3 | 0.00 | 0.08 | 0.00 | 66 | 1016.7 |
| 20260906071525 | 16 | 199 | 0.0 | 11.3 | 0.00 | 0.08 | 0.00 | 65 | 1016.7 |
| 20260906071404 | 16 | 188 | 0.0 | 6.4 | 0.00 | 0.08 | 0.00 | 66 | 1016.8 |
| 20260906071304 | 16 | 187 | 0.0 | 6.4 | 0.00 | 0.08 | 0.00 | 66 | 1016.6 |
| 20260906071204 | 16 | 185 | 0.0 | 6.4 | 0.00 | 0.08 | 0.00 | 66 | 1016.9 |
| 20260906071125 | 16 | 188 | 0.0 | 6.4 | 0.00 | 0.08 | 0.00 | 65 | 1016.9 |
| 20260906071004 | 16 | 187 | 0.0 | 3.2 | 0.00 | 0.08 | 0.00 | 65 | 1016.5 |
| 20260906070904 | 16 | 174 | 0.0 | 3.2 | 0.00 | 0.08 | 0.00 | 66 | 1016.7 |
| 20260906070804 | 16 | 192 | 0.0 | 9.7 | 0.00 | 0.08 | 0.00 | 66 | 1016.5 |
| 20260906070704 | 16 | 191 | 0.0 | 9.7 | 0.00 | 0.08 | 0.00 | 65 | 1016.7 |
| 20260906070604 | 16 | 181 | 0.0 | 9.7 | 0.00 | 0.08 | 0.00 | 66 | 1016.3 |
| 20260906070504 | 16 | 190 | 0.0 | 9.7 | 0.00 | 0.08 | 0.00 | 66 | 1016.7 |
| 20260906070404 | 16 | 176 | 0.0 | 9.7 | 0.00 | 0.08 | 0.00 | 66 | 1016.4 |
| 20260906070325 | 16 | 195 | 0.0 | 9.7 | 0.00 | 0.08 | 0.00 | 66 | 1016.4 |
| 20260906070204 | 16 | 204 | 1.6 | 9.7 | 0.00 | 0.08 | 0.00 | 66 | 1016.6 |
| 20260906070104 | 16 | 187 | 1.6 | 9.7 | 0.00 | 0.08 | 0.00 | 66 | 1016.6 |
| 20260906070004 | 16 | 211 | 1.6 | 9.7 | 0.00 | 0.08 | 0.00 | 66 | 1016.5 |
| 20260906065904 | 16 | 211 | 1.6 | 9.7 | 0.00 | 0.08 | 0.00 | 66 | 1016.8 |
| 20260906065804 | 16 | 189 | 0.0 | 9.7 | 0.00 | 0.08 | 0.00 | 66 | 1016.8 |
| 20260906065704 | 16 | 196 | 0.0 | 6.4 | 0.00 | 0.08 | 0.00 | 66 | 1016.6 |
| 20260906065604 | 16 | 195 | 0.0 | 6.4 | 0.00 | 0.08 | 0.00 | 66 | 1016.7 |
| 20260906065504 | 16 | 188 | 0.0 | 3.2 | 0.00 | 0.08 | 0.00 | 66 | 1016.6 |
| 20260906065404 | 16 | 207 | 0.0 | 3.2 | 0.00 | 0.08 | 0.00 | 66 | 1016.5 |
| 20260906065305 | 16 | 189 | 0.0 | 3.2 | 0.00 | 0.08 | 0.00 | 66 | 1016.7 |
| 20260906065204 | 16 | 195 | 0.0 | 3.2 | 0.00 | 0.08 | 0.00 | 66 | 1016.5 |
| 20260906065104 | 16 | 207 | 0.0 | 3.2 | 0.00 | 0.08 | 0.00 | 67 | 1016.6 |
| 20260906065004 | 16 | 188 | 0.0 | 4.8 | 0.00 | 0.08 | 0.00 | 68 | 1016.7 |
| 20260906064904 | 16 | 219 | 0.0 | 6.4 | 0.00 | 0.08 | 0.00 | 67 | 1016.5 |
| 20260906064804 | 16 | 207 | 0.0 | 6.4 | 0.00 | 0.08 | 0.00 | 67 | 1016.4 |
| 20260906064704 | 16 | 190 | 0.0 | 6.4 | 0.00 | 0.08 | 0.00 | 68 | 1016.4 |
| 20260906064625 | 16 | 190 | 0.0 | 6.4 | 0.00 | 0.08 | 0.00 | 67 | 1016.4 |
| 20260906064504 | 16 | 189 | 0.0 | 6.4 | 0.00 | 0.08 | 0.00 | 67 | 1016.3 |
| 20260906064404 | 16 | 186 | 0.0 | 6.4 | 0.00 | 0.08 | 0.00 | 68 | 1016.4 |
| 20260906064304 | 16 | 186 | 0.0 | 6.4 | 0.00 | 0.08 | 0.00 | 68 | 1016.5 |
| 20260906064205 | 16 | 183 | 0.0 | 6.4 | 0.00 | 0.08 | 0.00 | 68 | 1016.7 |
| 20260906064104 | 16 | 186 | 0.0 | 6.4 | 0.00 | 0.08 | 0.00 | 68 | 1016.5 |
| 20260906064004 | 16 | 188 | 0.0 | 6.4 | 0.00 | 0.08 | 0.00 | 68 | 1016.8 |
| 20260906063925 | 15 | 172 | 0.0 | 6.4 | 0.00 | 0.08 | 0.00 | 68 | 1016.8 |
| 20260906063804 | 15 | 172 | 0.0 | 4.8 | 0.00 | 0.08 | 0.00 | 69 | 1016.4 |
| 20260906063704 | 15 | 186 | 0.0 | 6.4 | 0.00 | 0.08 | 0.00 | 69 | 1016.7 |
| 20260906063604 | 15 | 196 | 0.0 | 9.7 | 0.00 | 0.08 | 0.00 | 69 | 1016.6 |
| 20260906063504 | 15 | 201 | 0.0 | 9.7 | 0.00 | 0.08 | 0.00 | 69 | 1016.6 |
| 20260906063404 | 15 | 199 | 0.0 | 9.7 | 0.00 | 0.08 | 0.00 | 70 | 1016.4 |
| 20260906063304 | 15 | 200 | 0.0 | 9.7 | 0.00 | 0.08 | 0.00 | 70 | 1016.6 |
| 20260906063204 | 15 | 201 | 0.0 | 9.7 | 0.00 | 0.08 | 0.00 | 69 | 1016.8 |
| 20260906063104 | 15 | 196 | 0.0 | 9.7 | 0.00 | 0.08 | 0.00 | 70 | 1016.7 |
| 20260906063004 | 15 | 197 | 0.0 | 9.7 | 0.00 | 0.08 | 0.00 | 70 | 1016.6 |
| 20260906062904 | 15 | 199 | 0.0 | 9.7 | 0.00 | 0.08 | 0.00 | 70 | 1016.4 |
| 20260906062804 | 15 | 205 | 0.0 | 9.7 | 0.00 | 0.08 | 0.00 | 70 | 1016.6 |
| 20260906062704 | 15 | 201 | 0.0 | 9.7 | 0.00 | 0.08 | 0.00 | 70 | 1016.5 |
| 20260906062604 | 15 | 183 | 0.0 | 3.2 | 0.00 | 0.08 | 0.00 | 70 | 1016.6 |
| 20260906062504 | 15 | 172 | 0.0 | 3.2 | 0.00 | 0.08 | 0.00 | 71 | 1016.4 |
| 20260906062404 | 15 | 174 | 0.0 | 3.2 | 0.00 | 0.08 | 0.00 | 70 | 1016.6 |
| 20260906062306 | 15 | 174 | 0.0 | 3.2 | 0.00 | 0.08 | 0.00 | 70 | 1016.7 |
| 20260906062204 | 15 | 175 | 0.0 | 6.4 | 0.00 | 0.08 | 0.00 | 70 | 1016.6 |
| 20260906062125 | 15 | 182 | 0.0 | 6.4 | 0.00 | 0.08 | 0.00 | 70 | 1016.6 |
| 20260906062025 | 15 | 186 | 0.0 | 6.4 | 0.00 | 0.08 | 0.00 | 70 | 1016.5 |
| 20260906061904 | 15 | 154 | 0.0 | 9.7 | 0.00 | 0.08 | 0.00 | 70 | 1016.6 |
| 20260906061804 | 15 | 154 | 0.0 | 9.7 | 0.00 | 0.08 | 0.00 | 70 | 1016.6 |
| 20260906061704 | 15 | 155 | 0.0 | 9.7 | 0.00 | 0.08 | 0.00 | 70 | 1016.4 |
| 20260906061604 | 15 | 160 | 0.0 | 9.7 | 0.00 | 0.08 | 0.00 | 70 | 1016.4 |
| 20260906061504 | 16 | 162 | 0.0 | 9.7 | 0.00 | 0.08 | 0.00 | 70 | 1016.5 |
| 20260906061404 | 16 | 164 | 0.0 | 9.7 | 0.00 | 0.08 | 0.00 | 69 | 1016.5 |
| 20260906061304 | 16 | 163 | 0.0 | 9.7 | 0.00 | 0.08 | 0.00 | 70 | 1016.3 |
| 20260906061207 | 16 | 127 | 0.0 | 9.7 | 0.00 | 0.08 | 0.00 | 68 | 1016.5 |
| 20260906061104 | 16 | 151 | 0.0 | 9.7 | 0.00 | 0.08 | 0.00 | 68 | 1016.6 |
| 20260906061025 | 16 | 153 | 0.0 | 9.7 | 0.00 | 0.08 | 0.00 | 68 | 1016.6 |
| 20260906060904 | 16 | 168 | 0.0 | 6.4 | 0.00 | 0.08 | 0.00 | 69 | 1016.4 |
| 20260906060804 | 16 | 165 | 0.0 | 6.4 | 0.00 | 0.08 | 0.00 | 69 | 1016.5 |
| 20260906060704 | 16 | 185 | 0.0 | 6.4 | 0.00 | 0.08 | 0.00 | 68 | 1016.5 |
| 20260906060625 | 16 | 180 | 0.0 | 6.4 | 0.00 | 0.08 | 0.00 | 69 | 1016.5 |
| 20260906060504 | 16 | 186 | 0.0 | 6.4 | 0.00 | 0.08 | 0.00 | 70 | 1016.5 |
| 20260906060404 | 15 | 176 | 0.0 | 6.4 | 0.00 | 0.08 | 0.00 | 70 | 1016.5 |
| 20260906060304 | 15 | 175 | 0.0 | 6.4 | 0.00 | 0.08 | 0.00 | 70 | 1016.4 |
| 20260906060204 | 15 | 191 | 0.0 | 6.4 | 0.00 | 0.08 | 0.00 | 70 | 1016.5 |
| 20260906060104 | 15 | 215 | 0.0 | 6.4 | 0.00 | 0.08 | 0.00 | 70 | 1016.4 |
| 20260906060025 | 15 | 223 | 0.0 | 6.4 | 0.00 | 0.08 | 0.00 | 70 | 1016.4 |
| 20260906055904 | 15 | 235 | 0.0 | 9.7 | 0.00 | 0.08 | 0.00 | 70 | 1016.5 |
| 20260906055825 | 15 | 229 | 0.0 | 9.7 | 0.00 | 0.08 | 0.00 | 70 | 1016.5 |
| 20260906055704 | 15 | 224 | 0.0 | 9.7 | 0.00 | 0.08 | 0.00 | 70 | 1016.2 |
| 20260906055604 | 15 | 227 | 0.0 | 9.7 | 0.00 | 0.08 | 0.00 | 71 | 1016.3 |
| 20260906055504 | 15 | 218 | 0.0 | 9.7 | 0.00 | 0.08 | 0.00 | 71 | 1016.5 |
| 20260906055425 | 15 | 228 | 0.0 | 9.7 | 0.00 | 0.08 | 0.00 | 71 | 1016.5 |
| 20260906055306 | 15 | 233 | 0.0 | 9.7 | 0.00 | 0.08 | 0.00 | 72 | 1016.3 |
| 20260906055225 | 15 | 236 | 0.0 | 9.7 | 0.00 | 0.08 | 0.00 | 71 | 1016.3 |
| 20260906055104 | 15 | 239 | 0.0 | 9.7 | 0.00 | 0.08 | 0.00 | 72 | 1016.3 |
| 20260906055004 | 14 | 222 | 0.0 | 9.7 | 0.00 | 0.08 | 0.00 | 73 | 1016.5 |
| 20260906054925 | 14 | 122 | 0.0 | 4.8 | 0.00 | 0.08 | 0.00 | 74 | 1016.5 |
| 20260906054825 | 14 | 130 | 0.0 | 4.8 | 0.00 | 0.08 | 0.00 | 74 | 1016.4 |
| 20260906054704 | 14 | 107 | 0.0 | 4.8 | 0.00 | 0.08 | 0.00 | 75 | 1016.3 |
| 20260906054604 | 14 | 131 | 0.0 | 4.8 | 0.00 | 0.08 | 0.00 | 75 | 1016.3 |
| 20260906054504 | 14 | 131 | 0.0 | 4.8 | 0.00 | 0.08 | 0.00 | 76 | 1016.3 |
| 20260906054404 | 14 | 162 | 0.0 | 1.6 | 0.00 | 0.08 | 0.00 | 76 | 1016.4 |
| 20260906054304 | 14 | 163 | 0.0 | 1.6 | 0.00 | 0.08 | 0.00 | 76 | 1016.3 |
| 20260906054204 | 14 | 163 | 0.0 | 1.6 | 0.00 | 0.08 | 0.00 | 76 | 1016.3 |
| 20260906054125 | 14 | 181 | 0.0 | 3.2 | 0.00 | 0.08 | 0.00 | 76 | 1016.3 |
| 20260906054004 | 14 | 186 | 0.0 | 3.2 | 0.00 | 0.08 | 0.00 | 76 | 1016.6 |
| 20260906053904 | 14 | 187 | 0.0 | 3.2 | 0.00 | 0.08 | 0.00 | 76 | 1016.2 |
| 20260906053804 | 14 | 195 | 0.0 | 3.2 | 0.00 | 0.08 | 0.00 | 76 | 1016.5 |
| 20260906053704 | 14 | 196 | 0.0 | 3.2 | 0.00 | 0.08 | 0.00 | 76 | 1016.4 |
| 20260906053604 | 14 | 196 | 0.0 | 3.2 | 0.00 | 0.08 | 0.00 | 76 | 1016.2 |
| 20260906053504 | 14 | 198 | 0.0 | 3.2 | 0.00 | 0.08 | 0.00 | 76 | 1016.3 |
| 20260906053404 | 14 | 228 | 0.0 | 3.2 | 0.00 | 0.08 | 0.00 | 76 | 1016.3 |
| 20260906053304 | 14 | 227 | 0.0 | 3.2 | 0.00 | 0.08 | 0.00 | 76 | 1016.3 |
| 20260906053204 | 14 | 227 | 0.0 | 3.2 | 0.00 | 0.08 | 0.00 | 76 | 1016.5 |
| 20260906053104 | 13 | 223 | 0.0 | 3.2 | 0.00 | 0.08 | 0.00 | 76 | 1016.3 |
| 20260906053025 | 13 | 221 | 0.0 | 3.2 | 0.00 | 0.08 | 0.00 | 76 | 1016.3 |
| 20260906052904 | 13 | 222 | 0.0 | 3.2 | 0.00 | 0.08 | 0.00 | 76 | 1016.3 |
| 20260906052804 | 13 | 222 | 0.0 | 3.2 | 0.00 | 0.08 | 0.00 | 76 | 1016.2 |
| 20260906052704 | 13 | 222 | 0.0 | 3.2 | 0.00 | 0.08 | 0.00 | 76 | 1016.1 |
| 20260906052604 | 13 | 212 | 0.0 | 3.2 | 0.00 | 0.08 | 0.00 | 76 | 1016.3 |
| 20260906052504 | 13 | 212 | 0.0 | 3.2 | 0.00 | 0.08 | 0.00 | 76 | 1016.3 |
| 20260906052404 | 13 | 206 | 0.0 | 3.2 | 0.00 | 0.08 | 0.00 | 76 | 1016.3 |
| 20260906052305 | 13 | 184 | 0.0 | 3.2 | 0.00 | 0.08 | 0.00 | 77 | 1016.4 |
| 20260906052204 | 13 | 184 | 0.0 | 3.2 | 0.00 | 0.08 | 0.00 | 76 | 1016.2 |
| 20260906052104 | 13 | 184 | 0.0 | 3.2 | 0.00 | 0.08 | 0.00 | 76 | 1016.2 |
| 20260906052004 | 13 | 168 | 0.0 | 3.2 | 0.00 | 0.08 | 0.00 | 77 | 1016.5 |
| 20260906051904 | 13 | 118 | 0.0 | 3.2 | 0.00 | 0.08 | 0.00 | 77 | 1016.3 |
| 20260906051804 | 13 | 118 | 0.0 | 3.2 | 0.00 | 0.08 | 0.00 | 77 | 1016.4 |
| 20260906051704 | 13 | 118 | 0.0 | 3.2 | 0.00 | 0.08 | 0.00 | 77 | 1016.5 |
| 20260906051604 | 13 | 0 | 0.0 | 0.0 | 0.00 | 0.08 | 0.00 | 77 | 1016.4 |
| 20260906051506 | 13 | 0 | 0.0 | 0.0 | 0.00 | 0.08 | 0.00 | 78 | 1016.5 |
| 20260906051404 | 13 | 0 | 0.0 | 0.0 | 0.00 | 0.08 | 0.00 | 78 | 1016.4 |
| 20260906051325 | 13 | 0 | 0.0 | 0.0 | 0.00 | 0.08 | 0.00 | 78 | 1016.4 |
| 20260906051204 | 13 | 0 | 0.0 | 0.0 | 0.00 | 0.08 | 0.00 | 78 | 1016.1 |
| 20260906051125 | 13 | 0 | 0.0 | 0.0 | 0.00 | 0.08 | 0.00 | 78 | 1016.1 |
| 20260906051004 | 13 | 0 | 0.0 | 0.0 | 0.00 | 0.08 | 0.00 | 78 | 1016.3 |
| 20260906050925 | 13 | 0 | 0.0 | 0.0 | 0.00 | 0.08 | 0.00 | 78 | 1016.3 |
| 20260906050804 | 13 | 0 | 0.0 | 0.0 | 0.00 | 0.08 | 0.00 | 78 | 1016.4 |
| 20260906050725 | 13 | 151 | 0.0 | 1.6 | 0.00 | 0.08 | 0.00 | 78 | 1016.4 |
| 20260906050604 | 13 | 170 | 0.0 | 1.6 | 0.00 | 0.08 | 0.00 | 79 | 1016.2 |
| 20260906050525 | 13 | 170 | 0.0 | 1.6 | 0.00 | 0.08 | 0.00 | 78 | 1016.2 |
| 20260906050425 | 13 | 170 | 0.0 | 1.6 | 0.00 | 0.08 | 0.00 | 78 | 1016.2 |
| 20260906050325 | 13 | 170 | 0.0 | 1.6 | 0.00 | 0.08 | 0.00 | 78 | 1016.3 |
| 20260906050204 | 13 | 170 | 0.0 | 1.6 | 0.00 | 0.08 | 0.00 | 78 | 1016.2 |
| 20260906050104 | 13 | 150 | 0.0 | 1.6 | 0.00 | 0.08 | 0.00 | 78 | 1016.3 |
| 20260906050004 | 13 | 150 | 0.0 | 1.6 | 0.00 | 0.08 | 0.00 | 78 | 1016.2 |
| 20260906045904 | 13 | 150 | 0.0 | 1.6 | 0.00 | 0.08 | 0.00 | 79 | 1016.1 |
| 20260906045804 | 13 | 150 | 0.0 | 1.6 | 0.00 | 0.08 | 0.00 | 79 | 1016.2 |
| 20260906045704 | 13 | 149 | 0.0 | 1.6 | 0.00 | 0.08 | 0.00 | 79 | 1016.3 |
| 20260906045604 | 13 | 123 | 0.0 | 1.6 | 0.00 | 0.08 | 0.00 | 79 | 1016.1 |
| 20260906045504 | 12 | 123 | 0.0 | 1.6 | 0.00 | 0.08 | 0.00 | 80 | 1016.4 |
| 20260906045404 | 12 | 123 | 0.0 | 1.6 | 0.00 | 0.08 | 0.00 | 80 | 1016.2 |
| 20260906045306 | 12 | 123 | 0.0 | 1.6 | 0.00 | 0.08 | 0.00 | 80 | 1016.3 |
| 20260906045204 | 12 | 123 | 0.0 | 1.6 | 0.00 | 0.08 | 0.00 | 80 | 1016.3 |
| 20260906045104 | 12 | 0 | 0.0 | 0.0 | 0.00 | 0.08 | 0.00 | 80 | 1016.1 |
| 20260906045025 | 12 | 0 | 0.0 | 0.0 | 0.00 | 0.08 | 0.00 | 80 | 1016.1 |
| 20260906044904 | 12 | 0 | 0.0 | 0.0 | 0.00 | 0.08 | 0.00 | 81 | 1016.2 |
| 20260906044804 | 12 | 0 | 0.0 | 0.0 | 0.00 | 0.08 | 0.00 | 81 | 1016.3 |
| 20260906044725 | 12 | 0 | 0.0 | 0.0 | 0.00 | 0.08 | 0.00 | 81 | 1016.3 |
| 20260906044604 | 12 | 0 | 0.0 | 0.0 | 0.00 | 0.08 | 0.00 | 82 | 1016.3 |
| 20260906044504 | 12 | 0 | 0.0 | 0.0 | 0.00 | 0.08 | 0.00 | 82 | 1016.2 |
| 20260906044404 | 12 | 0 | 0.0 | 0.0 | 0.00 | 0.08 | 0.00 | 82 | 1016.2 |
| 20260906044325 | 12 | 0 | 0.0 | 0.0 | 0.00 | 0.08 | 0.00 | 82 | 1016.2 |
| 20260906044204 | 12 | 0 | 0.0 | 0.0 | 0.00 | 0.08 | 0.00 | 82 | 1016.3 |
| 20260906044104 | 12 | 0 | 0.0 | 0.0 | 0.00 | 0.08 | 0.00 | 82 | 1016.2 |
| 20260906044004 | 12 | 0 | 0.0 | 0.0 | 0.00 | 0.08 | 0.00 | 83 | 1016.3 |
| 20260906043904 | 11 | 0 | 0.0 | 0.0 | 0.00 | 0.08 | 0.00 | 83 | 1016.3 |
| 20260906043804 | 11 | 0 | 0.0 | 0.0 | 0.00 | 0.08 | 0.00 | 83 | 1016.3 |
| 20260906043725 | 11 | 0 | 0.0 | 0.0 | 0.00 | 0.08 | 0.00 | 83 | 1016.3 |
| 20260906043604 | 11 | 0 | 0.0 | 0.0 | 0.00 | 0.08 | 0.00 | 83 | 1016.2 |
| 20260906043504 | 11 | 0 | 0.0 | 0.0 | 0.00 | 0.08 | 0.00 | 84 | 1016.1 |
| 20260906043404 | 11 | 0 | 0.0 | 0.0 | 0.00 | 0.08 | 0.00 | 84 | 1016.3 |
| 20260906043304 | 11 | 0 | 0.0 | 0.0 | 0.00 | 0.08 | 0.00 | 84 | 1016.3 |
| 20260906043204 | 11 | 0 | 0.0 | 0.0 | 0.00 | 0.08 | 0.00 | 84 | 1016.1 |
| 20260906043104 | 11 | 0 | 0.0 | 0.0 | 0.00 | 0.08 | 0.00 | 84 | 1016.5 |
| 20260906043004 | 11 | 0 | 0.0 | 0.0 | 0.00 | 0.08 | 0.00 | 85 | 1016.0 |
| 20260906042904 | 11 | 0 | 0.0 | 0.0 | 0.00 | 0.08 | 0.00 | 85 | 1016.0 |
| 20260906042804 | 11 | 0 | 0.0 | 0.0 | 0.00 | 0.08 | 0.00 | 85 | 1016.4 |
| 20260906042704 | 11 | 0 | 0.0 | 0.0 | 0.00 | 0.08 | 0.00 | 85 | 1016.3 |
| 20260906042604 | 11 | 0 | 0.0 | 0.0 | 0.00 | 0.08 | 0.00 | 86 | 1016.3 |
| 20260906042525 | 11 | 0 | 0.0 | 0.0 | 0.00 | 0.08 | 0.00 | 86 | 1016.3 |
| 20260906042425 | 11 | 0 | 0.0 | 0.0 | 0.00 | 0.08 | 0.00 | 86 | 1016.3 |
| 20260906042325 | 11 | 0 | 0.0 | 0.0 | 0.00 | 0.08 | 0.00 | 86 | 1016.0 |
| 20260906042204 | 11 | 0 | 0.0 | 0.0 | 0.00 | 0.08 | 0.00 | 86 | 1016.1 |
| 20260906042104 | 11 | 0 | 0.0 | 0.0 | 0.00 | 0.08 | 0.00 | 86 | 1016.1 |
| 20260906042025 | 11 | 0 | 0.0 | 0.0 | 0.00 | 0.08 | 0.00 | 86 | 1016.1 |
| 20260906041904 | 11 | 0 | 0.0 | 0.0 | 0.00 | 0.08 | 0.00 | 87 | 1016.0 |
| 20260906041804 | 11 | 0 | 0.0 | 0.0 | 0.00 | 0.08 | 0.00 | 87 | 1015.8 |
| 20260906041704 | 11 | 0 | 0.0 | 0.0 | 0.00 | 0.08 | 0.00 | 87 | 1015.9 |
| 20260906041625 | 11 | 0 | 0.0 | 0.0 | 0.00 | 0.08 | 0.00 | 87 | 1015.9 |
| 20260906041525 | 11 | 0 | 0.0 | 0.0 | 0.00 | 0.08 | 0.00 | 88 | 1015.8 |
| 20260906041404 | 10 | 0 | 0.0 | 0.0 | 0.00 | 0.08 | 0.00 | 88 | 1015.9 |
| 20260906041304 | 10 | 0 | 0.0 | 0.0 | 0.00 | 0.08 | 0.00 | 88 | 1016.1 |
| 20260906041204 | 10 | 0 | 0.0 | 0.0 | 0.00 | 0.08 | 0.00 | 88 | 1015.7 |
| 20260906041104 | 10 | 0 | 0.0 | 0.0 | 0.00 | 0.08 | 0.00 | 88 | 1015.8 |
| 20260906041004 | 10 | 0 | 0.0 | 0.0 | 0.00 | 0.08 | 0.00 | 88 | 1016.1 |
| 20260906040904 | 10 | 0 | 0.0 | 0.0 | 0.00 | 0.08 | 0.00 | 89 | 1015.8 |
| 20260906040804 | 10 | 0 | 0.0 | 0.0 | 0.00 | 0.08 | 0.00 | 89 | 1016.0 |
| 20260906040704 | 10 | 0 | 0.0 | 0.0 | 0.00 | 0.08 | 0.00 | 88 | 1015.8 |
| 20260906040604 | 10 | 0 | 0.0 | 0.0 | 0.00 | 0.08 | 0.00 | 88 | 1015.7 |
| 20260906040504 | 10 | 0 | 0.0 | 0.0 | 0.00 | 0.08 | 0.00 | 88 | 1015.4 |
| 20260906040404 | 10 | 0 | 0.0 | 0.0 | 0.00 | 0.08 | 0.00 | 88 | 1015.9 |
| 20260906040304 | 10 | 0 | 0.0 | 0.0 | 0.00 | 0.08 | 0.00 | 88 | 1015.7 |
| 20260906040204 | 10 | 0 | 0.0 | 0.0 | 0.00 | 0.08 | 0.00 | 88 | 1015.6 |
| 20260906040125 | 10 | 0 | 0.0 | 0.0 | 0.00 | 0.08 | 0.00 | 88 | 1015.6 |
| 20260906040004 | 10 | 0 | 0.0 | 0.0 | 0.00 | 0.08 | 0.00 | 88 | 1015.7 |
| 20260906035904 | 10 | 0 | 0.0 | 0.0 | 0.00 | 0.08 | 0.00 | 88 | 1015.7 |
| 20260906035804 | 10 | 0 | 0.0 | 0.0 | 0.00 | 0.08 | 0.00 | 88 | 1015.6 |
| 20260906035704 | 10 | 0 | 0.0 | 0.0 | 0.00 | 0.08 | 0.00 | 88 | 1015.8 |
| 20260906035625 | 10 | 0 | 0.0 | 0.0 | 0.00 | 0.08 | 0.00 | 88 | 1015.8 |
| 20260906035504 | 10 | 0 | 0.0 | 0.0 | 0.00 | 0.08 | 0.00 | 88 | 1015.7 |
| 20260906035405 | 10 | 0 | 0.0 | 0.0 | 0.00 | 0.08 | 0.00 | 88 | 1015.7 |
| 20260906035306 | 10 | 0 | 0.0 | 0.0 | 0.00 | 0.08 | 0.00 | 88 | 1015.9 |
| 20260906035204 | 10 | 0 | 0.0 | 0.0 | 0.00 | 0.08 | 0.00 | 88 | 1015.8 |
| 20260906035104 | 10 | 0 | 0.0 | 0.0 | 0.00 | 0.08 | 0.00 | 88 | 1015.8 |
| 20260906035004 | 10 | 0 | 0.0 | 0.0 | 0.00 | 0.08 | 0.00 | 88 | 1015.9 |
| 20260906034904 | 10 | 0 | 0.0 | 0.0 | 0.00 | 0.08 | 0.00 | 88 | 1015.9 |
| 20260906034804 | 10 | 0 | 0.0 | 0.0 | 0.00 | 0.08 | 0.00 | 88 | 1015.7 |
| 20260906034704 | 10 | 0 | 0.0 | 0.0 | 0.00 | 0.08 | 0.00 | 88 | 1015.7 |
| 20260906034604 | 10 | 0 | 0.0 | 0.0 | 0.00 | 0.08 | 0.00 | 88 | 1015.7 |
| 20260906034504 | 10 | 0 | 0.0 | 0.0 | 0.00 | 0.08 | 0.00 | 88 | 1015.9 |
| 20260906034404 | 10 | 0 | 0.0 | 0.0 | 0.00 | 0.08 | 0.00 | 88 | 1015.9 |
| 20260906034304 | 10 | 0 | 0.0 | 0.0 | 0.00 | 0.08 | 0.00 | 88 | 1015.8 |
| 20260906034204 | 10 | 0 | 0.0 | 0.0 | 0.00 | 0.08 | 0.00 | 88 | 1015.7 |
| 20260906034104 | 10 | 0 | 0.0 | 0.0 | 0.00 | 0.08 | 0.00 | 88 | 1016.0 |
| 20260906034004 | 10 | 0 | 0.0 | 0.0 | 0.00 | 0.08 | 0.00 | 88 | 1015.9 |
| 20260906033925 | 10 | 0 | 0.0 | 0.0 | 0.00 | 0.08 | 0.00 | 88 | 1015.9 |
| 20260906033804 | 10 | 0 | 0.0 | 0.0 | 0.00 | 0.08 | 0.00 | 88 | 1015.9 |
| 20260906033704 | 10 | 0 | 0.0 | 0.0 | 0.00 | 0.08 | 0.00 | 88 | 1015.9 |
| 20260906033604 | 10 | 0 | 0.0 | 0.0 | 0.00 | 0.08 | 0.00 | 88 | 1016.0 |
| 20260906033504 | 10 | 0 | 0.0 | 0.0 | 0.00 | 0.08 | 0.00 | 88 | 1016.0 |
| 20260906033404 | 10 | 0 | 0.0 | 0.0 | 0.00 | 0.08 | 0.00 | 88 | 1015.9 |
| 20260906033304 | 10 | 0 | 0.0 | 0.0 | 0.00 | 0.08 | 0.00 | 88 | 1016.0 |
| 20260906033204 | 10 | 0 | 0.0 | 0.0 | 0.00 | 0.08 | 0.00 | 88 | 1016.1 |
| 20260906033104 | 10 | 0 | 0.0 | 0.0 | 0.00 | 0.08 | 0.00 | 88 | 1016.0 |
| 20260906033004 | 10 | 0 | 0.0 | 0.0 | 0.00 | 0.08 | 0.00 | 88 | 1015.9 |
| 20260906032904 | 10 | 0 | 0.0 | 0.0 | 0.00 | 0.08 | 0.00 | 88 | 1015.9 |
| 20260906032804 | 10 | 0 | 0.0 | 0.0 | 0.00 | 0.08 | 0.00 | 88 | 1016.1 |
| 20260906032704 | 10 | 0 | 0.0 | 0.0 | 0.00 | 0.08 | 0.00 | 88 | 1015.8 |
| 20260906032604 | 10 | 0 | 0.0 | 0.0 | 0.00 | 0.08 | 0.00 | 88 | 1016.0 |
| 20260906032504 | 10 | 0 | 0.0 | 0.0 | 0.00 | 0.08 | 0.00 | 88 | 1016.0 |
| 20260906032404 | 10 | 0 | 0.0 | 0.0 | 0.00 | 0.08 | 0.00 | 88 | 1016.1 |
| 20260906032306 | 10 | 0 | 0.0 | 0.0 | 0.00 | 0.08 | 0.00 | 88 | 1016.2 |
| 20260906032204 | 10 | 0 | 0.0 | 0.0 | 0.00 | 0.08 | 0.00 | 88 | 1016.1 |
| 20260906032104 | 10 | 0 | 0.0 | 0.0 | 0.00 | 0.08 | 0.00 | 88 | 1015.8 |
| 20260906032004 | 10 | 0 | 0.0 | 0.0 | 0.00 | 0.08 | 0.00 | 88 | 1015.8 |
| 20260906031904 | 10 | 0 | 0.0 | 0.0 | 0.00 | 0.08 | 0.00 | 88 | 1015.9 |
| 20260906031804 | 10 | 0 | 0.0 | 0.0 | 0.00 | 0.08 | 0.00 | 88 | 1016.0 |
| 20260906031704 | 10 | 0 | 0.0 | 0.0 | 0.00 | 0.08 | 0.00 | 88 | 1015.9 |
| 20260906031604 | 10 | 0 | 0.0 | 0.0 | 0.00 | 0.08 | 0.00 | 88 | 1016.0 |
| 20260906031504 | 10 | 0 | 0.0 | 0.0 | 0.00 | 0.08 | 0.00 | 88 | 1015.9 |
| 20260906031425 | 10 | 0 | 0.0 | 0.0 | 0.00 | 0.08 | 0.00 | 88 | 1015.9 |
| 20260906031304 | 10 | 0 | 0.0 | 0.0 | 0.00 | 0.08 | 0.00 | 88 | 1015.8 |
| 20260906031204 | 10 | 0 | 0.0 | 0.0 | 0.00 | 0.08 | 0.00 | 88 | 1015.8 |
| 20260906031104 | 10 | 0 | 0.0 | 0.0 | 0.00 | 0.08 | 0.00 | 88 | 1016.1 |
| 20260906031004 | 10 | 0 | 0.0 | 0.0 | 0.00 | 0.08 | 0.00 | 88 | 1015.7 |
| 20260906030904 | 10 | 0 | 0.0 | 0.0 | 0.00 | 0.08 | 0.00 | 89 | 1015.8 |
| 20260906030825 | 10 | 0 | 0.0 | 0.0 | 0.00 | 0.08 | 0.00 | 88 | 1015.8 |
| 20260906030704 | 10 | 0 | 0.0 | 0.0 | 0.00 | 0.08 | 0.00 | 88 | 1015.8 |
| 20260906030604 | 10 | 0 | 0.0 | 0.0 | 0.00 | 0.08 | 0.00 | 89 | 1015.8 |
| 20260906030504 | 10 | 0 | 0.0 | 0.0 | 0.00 | 0.08 | 0.00 | 88 | 1015.7 |
| 20260906030404 | 10 | 0 | 0.0 | 0.0 | 0.00 | 0.08 | 0.00 | 89 | 1016.0 |
| 20260906030304 | 10 | 0 | 0.0 | 0.0 | 0.00 | 0.08 | 0.00 | 88 | 1015.9 |
| 20260906030225 | 10 | 0 | 0.0 | 0.0 | 0.00 | 0.08 | 0.00 | 88 | 1015.9 |
| 20260906030104 | 10 | 0 | 0.0 | 0.0 | 0.00 | 0.08 | 0.00 | 88 | 1015.9 |
| 20260906030004 | 10 | 0 | 0.0 | 0.0 | 0.00 | 0.08 | 0.00 | 88 | 1015.6 |
| 20260906025925 | 10 | 0 | 0.0 | 0.0 | 0.00 | 0.08 | 0.00 | 88 | 1015.6 |
| 20260906025804 | 10 | 0 | 0.0 | 0.0 | 0.00 | 0.08 | 0.00 | 88 | 1015.7 |
| 20260906025704 | 10 | 0 | 0.0 | 0.0 | 0.00 | 0.08 | 0.00 | 88 | 1015.9 |
| 20260906025604 | 10 | 0 | 0.0 | 0.0 | 0.00 | 0.08 | 0.00 | 88 | 1015.8 |
| 20260906025504 | 10 | 0 | 0.0 | 0.0 | 0.00 | 0.08 | 0.00 | 88 | 1015.8 |
| 20260906025404 | 10 | 0 | 0.0 | 0.0 | 0.00 | 0.08 | 0.00 | 88 | 1015.9 |
| 20260906025306 | 10 | 0 | 0.0 | 0.0 | 0.00 | 0.08 | 0.00 | 88 | 1015.9 |
| 20260906025205 | 10 | 0 | 0.0 | 0.0 | 0.00 | 0.08 | 0.00 | 88 | 1015.7 |
| 20260906025104 | 10 | 0 | 0.0 | 0.0 | 0.00 | 0.08 | 0.00 | 88 | 1015.9 |
| 20260906025004 | 10 | 0 | 0.0 | 0.0 | 0.00 | 0.08 | 0.00 | 88 | 1015.7 |
| 20260906024904 | 10 | 0 | 0.0 | 0.0 | 0.00 | 0.08 | 0.00 | 88 | 1015.9 |
| 20260906024804 | 10 | 0 | 0.0 | 0.0 | 0.00 | 0.08 | 0.00 | 88 | 1016.0 |
| 20260906024725 | 10 | 0 | 0.0 | 0.0 | 0.00 | 0.08 | 0.00 | 88 | 1016.0 |
| 20260906024604 | 10 | 0 | 0.0 | 0.0 | 0.00 | 0.08 | 0.00 | 88 | 1015.9 |
| 20260906024504 | 10 | 0 | 0.0 | 0.0 | 0.00 | 0.08 | 0.00 | 88 | 1015.9 |
| 20260906024404 | 10 | 0 | 0.0 | 0.0 | 0.00 | 0.08 | 0.00 | 88 | 1016.1 |
| 20260906024304 | 10 | 0 | 0.0 | 0.0 | 0.00 | 0.08 | 0.00 | 88 | 1015.8 |
| 20260906024225 | 10 | 0 | 0.0 | 0.0 | 0.00 | 0.08 | 0.00 | 88 | 1015.8 |
| 20260906024104 | 10 | 0 | 0.0 | 0.0 | 0.00 | 0.08 | 0.00 | 88 | 1016.0 |
| 20260906024004 | 10 | 0 | 0.0 | 0.0 | 0.00 | 0.08 | 0.00 | 88 | 1015.8 |
| 20260906023904 | 10 | 0 | 0.0 | 0.0 | 0.00 | 0.08 | 0.00 | 88 | 1015.9 |
| 20260906023805 | 10 | 0 | 0.0 | 0.0 | 0.00 | 0.08 | 0.00 | 88 | 1016.0 |
| 20260906023704 | 10 | 0 | 0.0 | 0.0 | 0.00 | 0.08 | 0.00 | 88 | 1015.8 |
| 20260906023604 | 10 | 0 | 0.0 | 0.0 | 0.00 | 0.08 | 0.00 | 88 | 1015.7 |
| 20260906023504 | 10 | 0 | 0.0 | 0.0 | 0.00 | 0.08 | 0.00 | 88 | 1015.8 |
| 20260906023404 | 10 | 0 | 0.0 | 0.0 | 0.00 | 0.08 | 0.00 | 88 | 1015.8 |
| 20260906023304 | 10 | 0 | 0.0 | 0.0 | 0.00 | 0.08 | 0.00 | 88 | 1015.9 |
| 20260906023204 | 10 | 0 | 0.0 | 0.0 | 0.00 | 0.08 | 0.00 | 88 | 1016.0 |
| 20260906023104 | 10 | 0 | 0.0 | 0.0 | 0.00 | 0.08 | 0.00 | 88 | 1015.8 |
| 20260906023004 | 10 | 0 | 0.0 | 0.0 | 0.00 | 0.08 | 0.00 | 88 | 1015.8 |
| 20260906022904 | 10 | 0 | 0.0 | 0.0 | 0.00 | 0.08 | 0.00 | 88 | 1015.8 |
| 20260906022804 | 10 | 0 | 0.0 | 0.0 | 0.00 | 0.08 | 0.00 | 88 | 1015.8 |
| 20260906022704 | 10 | 0 | 0.0 | 0.0 | 0.00 | 0.08 | 0.00 | 88 | 1015.9 |
| 20260906022604 | 10 | 0 | 0.0 | 0.0 | 0.00 | 0.08 | 0.00 | 88 | 1015.9 |
| 20260906022504 | 10 | 0 | 0.0 | 0.0 | 0.00 | 0.08 | 0.00 | 88 | 1016.0 |
| 20260906022404 | 10 | 0 | 0.0 | 0.0 | 0.00 | 0.08 | 0.00 | 88 | 1015.9 |
| 20260906022306 | 10 | 0 | 0.0 | 0.0 | 0.00 | 0.08 | 0.00 | 88 | 1015.7 |
| 20260906022204 | 10 | 0 | 0.0 | 0.0 | 0.00 | 0.08 | 0.00 | 88 | 1015.7 |
| 20260906022125 | 10 | 0 | 0.0 | 0.0 | 0.00 | 0.08 | 0.00 | 88 | 1015.7 |
| 20260906022004 | 10 | 0 | 0.0 | 0.0 | 0.00 | 0.08 | 0.00 | 88 | 1015.8 |
| 20260906021904 | 10 | 0 | 0.0 | 0.0 | 0.00 | 0.08 | 0.00 | 88 | 1015.6 |
| 20260906021825 | 10 | 0 | 0.0 | 0.0 | 0.00 | 0.08 | 0.00 | 88 | 1015.6 |
| 20260906021704 | 10 | 0 | 0.0 | 0.0 | 0.00 | 0.08 | 0.00 | 88 | 1015.7 |
| 20260906021604 | 10 | 0 | 0.0 | 0.0 | 0.00 | 0.08 | 0.00 | 88 | 1015.7 |
| 20260906021525 | 10 | 0 | 0.0 | 0.0 | 0.00 | 0.08 | 0.00 | 88 | 1015.7 |
| 20260906021425 | 10 | 0 | 0.0 | 0.0 | 0.00 | 0.08 | 0.00 | 88 | 1015.5 |
| 20260906021304 | 10 | 0 | 0.0 | 0.0 | 0.00 | 0.08 | 0.00 | 88 | 1015.8 |
| 20260906021204 | 10 | 0 | 0.0 | 0.0 | 0.00 | 0.08 | 0.00 | 88 | 1015.9 |
| 20260906021104 | 10 | 0 | 0.0 | 0.0 | 0.00 | 0.08 | 0.00 | 88 | 1015.5 |
| 20260906021004 | 10 | 0 | 0.0 | 0.0 | 0.00 | 0.08 | 0.00 | 88 | 1015.8 |
| 20260906020904 | 10 | 0 | 0.0 | 0.0 | 0.00 | 0.08 | 0.00 | 88 | 1015.6 |
| 20260906020804 | 10 | 0 | 0.0 | 0.0 | 0.00 | 0.08 | 0.00 | 88 | 1015.9 |
| 20260906020704 | 10 | 0 | 0.0 | 0.0 | 0.00 | 0.08 | 0.00 | 88 | 1015.9 |
| 20260906020604 | 10 | 0 | 0.0 | 0.0 | 0.00 | 0.08 | 0.00 | 88 | 1015.7 |
| 20260906020525 | 10 | 0 | 0.0 | 0.0 | 0.00 | 0.08 | 0.00 | 88 | 1015.7 |
| 20260906020425 | 10 | 0 | 0.0 | 0.0 | 0.00 | 0.08 | 0.00 | 88 | 1015.7 |
| 20260906020304 | 10 | 0 | 0.0 | 0.0 | 0.00 | 0.08 | 0.00 | 88 | 1015.9 |
| 20260906020204 | 10 | 0 | 0.0 | 0.0 | 0.00 | 0.08 | 0.00 | 88 | 1015.7 |
| 20260906020104 | 10 | 0 | 0.0 | 0.0 | 0.00 | 0.08 | 0.00 | 88 | 1015.7 |
| 20260906020005 | 10 | 0 | 0.0 | 0.0 | 0.00 | 0.08 | 0.00 | 88 | 1015.7 |
| 20260906015904 | 10 | 0 | 0.0 | 0.0 | 0.00 | 0.08 | 0.00 | 88 | 1015.6 |
| 20260906015804 | 10 | 0 | 0.0 | 0.0 | 0.00 | 0.08 | 0.00 | 88 | 1015.8 |
| 20260906015725 | 10 | 0 | 0.0 | 0.0 | 0.00 | 0.08 | 0.00 | 88 | 1015.8 |
| 20260906015625 | 10 | 0 | 0.0 | 0.0 | 0.00 | 0.08 | 0.00 | 88 | 1015.6 |
| 20260906015525 | 10 | 0 | 0.0 | 0.0 | 0.00 | 0.08 | 0.00 | 88 | 1015.6 |
| 20260906015404 | 10 | 0 | 0.0 | 0.0 | 0.00 | 0.08 | 0.00 | 88 | 1015.7 |
| 20260906015306 | 10 | 0 | 0.0 | 0.0 | 0.00 | 0.08 | 0.00 | 88 | 1015.6 |
| 20260906015204 | 10 | 0 | 0.0 | 0.0 | 0.00 | 0.08 | 0.00 | 88 | 1015.6 |
| 20260906015104 | 10 | 0 | 0.0 | 0.0 | 0.00 | 0.08 | 0.00 | 88 | 1015.6 |
| 20260906015004 | 10 | 0 | 0.0 | 0.0 | 0.00 | 0.08 | 0.00 | 88 | 1015.7 |
| 20260906014904 | 10 | 0 | 0.0 | 0.0 | 0.00 | 0.08 | 0.00 | 88 | 1015.6 |
| 20260906014804 | 10 | 0 | 0.0 | 0.0 | 0.00 | 0.08 | 0.00 | 88 | 1015.7 |
| 20260906014704 | 10 | 0 | 0.0 | 0.0 | 0.00 | 0.08 | 0.00 | 88 | 1015.4 |
| 20260906014604 | 10 | 0 | 0.0 | 0.0 | 0.00 | 0.08 | 0.00 | 88 | 1015.6 |
| 20260906014504 | 10 | 0 | 0.0 | 0.0 | 0.00 | 0.08 | 0.00 | 88 | 1015.5 |
| 20260906014404 | 10 | 0 | 0.0 | 0.0 | 0.00 | 0.08 | 0.00 | 88 | 1015.7 |
| 20260906014304 | 10 | 0 | 0.0 | 0.0 | 0.00 | 0.08 | 0.00 | 88 | 1015.6 |
| 20260906014204 | 10 | 0 | 0.0 | 0.0 | 0.00 | 0.08 | 0.00 | 88 | 1015.6 |
| 20260906014104 | 10 | 0 | 0.0 | 0.0 | 0.00 | 0.08 | 0.00 | 88 | 1015.7 |
| 20260906014004 | 10 | 0 | 0.0 | 0.0 | 0.00 | 0.08 | 0.00 | 88 | 1015.8 |
| 20260906013904 | 10 | 0 | 0.0 | 0.0 | 0.00 | 0.08 | 0.00 | 88 | 1015.7 |
| 20260906013804 | 10 | 0 | 0.0 | 0.0 | 0.00 | 0.08 | 0.00 | 88 | 1015.7 |
| 20260906013725 | 10 | 0 | 0.0 | 0.0 | 0.00 | 0.08 | 0.00 | 88 | 1015.7 |
| 20260906013604 | 10 | 0 | 0.0 | 0.0 | 0.00 | 0.08 | 0.00 | 88 | 1015.4 |
| 20260906013504 | 10 | 0 | 0.0 | 0.0 | 0.00 | 0.08 | 0.00 | 88 | 1015.7 |
| 20260906013404 | 10 | 0 | 0.0 | 0.0 | 0.00 | 0.08 | 0.00 | 88 | 1015.5 |
| 20260906013304 | 10 | 0 | 0.0 | 0.0 | 0.00 | 0.08 | 0.00 | 88 | 1015.8 |
| 20260906013204 | 10 | 0 | 0.0 | 0.0 | 0.00 | 0.08 | 0.00 | 88 | 1015.7 |
| 20260906013125 | 10 | 0 | 0.0 | 0.0 | 0.00 | 0.08 | 0.00 | 88 | 1015.7 |
| 20260906013004 | 10 | 0 | 0.0 | 0.0 | 0.00 | 0.08 | 0.00 | 88 | 1015.8 |
| 20260906012925 | 10 | 0 | 0.0 | 0.0 | 0.00 | 0.08 | 0.00 | 88 | 1015.8 |
| 20260906012804 | 10 | 0 | 0.0 | 0.0 | 0.00 | 0.08 | 0.00 | 88 | 1015.6 |
| 20260906012704 | 10 | 0 | 0.0 | 0.0 | 0.00 | 0.08 | 0.00 | 88 | 1015.7 |
| 20260906012604 | 10 | 0 | 0.0 | 0.0 | 0.00 | 0.08 | 0.00 | 88 | 1015.7 |
| 20260906012504 | 10 | 0 | 0.0 | 0.0 | 0.00 | 0.08 | 0.00 | 88 | 1015.6 |
| 20260906012404 | 10 | 0 | 0.0 | 0.0 | 0.00 | 0.08 | 0.00 | 88 | 1015.7 |
| 20260906012306 | 10 | 0 | 0.0 | 0.0 | 0.00 | 0.08 | 0.00 | 88 | 1015.5 |
| 20260906012204 | 10 | 0 | 0.0 | 0.0 | 0.00 | 0.08 | 0.00 | 88 | 1015.6 |
| 20260906012104 | 10 | 0 | 0.0 | 0.0 | 0.00 | 0.08 | 0.00 | 88 | 1015.6 |
| 20260906012004 | 10 | 0 | 0.0 | 0.0 | 0.00 | 0.08 | 0.00 | 88 | 1015.5 |
| 20260906011904 | 10 | 0 | 0.0 | 0.0 | 0.00 | 0.08 | 0.00 | 88 | 1015.9 |
| 20260906011804 | 10 | 0 | 0.0 | 0.0 | 0.00 | 0.08 | 0.00 | 88 | 1015.5 |
| 20260906011704 | 10 | 0 | 0.0 | 0.0 | 0.00 | 0.08 | 0.00 | 87 | 1015.8 |
| 20260906011604 | 10 | 0 | 0.0 | 0.0 | 0.00 | 0.08 | 0.00 | 87 | 1015.7 |
| 20260906011504 | 10 | 0 | 0.0 | 0.0 | 0.00 | 0.08 | 0.00 | 87 | 1015.6 |
| 20260906011404 | 10 | 0 | 0.0 | 0.0 | 0.00 | 0.08 | 0.00 | 87 | 1015.7 |
| 20260906011304 | 10 | 0 | 0.0 | 0.0 | 0.00 | 0.08 | 0.00 | 87 | 1015.6 |
| 20260906011225 | 10 | 0 | 0.0 | 0.0 | 0.00 | 0.08 | 0.00 | 87 | 1015.6 |
| 20260906011125 | 10 | 0 | 0.0 | 0.0 | 0.00 | 0.08 | 0.00 | 87 | 1015.8 |
| 20260906011025 | 10 | 0 | 0.0 | 0.0 | 0.00 | 0.08 | 0.00 | 87 | 1015.9 |
| 20260906010904 | 10 | 0 | 0.0 | 0.0 | 0.00 | 0.08 | 0.00 | 87 | 1015.6 |
| 20260906010804 | 10 | 0 | 0.0 | 0.0 | 0.00 | 0.08 | 0.00 | 87 | 1015.7 |
| 20260906010725 | 10 | 0 | 0.0 | 0.0 | 0.00 | 0.08 | 0.00 | 87 | 1015.7 |
| 20260906010625 | 10 | 0 | 0.0 | 0.0 | 0.00 | 0.08 | 0.00 | 87 | 1015.8 |
| 20260906010504 | 10 | 0 | 0.0 | 0.0 | 0.00 | 0.08 | 0.00 | 87 | 1015.6 |
| 20260906010404 | 10 | 0 | 0.0 | 0.0 | 0.00 | 0.08 | 0.00 | 87 | 1015.8 |
| 20260906010304 | 10 | 0 | 0.0 | 0.0 | 0.00 | 0.08 | 0.00 | 87 | 1015.8 |
| 20260906010225 | 10 | 0 | 0.0 | 0.0 | 0.00 | 0.08 | 0.00 | 87 | 1015.8 |
| 20260906010125 | 10 | 0 | 0.0 | 0.0 | 0.00 | 0.08 | 0.00 | 87 | 1015.8 |
| 20260906010004 | 10 | 0 | 0.0 | 0.0 | 0.00 | 0.08 | 0.00 | 87 | 1015.8 |
| 20260906005904 | 10 | 0 | 0.0 | 0.0 | 0.00 | 0.08 | 0.00 | 87 | 1015.9 |
| 20260906005804 | 10 | 0 | 0.0 | 0.0 | 0.00 | 0.08 | 0.00 | 87 | 1015.8 |
| 20260906005704 | 10 | 0 | 0.0 | 0.0 | 0.00 | 0.08 | 0.00 | 87 | 1015.8 |
| 20260906005605 | 10 | 0 | 0.0 | 0.0 | 0.00 | 0.08 | 0.00 | 87 | 1015.9 |
| 20260906005525 | 10 | 0 | 0.0 | 0.0 | 0.00 | 0.08 | 0.00 | 87 | 1015.9 |
| 20260906005404 | 10 | 0 | 0.0 | 0.0 | 0.00 | 0.08 | 0.00 | 88 | 1015.9 |
| 20260906005306 | 10 | 0 | 0.0 | 0.0 | 0.00 | 0.08 | 0.00 | 87 | 1015.7 |
| 20260906005204 | 10 | 0 | 0.0 | 0.0 | 0.00 | 0.08 | 0.00 | 87 | 1015.8 |
| 20260906005104 | 10 | 0 | 0.0 | 0.0 | 0.00 | 0.08 | 0.00 | 87 | 1015.7 |
| 20260906005004 | 10 | 0 | 0.0 | 0.0 | 0.00 | 0.08 | 0.00 | 87 | 1015.8 |
| 20260906004904 | 10 | 0 | 0.0 | 0.0 | 0.00 | 0.08 | 0.00 | 87 | 1015.8 |
| 20260906004804 | 10 | 0 | 0.0 | 0.0 | 0.00 | 0.08 | 0.00 | 87 | 1015.7 |
| 20260906004704 | 10 | 0 | 0.0 | 0.0 | 0.00 | 0.08 | 0.00 | 87 | 1015.6 |
| 20260906004604 | 10 | 0 | 0.0 | 0.0 | 0.00 | 0.08 | 0.00 | 87 | 1015.8 |
| 20260906004504 | 10 | 0 | 0.0 | 0.0 | 0.00 | 0.08 | 0.00 | 87 | 1015.7 |
| 20260906004404 | 10 | 0 | 0.0 | 0.0 | 0.00 | 0.08 | 0.00 | 87 | 1015.7 |
| 20260906004304 | 10 | 0 | 0.0 | 0.0 | 0.00 | 0.08 | 0.00 | 87 | 1015.6 |
| 20260906004204 | 10 | 0 | 0.0 | 0.0 | 0.00 | 0.08 | 0.00 | 87 | 1015.7 |
| 20260906004104 | 10 | 0 | 0.0 | 0.0 | 0.00 | 0.08 | 0.00 | 87 | 1015.7 |
| 20260906004004 | 10 | 0 | 0.0 | 0.0 | 0.00 | 0.08 | 0.00 | 87 | 1015.9 |
| 20260906003904 | 10 | 0 | 0.0 | 0.0 | 0.00 | 0.08 | 0.00 | 87 | 1015.8 |
| 20260906003804 | 10 | 0 | 0.0 | 0.0 | 0.00 | 0.08 | 0.00 | 87 | 1015.7 |
| 20260906003704 | 10 | 0 | 0.0 | 0.0 | 0.00 | 0.08 | 0.00 | 88 | 1015.8 |
| 20260906003604 | 10 | 0 | 0.0 | 0.0 | 0.00 | 0.08 | 0.00 | 87 | 1015.9 |
| 20260906003504 | 10 | 0 | 0.0 | 0.0 | 0.00 | 0.08 | 0.00 | 87 | 1015.8 |
| 20260906003425 | 10 | 0 | 0.0 | 0.0 | 0.00 | 0.08 | 0.00 | 87 | 1015.8 |
| 20260906003304 | 10 | 0 | 0.0 | 0.0 | 0.00 | 0.08 | 0.00 | 87 | 1015.7 |
| 20260906003204 | 11 | 0 | 0.0 | 0.0 | 0.00 | 0.08 | 0.00 | 87 | 1015.7 |
| 20260906003104 | 11 | 0 | 0.0 | 0.0 | 0.00 | 0.08 | 0.00 | 87 | 1015.5 |
| 20260906003004 | 11 | 0 | 0.0 | 0.0 | 0.00 | 0.08 | 0.00 | 87 | 1015.7 |
| 20260906002904 | 11 | 0 | 0.0 | 0.0 | 0.00 | 0.08 | 0.00 | 87 | 1015.8 |
| 20260906002804 | 11 | 0 | 0.0 | 0.0 | 0.00 | 0.08 | 0.00 | 87 | 1015.7 |
| 20260906002704 | 11 | 0 | 0.0 | 0.0 | 0.00 | 0.08 | 0.00 | 87 | 1016.0 |
| 20260906002625 | 11 | 0 | 0.0 | 0.0 | 0.00 | 0.08 | 0.00 | 87 | 1016.0 |
| 20260906002504 | 11 | 0 | 0.0 | 0.0 | 0.00 | 0.08 | 0.00 | 87 | 1015.4 |
| 20260906002425 | 11 | 0 | 0.0 | 0.0 | 0.00 | 0.08 | 0.00 | 87 | 1015.4 |
| 20260906002306 | 11 | 0 | 0.0 | 0.0 | 0.00 | 0.08 | 0.00 | 87 | 1015.6 |
| 20260906002204 | 10 | 0 | 0.0 | 0.0 | 0.00 | 0.08 | 0.00 | 87 | 1015.7 |
| 20260906002104 | 10 | 0 | 0.0 | 0.0 | 0.00 | 0.08 | 0.00 | 87 | 1015.8 |
| 20260906002004 | 10 | 0 | 0.0 | 0.0 | 0.00 | 0.08 | 0.00 | 87 | 1015.7 |
| 20260906001904 | 10 | 0 | 0.0 | 0.0 | 0.00 | 0.08 | 0.00 | 87 | 1015.5 |
| 20260906001825 | 10 | 0 | 0.0 | 0.0 | 0.00 | 0.08 | 0.00 | 87 | 1015.5 |
| 20260906001704 | 10 | 0 | 0.0 | 0.0 | 0.00 | 0.08 | 0.00 | 87 | 1015.6 |
| 20260906001604 | 10 | 0 | 0.0 | 0.0 | 0.00 | 0.08 | 0.00 | 87 | 1015.8 |
| 20260906001504 | 10 | 0 | 0.0 | 0.0 | 0.00 | 0.08 | 0.00 | 87 | 1015.6 |
| 20260906001404 | 10 | 0 | 0.0 | 0.0 | 0.00 | 0.08 | 0.00 | 87 | 1015.5 |
| 20260906001325 | 10 | 0 | 0.0 | 0.0 | 0.00 | 0.08 | 0.00 | 87 | 1015.5 |
| 20260906001204 | 10 | 0 | 0.0 | 0.0 | 0.00 | 0.08 | 0.00 | 87 | 1015.9 |
| 20260906001104 | 10 | 0 | 0.0 | 0.0 | 0.00 | 0.08 | 0.00 | 87 | 1015.8 |
| 20260906001004 | 10 | 0 | 0.0 | 0.0 | 0.00 | 0.08 | 0.00 | 87 | 1015.6 |
| 20260906000904 | 10 | 0 | 0.0 | 0.0 | 0.00 | 0.08 | 0.00 | 87 | 1015.9 |
| 20260906000804 | 10 | 0 | 0.0 | 0.0 | 0.00 | 0.08 | 0.00 | 86 | 1015.6 |
| 20260906000704 | 10 | 0 | 0.0 | 0.0 | 0.00 | 0.08 | 0.00 | 86 | 1015.8 |
| 20260906000604 | 10 | 0 | 0.0 | 0.0 | 0.00 | 0.08 | 0.00 | 86 | 1015.7 |
| 20260906000504 | 10 | 0 | 0.0 | 0.0 | 0.00 | 0.08 | 0.00 | 87 | 1015.8 |
| 20260906000405 | 10 | 0 | 0.0 | 0.0 | 0.00 | 0.08 | 0.00 | 86 | 1015.7 |
| 20260906000304 | 10 | 0 | 0.0 | 0.0 | 0.00 | 0.08 | 0.00 | 86 | 1015.6 |
| 20260906000226 | 10 | 0 | 0.0 | 0.0 | 0.00 | 0.08 | 0.00 | 86 | 1015.6 |
| 20260906000104 | 10 | 0 | 0.0 | 0.0 | 0.00 | 0.08 | 0.00 | 86 | 1015.5 |
| 20260906000004 | 10 | 0 | 0.0 | 0.0 | 0.00 | 0.08 | 0.00 | 86 | 1015.7 |
| 20260905235925 | 10 | 0 | 0.0 | 0.0 | 0.00 | 0.08 | 0.00 | 86 | 1015.7 |
| 20260905235804 | 10 | 0 | 0.0 | 0.0 | 0.00 | 0.08 | 0.00 | 86 | 1015.6 |
| 20260905235704 | 10 | 0 | 0.0 | 0.0 | 0.00 | 0.08 | 0.00 | 86 | 1015.8 |
| 20260905235604 | 10 | 0 | 0.0 | 0.0 | 0.00 | 0.08 | 0.00 | 86 | 1015.7 |
| 20260905235504 | 10 | 0 | 0.0 | 0.0 | 0.00 | 0.08 | 0.00 | 86 | 1015.7 |
| 20260905235404 | 10 | 0 | 0.0 | 0.0 | 0.00 | 0.08 | 0.00 | 86 | 1015.7 |
| 20260905235306 | 10 | 0 | 0.0 | 0.0 | 0.00 | 0.08 | 0.00 | 86 | 1015.7 |
| 20260905235204 | 10 | 0 | 0.0 | 0.0 | 0.00 | 0.08 | 0.00 | 86 | 1015.8 |
| 20260905235125 | 10 | 0 | 0.0 | 0.0 | 0.00 | 0.08 | 0.00 | 85 | 1015.8 |
| 20260905235004 | 10 | 0 | 0.0 | 0.0 | 0.00 | 0.08 | 0.00 | 85 | 1015.8 |
| 20260905234904 | 10 | 0 | 0.0 | 0.0 | 0.00 | 0.08 | 0.00 | 85 | 1015.7 |
| 20260905234804 | 11 | 0 | 0.0 | 0.0 | 0.00 | 0.08 | 0.00 | 85 | 1015.8 |
| 20260905234704 | 11 | 0 | 0.0 | 0.0 | 0.00 | 0.08 | 0.00 | 85 | 1015.8 |
| 20260905234604 | 11 | 0 | 0.0 | 0.0 | 0.00 | 0.08 | 0.00 | 85 | 1015.7 |
| 20260905234504 | 11 | 0 | 0.0 | 0.0 | 0.00 | 0.08 | 0.00 | 85 | 1015.7 |
| 20260905234404 | 11 | 0 | 0.0 | 0.0 | 0.00 | 0.08 | 0.00 | 85 | 1015.6 |
| 20260905234325 | 11 | 0 | 0.0 | 0.0 | 0.00 | 0.08 | 0.00 | 85 | 1015.6 |
| 20260905234204 | 11 | 0 | 0.0 | 0.0 | 0.00 | 0.08 | 0.00 | 85 | 1015.6 |
| 20260905234104 | 11 | 0 | 0.0 | 0.0 | 0.00 | 0.08 | 0.00 | 85 | 1015.9 |
| 20260905234004 | 11 | 0 | 0.0 | 0.0 | 0.00 | 0.08 | 0.00 | 85 | 1015.9 |
| 20260905233904 | 11 | 0 | 0.0 | 0.0 | 0.00 | 0.08 | 0.00 | 85 | 1015.8 |
| 20260905233804 | 11 | 0 | 0.0 | 0.0 | 0.00 | 0.08 | 0.00 | 85 | 1015.9 |
| 20260905233704 | 11 | 0 | 0.0 | 0.0 | 0.00 | 0.08 | 0.00 | 85 | 1015.6 |
| 20260905233604 | 10 | 0 | 0.0 | 0.0 | 0.00 | 0.08 | 0.00 | 85 | 1015.7 |
| 20260905233525 | 10 | 0 | 0.0 | 0.0 | 0.00 | 0.08 | 0.00 | 84 | 1015.7 |
| 20260905233404 | 10 | 0 | 0.0 | 0.0 | 0.00 | 0.08 | 0.00 | 84 | 1015.5 |
| 20260905233304 | 10 | 0 | 0.0 | 0.0 | 0.00 | 0.08 | 0.00 | 83 | 1015.7 |
| 20260905233204 | 10 | 0 | 0.0 | 0.0 | 0.00 | 0.08 | 0.00 | 83 | 1015.8 |
| 20260905233104 | 10 | 0 | 0.0 | 0.0 | 0.00 | 0.08 | 0.00 | 83 | 1015.5 |
| 20260905233004 | 10 | 0 | 0.0 | 0.0 | 0.00 | 0.08 | 0.00 | 83 | 1015.3 |
| 20260905232904 | 11 | 0 | 0.0 | 0.0 | 0.00 | 0.08 | 0.00 | 83 | 1015.7 |
| 20260905232804 | 11 | 0 | 0.0 | 0.0 | 0.00 | 0.08 | 0.00 | 83 | 1015.4 |
| 20260905232704 | 11 | 0 | 0.0 | 0.0 | 0.00 | 0.08 | 0.00 | 83 | 1015.5 |
| 20260905232604 | 11 | 0 | 0.0 | 0.0 | 0.00 | 0.08 | 0.00 | 83 | 1015.5 |
| 20260905232504 | 11 | 0 | 0.0 | 0.0 | 0.00 | 0.08 | 0.00 | 83 | 1015.7 |
| 20260905232404 | 11 | 0 | 0.0 | 0.0 | 0.00 | 0.08 | 0.00 | 83 | 1015.6 |
| 20260905232306 | 11 | 0 | 0.0 | 0.0 | 0.00 | 0.08 | 0.00 | 83 | 1015.6 |
| 20260905232204 | 11 | 0 | 0.0 | 0.0 | 0.00 | 0.08 | 0.00 | 82 | 1015.5 |
| 20260905232125 | 11 | 0 | 0.0 | 0.0 | 0.00 | 0.08 | 0.00 | 82 | 1015.5 |
| 20260905232004 | 11 | 0 | 0.0 | 0.0 | 0.00 | 0.08 | 0.00 | 82 | 1015.6 |
| 20260905231904 | 11 | 0 | 0.0 | 0.0 | 0.00 | 0.08 | 0.00 | 82 | 1015.5 |
| 20260905231804 | 11 | 0 | 0.0 | 0.0 | 0.00 | 0.08 | 0.00 | 82 | 1015.4 |
| 20260905231725 | 11 | 0 | 0.0 | 0.0 | 0.00 | 0.08 | 0.00 | 81 | 1015.4 |
| 20260905231604 | 11 | 0 | 0.0 | 0.0 | 0.00 | 0.08 | 0.00 | 81 | 1015.5 |
| 20260905231504 | 11 | 0 | 0.0 | 0.0 | 0.00 | 0.08 | 0.00 | 81 | 1015.6 |
| 20260905231404 | 11 | 0 | 0.0 | 0.0 | 0.00 | 0.08 | 0.00 | 81 | 1015.7 |
| 20260905231304 | 11 | 0 | 0.0 | 0.0 | 0.00 | 0.08 | 0.00 | 81 | 1015.6 |
| 20260905231204 | 11 | 0 | 0.0 | 0.0 | 0.00 | 0.08 | 0.00 | 81 | 1015.5 |
| 20260905231104 | 11 | 0 | 0.0 | 0.0 | 0.00 | 0.08 | 0.00 | 81 | 1015.5 |
| 20260905231004 | 11 | 0 | 0.0 | 0.0 | 0.00 | 0.08 | 0.00 | 81 | 1015.5 |
| 20260905230904 | 11 | 0 | 0.0 | 0.0 | 0.00 | 0.08 | 0.00 | 80 | 1015.6 |
| 20260905230804 | 11 | 0 | 0.0 | 0.0 | 0.00 | 0.08 | 0.00 | 80 | 1015.4 |
| 20260905230704 | 12 | 0 | 0.0 | 0.0 | 0.00 | 0.08 | 0.00 | 80 | 1015.5 |
| 20260905230604 | 12 | 0 | 0.0 | 0.0 | 0.00 | 0.08 | 0.00 | 80 | 1015.7 |
| 20260905230504 | 12 | 0 | 0.0 | 0.0 | 0.00 | 0.08 | 0.00 | 80 | 1015.7 |
| 20260905230404 | 12 | 0 | 0.0 | 0.0 | 0.00 | 0.08 | 0.00 | 80 | 1015.7 |
| 20260905230304 | 12 | 0 | 0.0 | 0.0 | 0.00 | 0.08 | 0.00 | 80 | 1015.7 |
| 20260905230225 | 12 | 0 | 0.0 | 0.0 | 0.00 | 0.08 | 0.00 | 80 | 1015.7 |
| 20260905230104 | 12 | 0 | 0.0 | 0.0 | 0.00 | 0.08 | 0.00 | 79 | 1015.6 |
| 20260905230004 | 12 | 0 | 0.0 | 0.0 | 0.00 | 0.08 | 0.00 | 79 | 1015.8 |
| 20260905225904 | 12 | 0 | 0.0 | 0.0 | 0.00 | 0.08 | 0.00 | 79 | 1015.7 |
| 20260905225804 | 12 | 0 | 0.0 | 0.0 | 0.00 | 0.08 | 0.00 | 79 | 1015.6 |
| 20260905225704 | 12 | 0 | 0.0 | 0.0 | 0.00 | 0.08 | 0.00 | 79 | 1015.6 |
| 20260905225604 | 12 | 0 | 0.0 | 0.0 | 0.00 | 0.08 | 0.00 | 79 | 1015.8 |
| 20260905225504 | 12 | 0 | 0.0 | 0.0 | 0.00 | 0.08 | 0.00 | 79 | 1015.7 |
| 20260905225404 | 12 | 0 | 0.0 | 0.0 | 0.00 | 0.08 | 0.00 | 79 | 1015.5 |
| 20260905225305 | 12 | 0 | 0.0 | 0.0 | 0.00 | 0.08 | 0.00 | 79 | 1015.7 |
| 20260905225204 | 12 | 0 | 0.0 | 0.0 | 0.00 | 0.08 | 0.00 | 79 | 1015.8 |
| 20260905225125 | 12 | 0 | 0.0 | 0.0 | 0.00 | 0.08 | 0.00 | 79 | 1015.8 |
| 20260905225004 | 12 | 0 | 0.0 | 0.0 | 0.00 | 0.08 | 0.00 | 79 | 1015.9 |
| 20260905224904 | 13 | 0 | 0.0 | 0.0 | 0.00 | 0.08 | 0.00 | 79 | 1015.8 |
| 20260905224804 | 13 | 0 | 0.0 | 0.0 | 0.00 | 0.08 | 0.00 | 79 | 1015.7 |
| 20260905224704 | 13 | 0 | 0.0 | 0.0 | 0.00 | 0.08 | 0.00 | 79 | 1015.8 |
| 20260905224604 | 13 | 0 | 0.0 | 0.0 | 0.00 | 0.08 | 0.00 | 79 | 1015.7 |
| 20260905224504 | 13 | 0 | 0.0 | 0.0 | 0.00 | 0.08 | 0.00 | 79 | 1015.7 |
| 20260905224404 | 13 | 0 | 0.0 | 0.0 | 0.00 | 0.08 | 0.00 | 79 | 1015.8 |
| 20260905224304 | 13 | 0 | 0.0 | 0.0 | 0.00 | 0.08 | 0.00 | 79 | 1015.8 |
| 20260905224225 | 13 | 0 | 0.0 | 0.0 | 0.00 | 0.08 | 0.00 | 79 | 1015.8 |
| 20260905224104 | 13 | 0 | 0.0 | 0.0 | 0.00 | 0.08 | 0.00 | 79 | 1015.6 |
| 20260905224004 | 13 | 0 | 0.0 | 0.0 | 0.00 | 0.08 | 0.00 | 79 | 1015.9 |
| 20260905223925 | 13 | 0 | 0.0 | 0.0 | 0.00 | 0.08 | 0.00 | 79 | 1015.9 |
| 20260905223825 | 13 | 0 | 0.0 | 0.0 | 0.00 | 0.08 | 0.00 | 79 | 1015.7 |
| 20260905223704 | 13 | 0 | 0.0 | 0.0 | 0.00 | 0.08 | 0.00 | 79 | 1015.9 |
| 20260905223625 | 13 | 0 | 0.0 | 0.0 | 0.00 | 0.08 | 0.00 | 79 | 1015.9 |
| 20260905223504 | 13 | 0 | 0.0 | 0.0 | 0.00 | 0.08 | 0.00 | 79 | 1015.7 |
| 20260905223404 | 13 | 0 | 0.0 | 0.0 | 0.00 | 0.08 | 0.00 | 79 | 1015.9 |
| 20260905223304 | 13 | 0 | 0.0 | 0.0 | 0.00 | 0.08 | 0.00 | 79 | 1015.6 |
| 20260905223204 | 13 | 0 | 0.0 | 0.0 | 0.00 | 0.08 | 0.00 | 79 | 1015.9 |
| 20260905223104 | 13 | 0 | 0.0 | 0.0 | 0.00 | 0.08 | 0.00 | 79 | 1015.8 |
| 20260905223004 | 13 | 0 | 0.0 | 0.0 | 0.00 | 0.08 | 0.00 | 79 | 1015.9 |
| 20260905222904 | 13 | 0 | 0.0 | 0.0 | 0.00 | 0.08 | 0.00 | 79 | 1015.9 |
| 20260905222804 | 13 | 0 | 0.0 | 0.0 | 0.00 | 0.08 | 0.00 | 79 | 1016.1 |
| 20260905222705 | 13 | 0 | 0.0 | 0.0 | 0.00 | 0.08 | 0.00 | 79 | 1016.1 |
| 20260905222604 | 13 | 0 | 0.0 | 0.0 | 0.00 | 0.08 | 0.00 | 79 | 1015.9 |
| 20260905222504 | 13 | 0 | 0.0 | 0.0 | 0.00 | 0.08 | 0.00 | 79 | 1015.8 |
| 20260905222404 | 13 | 0 | 0.0 | 0.0 | 0.00 | 0.08 | 0.00 | 79 | 1015.8 |
| 20260905222306 | 13 | 0 | 0.0 | 0.0 | 0.00 | 0.08 | 0.00 | 79 | 1015.8 |
| 20260905222204 | 13 | 0 | 0.0 | 0.0 | 0.00 | 0.08 | 0.00 | 79 | 1016.0 |
| 20260905222104 | 13 | 0 | 0.0 | 0.0 | 0.00 | 0.08 | 0.00 | 79 | 1016.0 |
| 20260905222004 | 13 | 0 | 0.0 | 0.0 | 0.00 | 0.08 | 0.00 | 79 | 1016.0 |
| 20260905221904 | 13 | 0 | 0.0 | 0.0 | 0.00 | 0.08 | 0.00 | 79 | 1016.0 |
| 20260905221804 | 13 | 0 | 0.0 | 0.0 | 0.00 | 0.08 | 0.00 | 79 | 1015.8 |
| 20260905221704 | 13 | 0 | 0.0 | 0.0 | 0.00 | 0.08 | 0.00 | 79 | 1015.9 |
| 20260905221604 | 13 | 0 | 0.0 | 0.0 | 0.00 | 0.08 | 0.00 | 79 | 1015.9 |
| 20260905221504 | 13 | 0 | 0.0 | 0.0 | 0.00 | 0.08 | 0.00 | 79 | 1015.9 |
| 20260905221404 | 13 | 0 | 0.0 | 0.0 | 0.00 | 0.08 | 0.00 | 78 | 1015.9 |
| 20260905221304 | 13 | 0 | 0.0 | 0.0 | 0.00 | 0.08 | 0.00 | 78 | 1016.0 |
| 20260905221204 | 13 | 0 | 0.0 | 0.0 | 0.00 | 0.08 | 0.00 | 78 | 1015.7 |
| 20260905221125 | 13 | 0 | 0.0 | 0.0 | 0.00 | 0.08 | 0.00 | 78 | 1015.7 |
| 20260905221004 | 13 | 0 | 0.0 | 0.0 | 0.00 | 0.08 | 0.00 | 78 | 1015.9 |
| 20260905220925 | 13 | 0 | 0.0 | 0.0 | 0.00 | 0.08 | 0.00 | 78 | 1015.9 |
| 20260905220825 | 13 | 0 | 0.0 | 0.0 | 0.00 | 0.08 | 0.00 | 78 | 1016.1 |
| 20260905220704 | 13 | 0 | 0.0 | 0.0 | 0.00 | 0.08 | 0.00 | 78 | 1015.8 |
| 20260905220604 | 13 | 0 | 0.0 | 0.0 | 0.00 | 0.08 | 0.00 | 78 | 1015.9 |
| 20260905220525 | 13 | 0 | 0.0 | 0.0 | 0.00 | 0.08 | 0.00 | 78 | 1015.9 |
| 20260905220404 | 13 | 0 | 0.0 | 0.0 | 0.00 | 0.08 | 0.00 | 78 | 1015.9 |
| 20260905220304 | 13 | 0 | 0.0 | 0.0 | 0.00 | 0.08 | 0.00 | 78 | 1015.9 |
| 20260905220204 | 13 | 0 | 0.0 | 0.0 | 0.00 | 0.08 | 0.00 | 78 | 1015.8 |
| 20260905220104 | 13 | 0 | 0.0 | 0.0 | 0.00 | 0.08 | 0.00 | 78 | 1015.9 |
| 20260905220004 | 13 | 0 | 0.0 | 0.0 | 0.00 | 0.08 | 0.00 | 78 | 1016.1 |
| 20260905215904 | 13 | 127 | 0.0 | 1.6 | 0.00 | 0.08 | 0.00 | 78 | 1015.9 |
| 20260905215804 | 13 | 127 | 0.0 | 1.6 | 0.00 | 0.08 | 0.00 | 78 | 1016.1 |
| 20260905215725 | 13 | 127 | 0.0 | 1.6 | 0.00 | 0.08 | 0.00 | 78 | 1016.1 |
| 20260905215604 | 13 | 127 | 0.0 | 1.6 | 0.00 | 0.08 | 0.00 | 78 | 1016.0 |
| 20260905215505 | 13 | 127 | 0.0 | 1.6 | 0.00 | 0.08 | 0.00 | 78 | 1016.0 |
| 20260905215404 | 13 | 127 | 0.0 | 1.6 | 0.00 | 0.08 | 0.00 | 78 | 1015.9 |
| 20260905215306 | 13 | 127 | 0.0 | 1.6 | 0.00 | 0.08 | 0.00 | 78 | 1015.9 |
| 20260905215204 | 13 | 127 | 0.0 | 1.6 | 0.00 | 0.08 | 0.00 | 78 | 1016.0 |
| 20260905215104 | 13 | 127 | 0.0 | 1.6 | 0.00 | 0.08 | 0.00 | 78 | 1015.8 |
| 20260905215004 | 13 | 143 | 0.0 | 1.6 | 0.00 | 0.08 | 0.00 | 78 | 1016.1 |
| 20260905214904 | 13 | 146 | 0.0 | 1.6 | 0.00 | 0.08 | 0.00 | 78 | 1015.7 |
| 20260905214804 | 13 | 162 | 0.0 | 1.6 | 0.00 | 0.08 | 0.00 | 78 | 1015.9 |
| 20260905214704 | 13 | 162 | 0.0 | 1.6 | 0.00 | 0.08 | 0.00 | 78 | 1015.9 |
| 20260905214604 | 13 | 162 | 0.0 | 1.6 | 0.00 | 0.08 | 0.00 | 78 | 1016.0 |
| 20260905214504 | 13 | 167 | 0.0 | 3.2 | 0.00 | 0.08 | 0.00 | 78 | 1016.0 |
| 20260905214425 | 13 | 183 | 0.0 | 3.2 | 0.00 | 0.08 | 0.00 | 78 | 1016.0 |
| 20260905214304 | 13 | 179 | 0.0 | 3.2 | 0.00 | 0.08 | 0.00 | 78 | 1015.7 |
| 20260905214204 | 13 | 179 | 0.0 | 3.2 | 0.00 | 0.08 | 0.00 | 78 | 1015.8 |
| 20260905214125 | 13 | 179 | 0.0 | 3.2 | 0.00 | 0.08 | 0.00 | 78 | 1015.8 |
| 20260905214004 | 13 | 186 | 0.0 | 3.2 | 0.00 | 0.08 | 0.00 | 78 | 1015.9 |
| 20260905213925 | 13 | 186 | 0.0 | 3.2 | 0.00 | 0.08 | 0.00 | 78 | 1015.9 |
| 20260905213804 | 13 | 181 | 0.0 | 3.2 | 0.00 | 0.08 | 0.00 | 78 | 1015.8 |
| 20260905213704 | 13 | 181 | 0.0 | 3.2 | 0.00 | 0.08 | 0.00 | 78 | 1015.8 |
| 20260905213604 | 13 | 181 | 0.0 | 3.2 | 0.00 | 0.08 | 0.00 | 78 | 1016.0 |
| 20260905213504 | 13 | 188 | 0.0 | 3.2 | 0.00 | 0.08 | 0.00 | 78 | 1016.0 |
| 20260905213404 | 13 | 186 | 0.0 | 1.6 | 0.00 | 0.08 | 0.00 | 78 | 1016.0 |
| 20260905213304 | 13 | 203 | 0.0 | 1.6 | 0.00 | 0.08 | 0.00 | 78 | 1015.8 |
| 20260905213204 | 14 | 185 | 0.0 | 1.6 | 0.00 | 0.08 | 0.00 | 78 | 1016.0 |
| 20260905213104 | 14 | 179 | 0.0 | 1.6 | 0.00 | 0.08 | 0.00 | 78 | 1016.0 |
| 20260905213004 | 14 | 177 | 0.0 | 1.6 | 0.00 | 0.08 | 0.00 | 78 | 1016.0 |
| 20260905212925 | 14 | 181 | 0.0 | 1.6 | 0.00 | 0.08 | 0.00 | 78 | 1016.0 |
| 20260905212804 | 14 | 186 | 0.0 | 1.6 | 0.00 | 0.08 | 0.00 | 78 | 1016.1 |
| 20260905212704 | 14 | 190 | 0.0 | 3.2 | 0.00 | 0.08 | 0.00 | 78 | 1016.1 |
| 20260905212625 | 14 | 193 | 0.0 | 3.2 | 0.00 | 0.08 | 0.00 | 78 | 1016.1 |
| 20260905212504 | 14 | 196 | 0.0 | 3.2 | 0.00 | 0.08 | 0.00 | 78 | 1015.8 |
| 20260905212404 | 14 | 192 | 0.0 | 3.2 | 0.00 | 0.08 | 0.00 | 78 | 1016.0 |
| 20260905212325 | 14 | 187 | 0.0 | 3.2 | 0.00 | 0.08 | 0.00 | 78 | 1016.0 |
| 20260905212225 | 14 | 184 | 0.0 | 3.2 | 0.00 | 0.08 | 0.00 | 78 | 1016.0 |
| 20260905212125 | 14 | 191 | 0.0 | 3.2 | 0.00 | 0.08 | 0.00 | 78 | 1015.9 |
| 20260905212004 | 14 | 189 | 0.0 | 3.2 | 0.00 | 0.08 | 0.00 | 78 | 1015.9 |
| 20260905211904 | 14 | 186 | 0.0 | 3.2 | 0.00 | 0.08 | 0.00 | 77 | 1015.7 |
| 20260905211804 | 14 | 186 | 0.0 | 3.2 | 0.00 | 0.08 | 0.00 | 77 | 1016.0 |
| 20260905211725 | 14 | 181 | 0.0 | 3.2 | 0.00 | 0.08 | 0.00 | 78 | 1016.0 |
| 20260905211604 | 14 | 159 | 0.0 | 1.6 | 0.00 | 0.08 | 0.00 | 78 | 1015.7 |
| 20260905211504 | 14 | 159 | 0.0 | 1.6 | 0.00 | 0.08 | 0.00 | 78 | 1015.9 |
| 20260905211404 | 14 | 159 | 0.0 | 1.6 | 0.00 | 0.08 | 0.00 | 78 | 1015.9 |
| 20260905211304 | 14 | 174 | 0.0 | 3.2 | 0.00 | 0.08 | 0.00 | 78 | 1015.9 |
| 20260905211225 | 14 | 174 | 0.0 | 3.2 | 0.00 | 0.08 | 0.00 | 78 | 1015.9 |
| 20260905211104 | 14 | 174 | 0.0 | 3.2 | 0.00 | 0.08 | 0.00 | 78 | 1015.7 |
| 20260905211004 | 14 | 169 | 0.0 | 3.2 | 0.00 | 0.08 | 0.00 | 78 | 1015.7 |
| 20260905210905 | 13 | 169 | 0.0 | 3.2 | 0.00 | 0.08 | 0.00 | 78 | 1015.9 |
| 20260905210804 | 13 | 169 | 0.0 | 3.2 | 0.00 | 0.08 | 0.00 | 79 | 1016.0 |
| 20260905210704 | 13 | 173 | 0.0 | 3.2 | 0.00 | 0.08 | 0.00 | 79 | 1015.6 |
| 20260905210604 | 13 | 173 | 0.0 | 3.2 | 0.00 | 0.08 | 0.00 | 79 | 1015.6 |
| 20260905210504 | 13 | 173 | 0.0 | 3.2 | 0.00 | 0.08 | 0.00 | 79 | 1015.8 |
| 20260905210404 | 13 | 173 | 0.0 | 3.2 | 0.00 | 0.08 | 0.00 | 80 | 1015.8 |
| 20260905210304 | 13 | 154 | 0.0 | 1.6 | 0.00 | 0.08 | 0.00 | 80 | 1015.7 |
| 20260905210204 | 13 | 154 | 0.0 | 1.6 | 0.00 | 0.08 | 0.00 | 81 | 1015.5 |
| 20260905210104 | 13 | 112 | 0.0 | 1.6 | 0.00 | 0.08 | 0.00 | 81 | 1015.7 |
| 20260905210004 | 13 | 0 | 0.0 | 0.0 | 0.00 | 0.08 | 0.00 | 81 | 1015.5 |
| 20260905205904 | 13 | 0 | 0.0 | 0.0 | 0.00 | 0.08 | 0.08 | 81 | 1015.6 |
| 20260905205804 | 13 | 0 | 0.0 | 0.0 | 0.00 | 0.08 | 0.08 | 81 | 1015.7 |
| 20260905205725 | 13 | 0 | 0.0 | 0.0 | 0.00 | 0.08 | 0.08 | 81 | 1015.7 |
| 20260905205604 | 13 | 0 | 0.0 | 0.0 | 0.00 | 0.08 | 0.08 | 81 | 1015.8 |
| 20260905205525 | 13 | 0 | 0.0 | 0.0 | 0.00 | 0.08 | 0.08 | 81 | 1015.8 |
| 20260905205404 | 13 | 0 | 0.0 | 0.0 | 0.00 | 0.08 | 0.08 | 81 | 1015.8 |
| 20260905205306 | 13 | 0 | 0.0 | 0.0 | 0.00 | 0.08 | 0.08 | 81 | 1015.9 |
| 20260905205204 | 13 | 0 | 0.0 | 0.0 | 0.00 | 0.08 | 0.08 | 82 | 1015.7 |
| 20260905205104 | 13 | 0 | 0.0 | 0.0 | 0.00 | 0.08 | 0.08 | 82 | 1015.6 |
| 20260905205004 | 13 | 0 | 0.0 | 0.0 | 0.00 | 0.08 | 0.08 | 82 | 1015.6 |
| 20260905204904 | 13 | 0 | 0.0 | 0.0 | 0.00 | 0.08 | 0.08 | 81 | 1015.5 |
| 20260905204804 | 13 | 0 | 0.0 | 0.0 | 0.00 | 0.08 | 0.08 | 81 | 1015.6 |
| 20260905204704 | 13 | 0 | 0.0 | 0.0 | 0.00 | 0.08 | 0.08 | 81 | 1015.5 |
| 20260905204604 | 13 | 0 | 0.0 | 0.0 | 0.00 | 0.08 | 0.08 | 81 | 1015.7 |
| 20260905204504 | 13 | 0 | 0.0 | 0.0 | 0.00 | 0.08 | 0.08 | 81 | 1015.4 |
| 20260905204404 | 13 | 0 | 0.0 | 0.0 | 0.00 | 0.08 | 0.08 | 81 | 1015.6 |
| 20260905204304 | 13 | 0 | 0.0 | 0.0 | 0.00 | 0.08 | 0.08 | 81 | 1015.5 |
| 20260905204204 | 13 | 0 | 0.0 | 0.0 | 0.00 | 0.08 | 0.08 | 81 | 1015.5 |
| 20260905204104 | 13 | 0 | 0.0 | 0.0 | 0.00 | 0.08 | 0.08 | 81 | 1015.4 |
| 20260905204025 | 13 | 0 | 0.0 | 0.0 | 0.00 | 0.08 | 0.08 | 81 | 1015.4 |
| 20260905203904 | 13 | 0 | 0.0 | 0.0 | 0.00 | 0.08 | 0.08 | 81 | 1015.4 |
| 20260905203804 | 13 | 0 | 0.0 | 0.0 | 0.00 | 0.08 | 0.08 | 81 | 1015.7 |
| 20260905203704 | 13 | 0 | 0.0 | 0.0 | 0.00 | 0.08 | 0.08 | 81 | 1015.6 |
| 20260905203604 | 13 | 0 | 0.0 | 0.0 | 0.00 | 0.08 | 0.08 | 81 | 1015.4 |
| 20260905203504 | 13 | 0 | 0.0 | 0.0 | 0.00 | 0.08 | 0.08 | 81 | 1015.4 |
| 20260905203425 | 13 | 0 | 0.0 | 0.0 | 0.00 | 0.08 | 0.08 | 81 | 1015.4 |
| 20260905203304 | 13 | 0 | 0.0 | 0.0 | 0.00 | 0.08 | 0.08 | 81 | 1015.4 |
| 20260905203204 | 13 | 0 | 0.0 | 0.0 | 0.00 | 0.08 | 0.08 | 81 | 1015.3 |
| 20260905203104 | 13 | 0 | 0.0 | 0.0 | 0.00 | 0.08 | 0.08 | 81 | 1015.4 |
| 20260905203004 | 13 | 0 | 0.0 | 0.0 | 0.00 | 0.08 | 0.08 | 81 | 1015.5 |
| 20260905202904 | 13 | 0 | 0.0 | 0.0 | 0.00 | 0.08 | 0.08 | 81 | 1015.5 |
| 20260905202804 | 13 | 0 | 0.0 | 0.0 | 0.00 | 0.08 | 0.08 | 81 | 1015.3 |
| 20260905202704 | 13 | 0 | 0.0 | 0.0 | 0.00 | 0.08 | 0.08 | 81 | 1015.3 |
| 20260905202604 | 13 | 0 | 0.0 | 0.0 | 0.00 | 0.08 | 0.08 | 81 | 1015.4 |
| 20260905202504 | 13 | 0 | 0.0 | 0.0 | 0.00 | 0.08 | 0.08 | 81 | 1015.5 |
| 20260905202404 | 13 | 0 | 0.0 | 0.0 | 0.00 | 0.08 | 0.08 | 81 | 1015.3 |
| 20260905202306 | 13 | 0 | 0.0 | 0.0 | 0.00 | 0.08 | 0.08 | 81 | 1015.3 |
| 20260905202225 | 13 | 0 | 0.0 | 0.0 | 0.00 | 0.08 | 0.08 | 81 | 1015.3 |
| 20260905202104 | 13 | 0 | 0.0 | 0.0 | 0.00 | 0.08 | 0.08 | 81 | 1015.4 |
| 20260905202004 | 13 | 0 | 0.0 | 0.0 | 0.00 | 0.08 | 0.08 | 81 | 1015.2 |
| 20260905201904 | 13 | 0 | 0.0 | 0.0 | 0.00 | 0.08 | 0.08 | 81 | 1015.3 |
| 20260905201804 | 13 | 0 | 0.0 | 0.0 | 0.00 | 0.08 | 0.08 | 81 | 1015.2 |
| 20260905201725 | 13 | 0 | 0.0 | 0.0 | 0.00 | 0.08 | 0.08 | 81 | 1015.2 |
| 20260905201604 | 13 | 0 | 0.0 | 0.0 | 0.00 | 0.08 | 0.08 | 81 | 1015.2 |
| 20260905201504 | 13 | 0 | 0.0 | 0.0 | 0.00 | 0.08 | 0.08 | 81 | 1015.2 |
| 20260905201404 | 13 | 0 | 0.0 | 0.0 | 0.00 | 0.08 | 0.08 | 82 | 1015.2 |
| 20260905201304 | 13 | 0 | 0.0 | 0.0 | 0.00 | 0.08 | 0.08 | 82 | 1015.1 |
| 20260905201204 | 13 | 0 | 0.0 | 0.0 | 0.00 | 0.08 | 0.08 | 82 | 1015.3 |
| 20260905201104 | 13 | 0 | 0.0 | 0.0 | 0.00 | 0.08 | 0.08 | 82 | 1015.1 |
| 20260905201004 | 13 | 0 | 0.0 | 0.0 | 0.00 | 0.08 | 0.08 | 82 | 1015.2 |
| 20260905200925 | 13 | 0 | 0.0 | 0.0 | 0.00 | 0.08 | 0.08 | 82 | 1015.2 |
| 20260905200804 | 13 | 0 | 0.0 | 0.0 | 0.00 | 0.08 | 0.08 | 82 | 1015.3 |
| 20260905200704 | 13 | 0 | 0.0 | 0.0 | 0.00 | 0.08 | 0.08 | 82 | 1015.1 |
| 20260905200605 | 13 | 0 | 0.0 | 0.0 | 0.00 | 0.08 | 0.08 | 82 | 1015.3 |
| 20260905200504 | 13 | 0 | 0.0 | 0.0 | 0.00 | 0.08 | 0.08 | 83 | 1015.3 |
| 20260905200404 | 13 | 0 | 0.0 | 0.0 | 0.00 | 0.08 | 0.08 | 83 | 1015.3 |
| 20260905200304 | 13 | 0 | 0.0 | 0.0 | 0.00 | 0.08 | 0.08 | 83 | 1015.0 |
| 20260905200204 | 13 | 0 | 0.0 | 0.0 | 0.00 | 0.08 | 0.08 | 83 | 1015.4 |
| 20260905200104 | 13 | 0 | 0.0 | 0.0 | 0.00 | 0.08 | 0.08 | 83 | 1015.5 |
| 20260905200004 | 13 | 0 | 0.0 | 0.0 | 0.00 | 0.08 | 0.08 | 84 | 1015.2 |
| 20260905195904 | 13 | 0 | 0.0 | 0.0 | 0.00 | 0.08 | 0.08 | 84 | 1015.2 |
| 20260905195804 | 13 | 0 | 0.0 | 0.0 | 0.00 | 0.08 | 0.08 | 84 | 1015.3 |
| 20260905195726 | 12 | 0 | 0.0 | 0.0 | 0.00 | 0.08 | 0.08 | 84 | 1015.3 |
| 20260905195604 | 12 | 0 | 0.0 | 0.0 | 0.00 | 0.08 | 0.08 | 84 | 1015.4 |
| 20260905195504 | 12 | 0 | 0.0 | 0.0 | 0.00 | 0.08 | 0.08 | 84 | 1015.0 |
| 20260905195404 | 12 | 0 | 0.0 | 0.0 | 0.00 | 0.08 | 0.08 | 84 | 1015.0 |
| 20260905195325 | 12 | 0 | 0.0 | 0.0 | 0.00 | 0.08 | 0.08 | 83 | 1015.0 |
| 20260905195204 | 12 | 0 | 0.0 | 0.0 | 0.00 | 0.08 | 0.08 | 83 | 1015.0 |
| 20260905195104 | 12 | 0 | 0.0 | 0.0 | 0.00 | 0.08 | 0.08 | 83 | 1015.2 |
| 20260905195004 | 12 | 0 | 0.0 | 0.0 | 0.00 | 0.08 | 0.08 | 83 | 1015.2 |
| 20260905194904 | 12 | 0 | 0.0 | 0.0 | 0.00 | 0.08 | 0.08 | 82 | 1015.0 |
| 20260905194803 | 12 | 0 | 0.0 | 0.0 | 0.00 | 0.08 | 0.08 | 82 | 1015.3 |
| 20260905194704 | 12 | 0 | 0.0 | 0.0 | 0.00 | 0.08 | 0.08 | 82 | 1015.1 |
| 20260905194603 | 12 | 0 | 0.0 | 0.0 | 0.00 | 0.08 | 0.08 | 82 | 1015.0 |
| 20260905194504 | 12 | 0 | 0.0 | 0.0 | 0.00 | 0.08 | 0.08 | 82 | 1015.0 |
| 20260905194404 | 12 | 0 | 0.0 | 0.0 | 0.00 | 0.08 | 0.08 | 82 | 1015.1 |
| 20260905194304 | 13 | 0 | 0.0 | 0.0 | 0.00 | 0.08 | 0.08 | 82 | 1015.2 |
| 20260905194204 | 13 | 0 | 0.0 | 0.0 | 0.00 | 0.08 | 0.08 | 82 | 1015.0 |
| 20260905194125 | 13 | 0 | 0.0 | 0.0 | 0.00 | 0.08 | 0.08 | 82 | 1015.0 |
| 20260905194004 | 13 | 0 | 0.0 | 0.0 | 0.00 | 0.08 | 0.08 | 82 | 1014.9 |
| 20260905193904 | 13 | 0 | 0.0 | 0.0 | 0.00 | 0.08 | 0.08 | 82 | 1015.2 |
| 20260905193824 | 13 | 0 | 0.0 | 0.0 | 0.00 | 0.08 | 0.08 | 82 | 1015.2 |
| 20260905193704 | 13 | 0 | 0.0 | 0.0 | 0.00 | 0.08 | 0.08 | 82 | 1015.1 |
| 20260905193604 | 13 | 0 | 0.0 | 0.0 | 0.00 | 0.08 | 0.08 | 82 | 1015.2 |
| 20260905193505 | 13 | 0 | 0.0 | 0.0 | 0.00 | 0.08 | 0.08 | 82 | 1015.1 |
| 20260905193406 | 13 | 0 | 0.0 | 0.0 | 0.00 | 0.08 | 0.08 | 82 | 1015.2 |
| 20260905193304 | 13 | 0 | 0.0 | 0.0 | 0.00 | 0.08 | 0.08 | 81 | 1015.3 |
| 20260905193204 | 13 | 0 | 0.0 | 0.0 | 0.00 | 0.08 | 0.08 | 81 | 1015.1 |
| 20260905193104 | 13 | 0 | 0.0 | 0.0 | 0.00 | 0.08 | 0.08 | 81 | 1015.2 |
| 20260905193007 | 13 | 0 | 0.0 | 0.0 | 0.00 | 0.08 | 0.08 | 81 | 1015.2 |
| 20260905192904 | 13 | 0 | 0.0 | 0.0 | 0.00 | 0.08 | 0.08 | 81 | 1015.0 |
| 20260905192804 | 13 | 0 | 0.0 | 0.0 | 0.00 | 0.08 | 0.08 | 81 | 1015.0 |
| 20260905192704 | 13 | 0 | 0.0 | 0.0 | 0.00 | 0.08 | 0.08 | 81 | 1015.3 |
| 20260905192625 | 13 | 0 | 0.0 | 0.0 | 0.00 | 0.08 | 0.08 | 81 | 1015.3 |
| 20260905192504 | 13 | 0 | 0.0 | 0.0 | 0.00 | 0.08 | 0.08 | 80 | 1015.0 |
| 20260905192404 | 13 | 0 | 0.0 | 0.0 | 0.00 | 0.08 | 0.08 | 80 | 1015.0 |
| 20260905192306 | 13 | 0 | 0.0 | 0.0 | 0.00 | 0.08 | 0.08 | 80 | 1015.0 |
| 20260905192204 | 13 | 0 | 0.0 | 0.0 | 0.00 | 0.08 | 0.08 | 80 | 1015.2 |
| 20260905192104 | 13 | 0 | 0.0 | 0.0 | 0.00 | 0.08 | 0.08 | 80 | 1015.2 |
| 20260905192004 | 13 | 0 | 0.0 | 0.0 | 0.00 | 0.08 | 0.08 | 80 | 1015.4 |
| 20260905191925 | 13 | 0 | 0.0 | 0.0 | 0.00 | 0.08 | 0.08 | 80 | 1015.4 |
| 20260905191803 | 13 | 0 | 0.0 | 0.0 | 0.00 | 0.08 | 0.08 | 80 | 1015.2 |
| 20260905191724 | 13 | 0 | 0.0 | 0.0 | 0.00 | 0.08 | 0.08 | 80 | 1015.2 |
| 20260905191624 | 13 | 0 | 0.0 | 0.0 | 0.00 | 0.08 | 0.08 | 79 | 1015.3 |
| 20260905191504 | 13 | 0 | 0.0 | 0.0 | 0.00 | 0.08 | 0.08 | 79 | 1015.2 |
| 20260905191403 | 13 | 0 | 0.0 | 0.0 | 0.00 | 0.08 | 0.08 | 79 | 1015.2 |
| 20260905191303 | 13 | 0 | 0.0 | 0.0 | 0.00 | 0.08 | 0.08 | 79 | 1015.3 |
| 20260905191204 | 14 | 0 | 0.0 | 0.0 | 0.00 | 0.08 | 0.08 | 79 | 1015.2 |
| 20260905191104 | 14 | 0 | 0.0 | 0.0 | 0.00 | 0.08 | 0.08 | 79 | 1015.2 |
| 20260905191025 | 14 | 0 | 0.0 | 0.0 | 0.00 | 0.08 | 0.08 | 79 | 1015.2 |
| 20260905190904 | 14 | 0 | 0.0 | 0.0 | 0.00 | 0.08 | 0.08 | 79 | 1015.4 |
| 20260905190825 | 14 | 0 | 0.0 | 0.0 | 0.00 | 0.08 | 0.08 | 79 | 1015.4 |
| 20260905190704 | 14 | 0 | 0.0 | 0.0 | 0.00 | 0.08 | 0.08 | 79 | 1015.2 |
| 20260905190604 | 14 | 0 | 0.0 | 0.0 | 0.00 | 0.08 | 0.08 | 79 | 1015.4 |
| 20260905190503 | 14 | 0 | 0.0 | 0.0 | 0.00 | 0.08 | 0.08 | 79 | 1015.3 |
| 20260905190404 | 14 | 0 | 0.0 | 0.0 | 0.00 | 0.08 | 0.08 | 78 | 1015.5 |
| 20260905190304 | 14 | 0 | 0.0 | 0.0 | 0.00 | 0.08 | 0.08 | 78 | 1015.1 |
| 20260905190203 | 14 | 0 | 0.0 | 0.0 | 0.00 | 0.08 | 0.08 | 78 | 1015.2 |
| 20260905190104 | 14 | 0 | 0.0 | 0.0 | 0.00 | 0.08 | 0.08 | 78 | 1015.4 |
| 20260905190025 | 14 | 0 | 0.0 | 0.0 | 0.00 | 0.08 | 0.08 | 78 | 1015.4 |
| 20260905185925 | 14 | 0 | 0.0 | 0.0 | 0.00 | 0.08 | 0.08 | 78 | 1015.2 |
| 20260905185825 | 14 | 0 | 0.0 | 0.0 | 0.00 | 0.08 | 0.08 | 78 | 1015.5 |
| 20260905185703 | 14 | 0 | 0.0 | 0.0 | 0.00 | 0.08 | 0.08 | 78 | 1015.2 |
| 20260905185604 | 14 | 0 | 0.0 | 0.0 | 0.00 | 0.08 | 0.08 | 78 | 1015.4 |
| 20260905185504 | 14 | 0 | 0.0 | 0.0 | 0.00 | 0.08 | 0.08 | 78 | 1015.4 |
| 20260905185404 | 14 | 0 | 0.0 | 0.0 | 0.00 | 0.08 | 0.08 | 78 | 1015.2 |
| 20260905185306 | 14 | 0 | 0.0 | 0.0 | 0.00 | 0.08 | 0.08 | 77 | 1015.3 |
| 20260905185203 | 14 | 0 | 0.0 | 0.0 | 0.00 | 0.08 | 0.08 | 77 | 1015.2 |
| 20260905185125 | 14 | 0 | 0.0 | 0.0 | 0.00 | 0.08 | 0.08 | 77 | 1015.2 |
| 20260905185004 | 14 | 0 | 0.0 | 0.0 | 0.00 | 0.08 | 0.08 | 77 | 1015.2 |
| 20260905184904 | 14 | 0 | 0.0 | 0.0 | 0.00 | 0.08 | 0.08 | 77 | 1015.1 |
| 20260905184804 | 15 | 0 | 0.0 | 0.0 | 0.00 | 0.08 | 0.08 | 77 | 1015.2 |
| 20260905184704 | 15 | 0 | 0.0 | 0.0 | 0.00 | 0.08 | 0.08 | 77 | 1015.4 |
| 20260905184604 | 15 | 0 | 0.0 | 0.0 | 0.00 | 0.08 | 0.08 | 77 | 1015.1 |
| 20260905184504 | 15 | 0 | 0.0 | 0.0 | 0.00 | 0.08 | 0.08 | 77 | 1015.4 |
| 20260905184425 | 15 | 0 | 0.0 | 0.0 | 0.00 | 0.08 | 0.08 | 76 | 1015.4 |
| 20260905184304 | 15 | 0 | 0.0 | 0.0 | 0.00 | 0.08 | 0.08 | 76 | 1015.3 |
| 20260905184204 | 15 | 0 | 0.0 | 0.0 | 0.00 | 0.08 | 0.08 | 76 | 1015.2 |
| 20260905184104 | 15 | 0 | 0.0 | 0.0 | 0.00 | 0.08 | 0.08 | 76 | 1015.1 |
| 20260905184004 | 15 | 0 | 0.0 | 0.0 | 0.00 | 0.08 | 0.08 | 76 | 1015.2 |
| 20260905183925 | 15 | 0 | 0.0 | 0.0 | 0.00 | 0.08 | 0.08 | 76 | 1015.2 |
| 20260905183804 | 15 | 0 | 0.0 | 0.0 | 0.00 | 0.08 | 0.08 | 76 | 1015.3 |
| 20260905183725 | 15 | 0 | 0.0 | 0.0 | 0.00 | 0.08 | 0.08 | 76 | 1015.3 |
| 20260905183604 | 15 | 0 | 0.0 | 0.0 | 0.00 | 0.08 | 0.08 | 76 | 1015.1 |
| 20260905183504 | 15 | 0 | 0.0 | 0.0 | 0.00 | 0.08 | 0.08 | 76 | 1015.2 |
| 20260905183404 | 15 | 0 | 0.0 | 0.0 | 0.00 | 0.08 | 0.08 | 75 | 1015.3 |
| 20260905183304 | 15 | 0 | 0.0 | 0.0 | 0.00 | 0.08 | 0.08 | 76 | 1015.1 |
| 20260905183204 | 15 | 0 | 0.0 | 0.0 | 0.00 | 0.08 | 0.08 | 75 | 1015.1 |
| 20260905183104 | 15 | 0 | 0.0 | 0.0 | 0.00 | 0.08 | 0.08 | 75 | 1015.1 |
| 20260905183004 | 15 | 0 | 0.0 | 0.0 | 0.00 | 0.08 | 0.08 | 76 | 1015.3 |
| 20260905182904 | 15 | 0 | 0.0 | 0.0 | 0.00 | 0.08 | 0.08 | 75 | 1015.3 |
| 20260905182804 | 15 | 0 | 0.0 | 0.0 | 0.00 | 0.08 | 0.08 | 75 | 1015.0 |
| 20260905182704 | 15 | 0 | 0.0 | 0.0 | 0.00 | 0.08 | 0.08 | 75 | 1015.0 |
| 20260905182604 | 15 | 0 | 0.0 | 0.0 | 0.00 | 0.08 | 0.08 | 75 | 1015.0 |
| 20260905182504 | 15 | 0 | 0.0 | 0.0 | 0.00 | 0.08 | 0.08 | 75 | 1015.2 |
| 20260905182404 | 15 | 0 | 0.0 | 0.0 | 0.00 | 0.08 | 0.08 | 75 | 1014.8 |
| 20260905182306 | 15 | 0 | 0.0 | 0.0 | 0.00 | 0.08 | 0.08 | 75 | 1015.1 |
| 20260905182225 | 15 | 0 | 0.0 | 0.0 | 0.00 | 0.08 | 0.08 | 75 | 1015.1 |
| 20260905182104 | 15 | 0 | 0.0 | 0.0 | 0.00 | 0.08 | 0.08 | 75 | 1014.9 |
| 20260905182004 | 15 | 0 | 0.0 | 0.0 | 0.00 | 0.08 | 0.08 | 75 | 1014.8 |
| 20260905181925 | 15 | 0 | 0.0 | 0.0 | 0.00 | 0.08 | 0.08 | 75 | 1014.8 |
| 20260905181825 | 15 | 0 | 0.0 | 0.0 | 0.00 | 0.08 | 0.08 | 75 | 1015.1 |
| 20260905181704 | 15 | 0 | 0.0 | 0.0 | 0.00 | 0.08 | 0.08 | 75 | 1015.0 |
| 20260905181604 | 15 | 0 | 0.0 | 0.0 | 0.00 | 0.08 | 0.08 | 75 | 1015.0 |
| 20260905181525 | 15 | 0 | 0.0 | 0.0 | 0.00 | 0.08 | 0.08 | 75 | 1015.0 |
| 20260905181404 | 15 | 0 | 0.0 | 0.0 | 0.00 | 0.08 | 0.08 | 75 | 1014.9 |
| 20260905181304 | 15 | 0 | 0.0 | 0.0 | 0.00 | 0.08 | 0.08 | 75 | 1014.9 |
| 20260905181204 | 15 | 0 | 0.0 | 0.0 | 0.00 | 0.08 | 0.08 | 75 | 1014.6 |
| 20260905181125 | 15 | 0 | 0.0 | 0.0 | 0.00 | 0.08 | 0.08 | 75 | 1014.6 |
| 20260905181004 | 15 | 0 | 0.0 | 0.0 | 0.00 | 0.08 | 0.08 | 76 | 1014.9 |
| 20260905180904 | 15 | 0 | 0.0 | 0.0 | 0.00 | 0.08 | 0.08 | 76 | 1014.8 |
| 20260905180804 | 15 | 0 | 0.0 | 0.0 | 0.00 | 0.08 | 0.08 | 76 | 1015.0 |
| 20260905180704 | 15 | 0 | 0.0 | 0.0 | 0.00 | 0.08 | 0.08 | 76 | 1014.9 |
| 20260905180604 | 15 | 0 | 0.0 | 0.0 | 0.00 | 0.08 | 0.08 | 76 | 1014.8 |
| 20260905180504 | 15 | 0 | 0.0 | 0.0 | 0.00 | 0.08 | 0.08 | 76 | 1014.9 |
| 20260905180404 | 15 | 0 | 0.0 | 0.0 | 0.00 | 0.08 | 0.08 | 76 | 1014.9 |
| 20260905180304 | 15 | 0 | 0.0 | 0.0 | 0.00 | 0.08 | 0.08 | 76 | 1014.6 |
| 20260905180204 | 15 | 0 | 0.0 | 0.0 | 0.00 | 0.08 | 0.08 | 77 | 1015.1 |
| 20260905180104 | 15 | 0 | 0.0 | 0.0 | 0.00 | 0.08 | 0.08 | 77 | 1014.9 |
| 20260905180004 | 15 | 0 | 0.0 | 0.0 | 0.00 | 0.08 | 0.08 | 77 | 1014.9 |
| 20260905175904 | 15 | 0 | 0.0 | 0.0 | 0.00 | 0.08 | 0.08 | 77 | 1014.9 |
| 20260905175825 | 15 | 0 | 0.0 | 0.0 | 0.00 | 0.08 | 0.08 | 78 | 1014.9 |
| 20260905175704 | 15 | 0 | 0.0 | 0.0 | 0.00 | 0.08 | 0.08 | 77 | 1014.8 |
| 20260905175604 | 15 | 0 | 0.0 | 0.0 | 0.00 | 0.08 | 0.08 | 78 | 1014.4 |
| 20260905175504 | 15 | 0 | 0.0 | 0.0 | 0.00 | 0.08 | 0.08 | 78 | 1014.9 |
| 20260905175404 | 15 | 0 | 0.0 | 0.0 | 0.00 | 0.08 | 0.08 | 78 | 1014.8 |
| 20260905175325 | 15 | 0 | 0.0 | 0.0 | 0.00 | 0.08 | 0.08 | 79 | 1014.8 |
| 20260905175204 | 15 | 0 | 0.0 | 0.0 | 0.00 | 0.08 | 0.08 | 78 | 1014.8 |
| 20260905175104 | 15 | 0 | 0.0 | 0.0 | 0.00 | 0.08 | 0.08 | 79 | 1014.9 |
| 20260905175025 | 15 | 0 | 0.0 | 0.0 | 0.00 | 0.08 | 0.08 | 79 | 1014.9 |
| 20260905174904 | 15 | 0 | 0.0 | 0.0 | 0.00 | 0.08 | 0.08 | 80 | 1014.6 |
| 20260905174804 | 15 | 0 | 0.0 | 0.0 | 0.00 | 0.08 | 0.08 | 80 | 1014.7 |
| 20260905174704 | 15 | 0 | 0.0 | 0.0 | 0.00 | 0.08 | 0.08 | 81 | 1014.6 |
| 20260905174604 | 15 | 0 | 0.0 | 0.0 | 0.00 | 0.08 | 0.08 | 82 | 1014.4 |
| 20260905174504 | 15 | 0 | 0.0 | 0.0 | 0.00 | 0.08 | 0.08 | 82 | 1014.8 |
| 20260905174425 | 15 | 0 | 0.0 | 0.0 | 0.00 | 0.08 | 0.08 | 82 | 1014.8 |
| 20260905174304 | 15 | 0 | 0.0 | 0.0 | 0.00 | 0.08 | 0.08 | 83 | 1014.7 |
| 20260905174204 | 15 | 0 | 0.0 | 0.0 | 0.00 | 0.08 | 0.08 | 83 | 1014.8 |
| 20260905174124 | 15 | 0 | 0.0 | 0.0 | 0.00 | 0.08 | 0.08 | 83 | 1014.8 |
| 20260905174004 | 15 | 0 | 0.0 | 0.0 | 0.00 | 0.08 | 0.08 | 83 | 1014.3 |
| 20260905173904 | 15 | 0 | 0.0 | 0.0 | 0.00 | 0.08 | 0.08 | 83 | 1014.6 |
| 20260905173804 | 15 | 0 | 0.0 | 0.0 | 0.00 | 0.08 | 0.08 | 83 | 1014.6 |
| 20260905173705 | 15 | 0 | 0.0 | 0.0 | 0.00 | 0.08 | 0.08 | 83 | 1014.6 |
| 20260905173604 | 15 | 0 | 0.0 | 0.0 | 0.00 | 0.08 | 0.08 | 83 | 1014.4 |
| 20260905173503 | 15 | 0 | 0.0 | 0.0 | 0.00 | 0.08 | 0.08 | 83 | 1014.7 |
| 20260905173403 | 15 | 0 | 0.0 | 0.0 | 0.00 | 0.08 | 0.08 | 83 | 1014.2 |
| 20260905173304 | 15 | 0 | 0.0 | 0.0 | 0.00 | 0.08 | 0.08 | 83 | 1014.7 |
| 20260905173204 | 15 | 0 | 0.0 | 0.0 | 0.00 | 0.08 | 0.08 | 83 | 1014.8 |
| 20260905173103 | 15 | 0 | 0.0 | 0.0 | 0.00 | 0.08 | 0.08 | 82 | 1014.6 |
| 20260905173004 | 16 | 0 | 0.0 | 0.0 | 0.00 | 0.08 | 0.08 | 83 | 1014.6 |
| 20260905172904 | 16 | 0 | 0.0 | 0.0 | 0.00 | 0.08 | 0.08 | 82 | 1014.4 |
| 20260905172804 | 16 | 0 | 0.0 | 0.0 | 0.00 | 0.08 | 0.08 | 82 | 1014.7 |
| 20260905172725 | 16 | 0 | 0.0 | 0.0 | 0.00 | 0.08 | 0.08 | 82 | 1014.7 |
| 20260905172603 | 16 | 0 | 0.0 | 0.0 | 0.00 | 0.08 | 0.08 | 82 | 1014.6 |
| 20260905172506 | 16 | 0 | 0.0 | 0.0 | 0.00 | 0.08 | 0.08 | 82 | 1014.7 |
| 20260905172404 | 16 | 0 | 0.0 | 0.0 | 0.00 | 0.08 | 0.08 | 82 | 1014.7 |
| 20260905172325 | 16 | 0 | 0.0 | 0.0 | 0.00 | 0.08 | 0.08 | 82 | 1014.7 |
| 20260905172225 | 16 | 0 | 0.0 | 0.0 | 0.00 | 0.08 | 0.08 | 82 | 1014.6 |
| 20260905172103 | 16 | 0 | 0.0 | 0.0 | 0.00 | 0.08 | 0.08 | 82 | 1014.6 |
| 20260905172004 | 16 | 0 | 0.0 | 0.0 | 0.00 | 0.08 | 0.08 | 82 | 1014.4 |
| 20260905171904 | 16 | 0 | 0.0 | 0.0 | 0.00 | 0.08 | 0.08 | 82 | 1014.6 |
| 20260905171825 | 16 | 0 | 0.0 | 0.0 | 0.00 | 0.08 | 0.08 | 82 | 1014.6 |
| 20260905171703 | 16 | 0 | 0.0 | 0.0 | 0.00 | 0.08 | 0.08 | 82 | 1014.6 |
| 20260905171604 | 16 | 0 | 0.0 | 0.0 | 0.00 | 0.08 | 0.08 | 81 | 1014.1 |
| 20260905171503 | 16 | 0 | 0.0 | 0.0 | 0.00 | 0.08 | 0.08 | 81 | 1014.4 |
| 20260905171404 | 16 | 0 | 0.0 | 0.0 | 0.00 | 0.08 | 0.08 | 81 | 1014.1 |
| 20260905171304 | 16 | 0 | 0.0 | 0.0 | 0.00 | 0.08 | 0.08 | 81 | 1014.2 |
| 20260905171203 | 16 | 0 | 0.0 | 0.0 | 0.00 | 0.08 | 0.08 | 81 | 1014.2 |
| 20260905171103 | 16 | 0 | 0.0 | 0.0 | 0.00 | 0.08 | 0.08 | 81 | 1014.2 |
| 20260905171003 | 16 | 0 | 0.0 | 0.0 | 0.00 | 0.08 | 0.08 | 81 | 1014.0 |
| 20260905170904 | 16 | 0 | 0.0 | 0.0 | 0.00 | 0.08 | 0.08 | 81 | 1014.2 |
| 20260905170804 | 16 | 0 | 0.0 | 0.0 | 0.00 | 0.08 | 0.08 | 81 | 1014.2 |
| 20260905170704 | 16 | 0 | 0.0 | 0.0 | 0.00 | 0.08 | 0.08 | 82 | 1014.3 |
| 20260905170626 | 16 | 0 | 0.0 | 0.0 | 0.00 | 0.08 | 0.08 | 81 | 1014.3 |
| 20260905170503 | 16 | 0 | 0.0 | 0.0 | 0.00 | 0.08 | 0.08 | 81 | 1014.3 |
| 20260905170425 | 16 | 0 | 0.0 | 0.0 | 0.00 | 0.08 | 0.08 | 81 | 1014.3 |
| 20260905170304 | 16 | 0 | 0.0 | 0.0 | 0.00 | 0.08 | 0.08 | 81 | 1014.2 |
| 20260905170225 | 16 | 0 | 0.0 | 0.0 | 0.00 | 0.08 | 0.08 | 81 | 1014.2 |
| 20260905170104 | 16 | 0 | 0.0 | 0.0 | 0.00 | 0.08 | 0.08 | 81 | 1014.1 |
| 20260905170004 | 16 | 0 | 0.0 | 0.0 | 0.00 | 0.08 | 0.08 | 81 | 1014.2 |
| 20260905165904 | 16 | 0 | 0.0 | 0.0 | 0.00 | 0.08 | 0.08 | 81 | 1014.2 |
| 20260905165803 | 16 | 0 | 0.0 | 0.0 | 0.00 | 0.08 | 0.08 | 81 | 1014.1 |
| 20260905165704 | 16 | 0 | 0.0 | 0.0 | 0.00 | 0.08 | 0.08 | 81 | 1014.1 |
| 20260905165603 | 16 | 0 | 0.0 | 0.0 | 0.00 | 0.08 | 0.08 | 81 | 1014.0 |
| 20260905165504 | 16 | 0 | 0.0 | 0.0 | 0.00 | 0.08 | 0.08 | 81 | 1014.0 |
| 20260905165403 | 16 | 0 | 0.0 | 0.0 | 0.00 | 0.08 | 0.08 | 81 | 1013.9 |
| 20260905165325 | 16 | 0 | 0.0 | 0.0 | 0.00 | 0.08 | 0.08 | 81 | 1013.9 |
| 20260905165204 | 16 | 0 | 0.0 | 0.0 | 0.00 | 0.08 | 0.08 | 81 | 1014.1 |
| 20260905165104 | 16 | 0 | 0.0 | 0.0 | 0.00 | 0.08 | 0.08 | 81 | 1013.9 |
| 20260905165025 | 16 | 0 | 0.0 | 0.0 | 0.00 | 0.08 | 0.08 | 81 | 1013.9 |
| 20260905164904 | 16 | 0 | 0.0 | 0.0 | 0.00 | 0.08 | 0.08 | 81 | 1013.9 |
| 20260905164804 | 16 | 0 | 0.0 | 0.0 | 0.00 | 0.08 | 0.08 | 81 | 1013.7 |
| 20260905164704 | 16 | 0 | 0.0 | 0.0 | 0.00 | 0.08 | 0.08 | 81 | 1013.9 |
| 20260905164604 | 16 | 0 | 0.0 | 0.0 | 0.00 | 0.08 | 0.08 | 81 | 1013.6 |
| 20260905164505 | 16 | 0 | 0.0 | 0.0 | 0.00 | 0.08 | 0.08 | 80 | 1013.7 |
| 20260905164404 | 16 | 0 | 0.0 | 0.0 | 0.00 | 0.08 | 0.08 | 81 | 1013.6 |
| 20260905164304 | 16 | 0 | 0.0 | 0.0 | 0.00 | 0.08 | 0.08 | 81 | 1013.8 |
| 20260905164203 | 16 | 0 | 0.0 | 0.0 | 0.00 | 0.08 | 0.08 | 80 | 1013.7 |
| 20260905164103 | 16 | 0 | 0.0 | 0.0 | 0.00 | 0.08 | 0.08 | 80 | 1013.7 |
| 20260905164024 | 16 | 0 | 0.0 | 0.0 | 0.00 | 0.08 | 0.08 | 80 | 1013.7 |
| 20260905163904 | 16 | 0 | 0.0 | 0.0 | 0.00 | 0.08 | 0.08 | 81 | 1014.1 |
| 20260905163826 | 16 | 0 | 0.0 | 0.0 | 0.00 | 0.08 | 0.08 | 80 | 1014.1 |
| 20260905163704 | 16 | 0 | 0.0 | 0.0 | 0.00 | 0.08 | 0.08 | 80 | 1014.1 |
| 20260905163603 | 16 | 0 | 0.0 | 0.0 | 0.00 | 0.08 | 0.08 | 80 | 1014.1 |
| 20260905163503 | 16 | 0 | 0.0 | 0.0 | 0.00 | 0.08 | 0.08 | 81 | 1014.3 |
| 20260905163404 | 16 | 0 | 0.0 | 0.0 | 0.00 | 0.08 | 0.08 | 80 | 1014.1 |
| 20260905163303 | 16 | 0 | 0.0 | 0.0 | 0.00 | 0.08 | 0.08 | 80 | 1014.3 |
| 20260905163203 | 16 | 0 | 0.0 | 0.0 | 0.00 | 0.08 | 0.08 | 81 | 1014.3 |
| 20260905163104 | 16 | 0 | 0.0 | 0.0 | 0.00 | 0.08 | 0.08 | 80 | 1014.2 |
| 20260905163003 | 16 | 0 | 0.0 | 0.0 | 0.00 | 0.08 | 0.08 | 80 | 1014.1 |
| 20260905162903 | 16 | 0 | 0.0 | 0.0 | 0.00 | 0.08 | 0.08 | 81 | 1014.3 |
| 20260905162804 | 16 | 0 | 0.0 | 0.0 | 0.00 | 0.08 | 0.08 | 81 | 1014.4 |
| 20260905162704 | 16 | 0 | 0.0 | 0.0 | 0.00 | 0.08 | 0.08 | 80 | 1014.4 |
| 20260905162605 | 16 | 0 | 0.0 | 0.0 | 0.00 | 0.08 | 0.08 | 81 | 1014.4 |
| 20260905162504 | 16 | 0 | 0.0 | 0.0 | 0.00 | 0.08 | 0.08 | 81 | 1014.3 |
| 20260905162404 | 16 | 0 | 0.0 | 0.0 | 0.00 | 0.08 | 0.08 | 80 | 1014.3 |
| 20260905162306 | 16 | 0 | 0.0 | 0.0 | 0.00 | 0.08 | 0.08 | 80 | 1014.2 |
| 20260905162225 | 16 | 0 | 0.0 | 0.0 | 0.00 | 0.08 | 0.08 | 81 | 1014.2 |
| 20260905162125 | 16 | 0 | 0.0 | 0.0 | 0.00 | 0.08 | 0.08 | 81 | 1014.1 |
| 20260905162004 | 16 | 0 | 0.0 | 0.0 | 0.00 | 0.08 | 0.08 | 81 | 1013.8 |
| 20260905161904 | 16 | 0 | 0.0 | 0.0 | 0.00 | 0.08 | 0.08 | 81 | 1013.9 |
| 20260905161803 | 16 | 0 | 0.0 | 0.0 | 0.00 | 0.08 | 0.08 | 81 | 1013.8 |
| 20260905161704 | 16 | 0 | 0.0 | 0.0 | 0.00 | 0.08 | 0.08 | 81 | 1013.8 |
| 20260905161625 | 16 | 0 | 0.0 | 0.0 | 0.00 | 0.08 | 0.08 | 81 | 1013.8 |
| 20260905161525 | 16 | 0 | 0.0 | 0.0 | 0.00 | 0.08 | 0.08 | 81 | 1013.6 |
| 20260905161404 | 16 | 0 | 0.0 | 0.0 | 0.00 | 0.08 | 0.08 | 81 | 1013.9 |
| 20260905161304 | 16 | 0 | 0.0 | 0.0 | 0.00 | 0.08 | 0.08 | 81 | 1013.9 |
| 20260905161203 | 16 | 0 | 0.0 | 0.0 | 0.00 | 0.08 | 0.08 | 81 | 1014.0 |
| 20260905161125 | 16 | 0 | 0.0 | 0.0 | 0.00 | 0.08 | 0.08 | 81 | 1014.0 |
| 20260905161004 | 16 | 0 | 0.0 | 0.0 | 0.03 | 0.08 | 0.08 | 81 | 1013.9 |
| 20260905160904 | 16 | 0 | 0.0 | 0.0 | 0.03 | 0.08 | 0.08 | 81 | 1013.9 |
| 20260905160803 | 16 | 0 | 0.0 | 0.0 | 0.03 | 0.08 | 0.08 | 81 | 1013.7 |
| 20260905160725 | 16 | 0 | 0.0 | 0.0 | 0.03 | 0.08 | 0.08 | 81 | 1013.7 |
| 20260905160604 | 16 | 0 | 0.0 | 0.0 | 0.03 | 0.08 | 0.08 | 81 | 1013.9 |
| 20260905160504 | 16 | 0 | 0.0 | 0.0 | 0.03 | 0.08 | 0.08 | 80 | 1013.9 |
| 20260905160403 | 16 | 0 | 0.0 | 0.0 | 0.03 | 0.08 | 0.08 | 81 | 1013.7 |
| 20260905160303 | 16 | 0 | 0.0 | 0.0 | 0.05 | 0.08 | 0.08 | 80 | 1013.8 |
| 20260905160205 | 16 | 0 | 0.0 | 0.0 | 0.05 | 0.08 | 0.08 | 80 | 1013.9 |
| 20260905160025 | 16 | 0 | 0.0 | 0.0 | 0.08 | 0.08 | 0.08 | 81 | 1013.9 |
| 20260905155903 | 16 | 0 | 0.0 | 0.0 | 0.08 | 0.08 | 0.08 | 81 | 1013.8 |
| 20260905155804 | 16 | 0 | 0.0 | 0.0 | 0.08 | 0.08 | 0.08 | 81 | 1013.5 |
| 20260905155703 | 16 | 0 | 0.0 | 0.0 | 0.08 | 0.08 | 0.08 | 81 | 1013.8 |
| 20260905155604 | 16 | 0 | 0.0 | 0.0 | 0.08 | 0.08 | 0.08 | 81 | 1014.0 |
| 20260905155504 | 16 | 0 | 0.0 | 0.0 | 0.08 | 0.08 | 0.08 | 81 | 1013.7 |
| 20260905155425 | 16 | 0 | 0.0 | 0.0 | 0.08 | 0.08 | 0.08 | 81 | 1013.7 |
| 20260905155306 | 16 | 0 | 0.0 | 0.0 | 0.08 | 0.08 | 0.08 | 80 | 1013.5 |
| 20260905155203 | 16 | 0 | 0.0 | 0.0 | 0.08 | 0.08 | 0.08 | 80 | 1013.6 |
| 20260905155104 | 16 | 0 | 0.0 | 0.0 | 0.08 | 0.08 | 0.08 | 80 | 1013.8 |
| 20260905155004 | 16 | 0 | 0.0 | 0.0 | 0.08 | 0.08 | 0.08 | 79 | 1014.0 |
| 20260905154904 | 16 | 0 | 0.0 | 0.0 | 0.08 | 0.08 | 0.08 | 80 | 1014.0 |
| 20260905154804 | 16 | 0 | 0.0 | 0.0 | 0.08 | 0.08 | 0.08 | 80 | 1014.1 |
| 20260905154704 | 16 | 0 | 0.0 | 0.0 | 0.08 | 0.08 | 0.08 | 80 | 1014.0 |
| 20260905154604 | 16 | 0 | 0.0 | 0.0 | 0.08 | 0.08 | 0.08 | 80 | 1014.1 |
| 20260905154525 | 16 | 0 | 0.0 | 0.0 | 0.08 | 0.08 | 0.08 | 80 | 1014.1 |
| 20260905154404 | 16 | 0 | 0.0 | 0.0 | 0.08 | 0.08 | 0.08 | 81 | 1014.0 |
| 20260905154304 | 16 | 0 | 0.0 | 0.0 | 0.08 | 0.08 | 0.08 | 81 | 1014.4 |
| 20260905154203 | 16 | 0 | 0.0 | 0.0 | 0.08 | 0.08 | 0.08 | 81 | 1014.1 |
| 20260905154104 | 16 | 0 | 0.0 | 0.0 | 0.08 | 0.08 | 0.08 | 80 | 1014.1 |
| 20260905154025 | 16 | 0 | 0.0 | 0.0 | 0.08 | 0.08 | 0.08 | 80 | 1014.1 |
| 20260905153904 | 16 | 0 | 0.0 | 0.0 | 0.08 | 0.08 | 0.08 | 80 | 1014.3 |
| 20260905153803 | 16 | 0 | 0.0 | 0.0 | 0.08 | 0.08 | 0.08 | 80 | 1014.2 |
| 20260905153704 | 16 | 0 | 0.0 | 0.0 | 0.08 | 0.08 | 0.08 | 80 | 1014.2 |
| 20260905153604 | 16 | 0 | 0.0 | 0.0 | 0.08 | 0.08 | 0.08 | 80 | 1014.3 |
| 20260905153504 | 16 | 0 | 0.0 | 0.0 | 0.08 | 0.08 | 0.08 | 79 | 1014.0 |
| 20260905153404 | 16 | 0 | 0.0 | 0.0 | 0.08 | 0.08 | 0.08 | 79 | 1014.2 |
| 20260905153303 | 16 | 0 | 0.0 | 0.0 | 0.08 | 0.08 | 0.08 | 79 | 1014.3 |
| 20260905153203 | 16 | 0 | 0.0 | 0.0 | 0.08 | 0.08 | 0.08 | 79 | 1014.2 |
| 20260905153124 | 16 | 0 | 0.0 | 0.0 | 0.08 | 0.08 | 0.08 | 78 | 1014.2 |
| 20260905153004 | 16 | 0 | 0.0 | 0.0 | 0.08 | 0.08 | 0.08 | 78 | 1014.4 |
| 20260905152903 | 16 | 0 | 0.0 | 0.0 | 0.08 | 0.08 | 0.08 | 78 | 1014.1 |
| 20260905152803 | 16 | 0 | 0.0 | 0.0 | 0.08 | 0.08 | 0.08 | 78 | 1014.1 |
| 20260905152703 | 16 | 0 | 0.0 | 0.0 | 0.08 | 0.08 | 0.08 | 78 | 1014.3 |
| 20260905152603 | 16 | 0 | 0.0 | 0.0 | 0.08 | 0.08 | 0.08 | 78 | 1014.1 |
| 20260905152504 | 16 | 0 | 0.0 | 0.0 | 0.08 | 0.08 | 0.08 | 77 | 1014.3 |
| 20260905152403 | 16 | 0 | 0.0 | 0.0 | 0.08 | 0.08 | 0.08 | 77 | 1014.1 |
| 20260905152306 | 16 | 0 | 0.0 | 0.0 | 0.08 | 0.08 | 0.08 | 76 | 1014.1 |
| 20260905152204 | 16 | 0 | 0.0 | 0.0 | 0.08 | 0.08 | 0.08 | 76 | 1014.1 |
| 20260905152103 | 16 | 0 | 0.0 | 0.0 | 0.08 | 0.08 | 0.08 | 76 | 1014.3 |
| 20260905152003 | 16 | 0 | 0.0 | 0.0 | 0.08 | 0.08 | 0.08 | 76 | 1014.0 |
| 20260905151904 | 16 | 0 | 0.0 | 0.0 | 0.08 | 0.08 | 0.08 | 76 | 1014.2 |
| 20260905151804 | 16 | 0 | 0.0 | 0.0 | 0.08 | 0.08 | 0.08 | 74 | 1014.0 |
| 20260905151703 | 16 | 0 | 0.0 | 0.0 | 0.08 | 0.08 | 0.08 | 75 | 1014.3 |
| 20260905151625 | 16 | 0 | 0.0 | 0.0 | 0.08 | 0.08 | 0.08 | 74 | 1014.3 |
| 20260905151525 | 16 | 192 | 0.0 | 3.2 | 0.08 | 0.08 | 0.08 | 74 | 1014.2 |
| 20260905151403 | 16 | 189 | 0.0 | 3.2 | 0.08 | 0.08 | 0.08 | 74 | 1014.1 |
| 20260905151303 | 16 | 189 | 0.0 | 3.2 | 0.08 | 0.08 | 0.08 | 74 | 1014.3 |
| 20260905151225 | 17 | 189 | 0.0 | 3.2 | 0.08 | 0.08 | 0.08 | 74 | 1014.3 |
| 20260905151104 | 17 | 181 | 0.0 | 3.2 | 0.08 | 0.08 | 0.08 | 74 | 1014.0 |
| 20260905151004 | 17 | 197 | 0.0 | 3.2 | 0.05 | 0.05 | 0.05 | 73 | 1014.1 |
| 20260905150904 | 17 | 207 | 0.0 | 9.7 | 0.05 | 0.05 | 0.05 | 73 | 1014.0 |
| 20260905150825 | 17 | 205 | 0.0 | 9.7 | 0.05 | 0.05 | 0.05 | 72 | 1014.0 |
| 20260905150704 | 17 | 200 | 0.0 | 9.7 | 0.05 | 0.05 | 0.05 | 69 | 1014.1 |
| 20260905150604 | 17 | 177 | 0.0 | 9.7 | 0.05 | 0.05 | 0.05 | 69 | 1014.1 |
| 20260905150503 | 17 | 153 | 1.6 | 11.3 | 0.05 | 0.05 | 0.05 | 69 | 1014.2 |
| 20260905150404 | 17 | 165 | 1.6 | 11.3 | 0.05 | 0.05 | 0.05 | 68 | 1014.4 |
| 20260905150303 | 18 | 160 | 1.6 | 11.3 | 0.03 | 0.03 | 0.03 | 66 | 1014.2 |
| 20260905150224 | 18 | 158 | 1.6 | 11.3 | 0.03 | 0.03 | 0.03 | 66 | 1014.2 |
| 20260905150104 | 18 | 149 | 1.6 | 11.3 | 0.03 | 0.03 | 0.03 | 64 | 1014.6 |
| 20260905150004 | 18 | 143 | 1.6 | 11.3 | 0.00 | 0.00 | 0.00 | 62 | 1014.4 |
| 20260905145903 | 18 | 136 | 1.6 | 11.3 | 0.00 | 0.00 | 0.00 | 63 | 1014.7 |
| 20260905145804 | 18 | 133 | 1.6 | 11.3 | 0.00 | 0.00 | 0.00 | 61 | 1014.8 |
| 20260905145704 | 19 | 135 | 1.6 | 11.3 | 0.00 | 0.00 | 0.00 | 60 | 1014.3 |
| 20260905145625 | 19 | 132 | 1.6 | 11.3 | 0.00 | 0.00 | 0.00 | 61 | 1014.3 |
| 20260905145504 | 19 | 145 | 1.6 | 9.7 | 0.00 | 0.00 | 0.00 | 58 | 1014.6 |
| 20260905145403 | 20 | 132 | 1.6 | 9.7 | 0.00 | 0.00 | 0.00 | 56 | 1014.4 |
| 20260905145306 | 20 | 118 | 1.6 | 9.7 | 0.00 | 0.00 | 0.00 | 56 | 1014.4 |
| 20260905145203 | 20 | 115 | 1.6 | 9.7 | 0.00 | 0.00 | 0.00 | 55 | 1014.6 |
| 20260905145103 | 20 | 115 | 1.6 | 9.7 | 0.00 | 0.00 | 0.00 | 55 | 1014.1 |
| 20260905145004 | 20 | 115 | 1.6 | 9.7 | 0.00 | 0.00 | 0.00 | 55 | 1014.7 |
| 20260905144903 | 20 | 99 | 1.6 | 9.7 | 0.00 | 0.00 | 0.00 | 54 | 1014.3 |
| 20260905144803 | 20 | 108 | 0.0 | 9.7 | 0.00 | 0.00 | 0.00 | 54 | 1014.3 |
| 20260905144724 | 20 | 103 | 1.6 | 9.7 | 0.00 | 0.00 | 0.00 | 53 | 1014.3 |
| 20260905144603 | 20 | 72 | 1.6 | 9.7 | 0.00 | 0.00 | 0.00 | 54 | 1014.0 |
| 20260905144504 | 20 | 68 | 1.6 | 9.7 | 0.00 | 0.00 | 0.00 | 54 | 1014.1 |
| 20260905144403 | 20 | 69 | 1.6 | 9.7 | 0.00 | 0.00 | 0.00 | 54 | 1013.9 |
| 20260905144303 | 20 | 103 | 1.6 | 9.7 | 0.00 | 0.00 | 0.00 | 54 | 1014.3 |
| 20260905144203 | 20 | 109 | 1.6 | 9.7 | 0.00 | 0.00 | 0.00 | 54 | 1014.1 |
| 20260905144103 | 20 | 139 | 1.6 | 9.7 | 0.00 | 0.00 | 0.00 | 54 | 1013.9 |
| 20260905144004 | 20 | 128 | 1.6 | 9.7 | 0.00 | 0.00 | 0.00 | 54 | 1013.6 |
| 20260905143903 | 20 | 129 | 1.6 | 9.7 | 0.00 | 0.00 | 0.00 | 54 | 1013.7 |
| 20260905143804 | 20 | 137 | 1.6 | 9.7 | 0.00 | 0.00 | 0.00 | 54 | 1013.8 |
| 20260905143704 | 21 | 148 | 1.6 | 9.7 | 0.00 | 0.00 | 0.00 | 53 | 1013.7 |
| 20260905143603 | 21 | 152 | 1.6 | 9.7 | 0.00 | 0.00 | 0.00 | 53 | 1013.8 |
| 20260905143503 | 21 | 152 | 1.6 | 9.7 | 0.00 | 0.00 | 0.00 | 53 | 1013.9 |
| 20260905143404 | 21 | 156 | 1.6 | 9.7 | 0.00 | 0.00 | 0.00 | 52 | 1014.1 |
| 20260905143303 | 21 | 146 | 1.6 | 9.7 | 0.00 | 0.00 | 0.00 | 52 | 1013.8 |
| 20260905143224 | 21 | 142 | 1.6 | 9.7 | 0.00 | 0.00 | 0.00 | 52 | 1013.8 |
| 20260905143104 | 21 | 127 | 1.6 | 11.3 | 0.00 | 0.00 | 0.00 | 51 | 1013.8 |
| 20260905143003 | 21 | 115 | 1.6 | 12.9 | 0.00 | 0.00 | 0.00 | 51 | 1013.5 |
| 20260905142903 | 21 | 115 | 1.6 | 12.9 | 0.00 | 0.00 | 0.00 | 51 | 1013.7 |
| 20260905142803 | 21 | 103 | 1.6 | 12.9 | 0.00 | 0.00 | 0.00 | 50 | 1013.6 |
| 20260905142703 | 21 | 102 | 1.6 | 12.9 | 0.00 | 0.00 | 0.00 | 51 | 1013.6 |
| 20260905142604 | 21 | 112 | 1.6 | 12.9 | 0.00 | 0.00 | 0.00 | 51 | 1013.5 |
| 20260905142504 | 21 | 113 | 1.6 | 12.9 | 0.00 | 0.00 | 0.00 | 51 | 1013.6 |
| 20260905142424 | 21 | 103 | 1.6 | 12.9 | 0.00 | 0.00 | 0.00 | 51 | 1013.6 |
| 20260905142306 | 21 | 88 | 1.6 | 12.9 | 0.00 | 0.00 | 0.00 | 50 | 1013.8 |
| 20260905142203 | 21 | 69 | 1.6 | 12.9 | 0.00 | 0.00 | 0.00 | 50 | 1013.8 |
| 20260905142104 | 21 | 77 | 1.6 | 12.9 | 0.00 | 0.00 | 0.00 | 50 | 1013.9 |
| 20260905142004 | 21 | 97 | 1.6 | 11.3 | 0.00 | 0.00 | 0.00 | 50 | 1013.9 |
| 20260905141903 | 21 | 103 | 1.6 | 11.3 | 0.00 | 0.00 | 0.00 | 50 | 1013.5 |
| 20260905141803 | 22 | 111 | 1.6 | 11.3 | 0.00 | 0.00 | 0.00 | 48 | 1013.5 |
| 20260905141703 | 22 | 116 | 1.6 | 11.3 | 0.00 | 0.00 | 0.00 | 48 | 1013.6 |
| 20260905141604 | 22 | 123 | 1.6 | 11.3 | 0.00 | 0.00 | 0.00 | 47 | 1013.8 |
| 20260905141503 | 22 | 116 | 1.6 | 9.7 | 0.00 | 0.00 | 0.00 | 46 | 1013.8 |
| 20260905141403 | 22 | 130 | 1.6 | 9.7 | 0.00 | 0.00 | 0.00 | 46 | 1013.5 |
| 20260905141303 | 22 | 137 | 1.6 | 9.7 | 0.00 | 0.00 | 0.00 | 46 | 1013.5 |
| 20260905141203 | 22 | 147 | 1.6 | 6.4 | 0.00 | 0.00 | 0.00 | 45 | 1013.6 |
| 20260905141104 | 22 | 153 | 1.6 | 9.7 | 0.00 | 0.00 | 0.00 | 45 | 1013.6 |
| 20260905141003 | 22 | 154 | 1.6 | 9.7 | 0.00 | 0.00 | 0.00 | 45 | 1013.4 |
| 20260905140903 | 22 | 148 | 1.6 | 9.7 | 0.00 | 0.00 | 0.00 | 45 | 1013.6 |
| 20260905140803 | 22 | 142 | 1.6 | 9.7 | 0.00 | 0.00 | 0.00 | 45 | 1013.5 |
| 20260905140703 | 22 | 128 | 1.6 | 9.7 | 0.00 | 0.00 | 0.00 | 45 | 1013.7 |
| 20260905140604 | 22 | 131 | 1.6 | 9.7 | 0.00 | 0.00 | 0.00 | 45 | 1013.6 |
| 20260905140504 | 22 | 124 | 1.6 | 9.7 | 0.00 | 0.00 | 0.00 | 45 | 1013.5 |
| 20260905140403 | 22 | 128 | 1.6 | 9.7 | 0.00 | 0.00 | 0.00 | 45 | 1013.4 |
| 20260905140304 | 22 | 117 | 1.6 | 9.7 | 0.00 | 0.00 | 0.00 | 45 | 1013.3 |
| 20260905140225 | 22 | 120 | 1.6 | 9.7 | 0.00 | 0.00 | 0.00 | 44 | 1013.3 |
| 20260905140103 | 22 | 55 | 1.6 | 12.9 | 0.00 | 0.00 | 0.00 | 45 | 1013.2 |
| 20260905140004 | 22 | 56 | 3.2 | 12.9 | 0.00 | 0.00 | 0.00 | 45 | 1013.5 |
| 20260905135903 | 22 | 51 | 3.2 | 12.9 | 0.00 | 0.00 | 0.00 | 45 | 1013.5 |
| 20260905135804 | 22 | 52 | 3.2 | 12.9 | 0.00 | 0.00 | 0.00 | 45 | 1013.4 |
| 20260905135703 | 22 | 47 | 1.6 | 12.9 | 0.00 | 0.00 | 0.00 | 44 | 1013.4 |
| 20260905135604 | 23 | 34 | 1.6 | 12.9 | 0.00 | 0.00 | 0.00 | 44 | 1013.1 |
| 20260905135503 | 23 | 19 | 1.6 | 12.9 | 0.00 | 0.00 | 0.00 | 44 | 1013.0 |
| 20260905135424 | 23 | 14 | 1.6 | 12.9 | 0.00 | 0.00 | 0.00 | 44 | 1013.0 |
| 20260905135306 | 23 | 41 | 1.6 | 12.9 | 0.00 | 0.00 | 0.00 | 43 | 1012.9 |
| 20260905135203 | 23 | 95 | 1.6 | 12.9 | 0.00 | 0.00 | 0.00 | 43 | 1013.2 |
| 20260905135103 | 23 | 185 | 1.6 | 11.3 | 0.00 | 0.00 | 0.00 | 43 | 1012.9 |
| 20260905135004 | 23 | 170 | 1.6 | 11.3 | 0.00 | 0.00 | 0.00 | 43 | 1013.1 |
| 20260905134903 | 23 | 176 | 1.6 | 11.3 | 0.00 | 0.00 | 0.00 | 43 | 1012.9 |
| 20260905134803 | 23 | 169 | 1.6 | 11.3 | 0.00 | 0.00 | 0.00 | 43 | 1013.2 |
| 20260905134704 | 23 | 172 | 1.6 | 11.3 | 0.00 | 0.00 | 0.00 | 43 | 1012.9 |
| 20260905134624 | 23 | 173 | 1.6 | 11.3 | 0.00 | 0.00 | 0.00 | 42 | 1012.9 |
| 20260905134504 | 23 | 180 | 1.6 | 11.3 | 0.00 | 0.00 | 0.00 | 42 | 1013.0 |
| 20260905134404 | 23 | 171 | 1.6 | 11.3 | 0.00 | 0.00 | 0.00 | 41 | 1013.1 |
| 20260905134303 | 23 | 154 | 1.6 | 12.9 | 0.00 | 0.00 | 0.00 | 41 | 1013.1 |
| 20260905134203 | 23 | 156 | 1.6 | 12.9 | 0.00 | 0.00 | 0.00 | 41 | 1013.0 |
| 20260905134104 | 23 | 137 | 1.6 | 12.9 | 0.00 | 0.00 | 0.00 | 41 | 1013.3 |
| 20260905134004 | 23 | 143 | 1.6 | 12.9 | 0.00 | 0.00 | 0.00 | 41 | 1013.3 |
| 20260905133903 | 23 | 146 | 1.6 | 12.9 | 0.00 | 0.00 | 0.00 | 40 | 1013.2 |
| 20260905133803 | 23 | 144 | 1.6 | 12.9 | 0.00 | 0.00 | 0.00 | 41 | 1013.1 |
| 20260905133704 | 23 | 141 | 1.6 | 12.9 | 0.00 | 0.00 | 0.00 | 40 | 1013.2 |
| 20260905133625 | 23 | 144 | 1.6 | 12.9 | 0.00 | 0.00 | 0.00 | 40 | 1013.2 |
| 20260905133503 | 23 | 137 | 1.6 | 12.9 | 0.00 | 0.00 | 0.00 | 40 | 1013.1 |
| 20260905133403 | 23 | 134 | 1.6 | 12.9 | 0.00 | 0.00 | 0.00 | 40 | 1013.0 |
| 20260905133324 | 23 | 129 | 1.6 | 12.9 | 0.00 | 0.00 | 0.00 | 40 | 1013.0 |
| 20260905133204 | 24 | 96 | 1.6 | 11.3 | 0.00 | 0.00 | 0.00 | 40 | 1012.9 |
| 20260905133104 | 24 | 67 | 1.6 | 11.3 | 0.00 | 0.00 | 0.00 | 40 | 1013.1 |
| 20260905133004 | 24 | 53 | 1.6 | 11.3 | 0.00 | 0.00 | 0.00 | 40 | 1013.1 |
| 20260905132904 | 24 | 95 | 1.6 | 11.3 | 0.00 | 0.00 | 0.00 | 40 | 1013.0 |
| 20260905132803 | 24 | 138 | 1.6 | 11.3 | 0.00 | 0.00 | 0.00 | 40 | 1013.1 |
| 20260905132704 | 24 | 134 | 1.6 | 11.3 | 0.00 | 0.00 | 0.00 | 41 | 1013.1 |
| 20260905132603 | 24 | 122 | 1.6 | 11.3 | 0.00 | 0.00 | 0.00 | 40 | 1013.2 |
| 20260905132503 | 24 | 103 | 1.6 | 11.3 | 0.00 | 0.00 | 0.00 | 40 | 1013.3 |
| 20260905132404 | 24 | 111 | 1.6 | 11.3 | 0.00 | 0.00 | 0.00 | 41 | 1013.2 |
| 20260905132306 | 24 | 119 | 1.6 | 11.3 | 0.00 | 0.00 | 0.00 | 40 | 1013.1 |
| 20260905132203 | 24 | 142 | 3.2 | 12.9 | 0.00 | 0.00 | 0.00 | 41 | 1013.1 |
| 20260905132103 | 24 | 154 | 1.6 | 12.9 | 0.00 | 0.00 | 0.00 | 41 | 1013.1 |
| 20260905132003 | 24 | 152 | 1.6 | 12.9 | 0.00 | 0.00 | 0.00 | 41 | 1013.1 |
| 20260905131903 | 24 | 117 | 3.2 | 12.9 | 0.00 | 0.00 | 0.00 | 43 | 1012.9 |
| 20260905131803 | 24 | 103 | 3.2 | 12.9 | 0.00 | 0.00 | 0.00 | 42 | 1013.2 |
| 20260905131703 | 24 | 69 | 3.2 | 12.9 | 0.00 | 0.00 | 0.00 | 42 | 1013.0 |
| 20260905131603 | 24 | 49 | 3.2 | 12.9 | 0.00 | 0.00 | 0.00 | 42 | 1013.1 |
| 20260905131503 | 24 | 53 | 3.2 | 12.9 | 0.00 | 0.00 | 0.00 | 42 | 1013.0 |
| 20260905131403 | 25 | 33 | 3.2 | 12.9 | 0.00 | 0.00 | 0.00 | 42 | 1013.0 |
| 20260905131326 | 25 | 57 | 3.2 | 12.9 | 0.00 | 0.00 | 0.00 | 42 | 1013.0 |
| 20260905131225 | 25 | 10 | 3.2 | 12.9 | 0.00 | 0.00 | 0.00 | 42 | 1013.2 |
| 20260905131104 | 25 | 102 | 3.2 | 12.9 | 0.00 | 0.00 | 0.00 | 43 | 1013.2 |
| 20260905131004 | 25 | 105 | 3.2 | 12.9 | 0.00 | 0.00 | 0.00 | 44 | 1013.1 |
| 20260905130903 | 25 | 210 | 3.2 | 12.9 | 0.00 | 0.00 | 0.00 | 44 | 1012.7 |
| 20260905130803 | 25 | 341 | 3.2 | 20.9 | 0.00 | 0.00 | 0.00 | 43 | 1012.9 |
| 20260905130703 | 25 | 23 | 3.2 | 20.9 | 0.00 | 0.00 | 0.00 | 44 | 1013.2 |
| 20260905130604 | 25 | 270 | 3.2 | 20.9 | 0.00 | 0.00 | 0.00 | 44 | 1013.1 |
| 20260905130504 | 25 | 124 | 3.2 | 20.9 | 0.00 | 0.00 | 0.00 | 44 | 1013.1 |
| 20260905130404 | 25 | 144 | 3.2 | 20.9 | 0.00 | 0.00 | 0.00 | 45 | 1013.0 |
| 20260905130303 | 25 | 121 | 1.6 | 20.9 | 0.00 | 0.00 | 0.00 | 45 | 1012.9 |
| 20260905130203 | 25 | 131 | 3.2 | 20.9 | 0.00 | 0.00 | 0.00 | 46 | 1012.9 |
| 20260905130004 | 25 | 110 | 3.2 | 20.9 | 0.00 | 0.00 | 0.00 | 46 | 1012.8 |
| 20260905125925 | 25 | 115 | 3.2 | 20.9 | 0.00 | 0.00 | 0.00 | 46 | 1012.8 |
| 20260905125803 | 25 | 128 | 3.2 | 11.3 | 0.00 | 0.00 | 0.00 | 46 | 1012.8 |
| 20260905125703 | 25 | 133 | 1.6 | 11.3 | 0.00 | 0.00 | 0.00 | 46 | 1012.9 |
| 20260905125631 | 25 | 133 | 1.6 | 11.3 | 0.00 | 0.00 | 0.00 | 46 | 1012.9 |
| 20260905125525 | 25 | 130 | 1.6 | 11.3 | 0.00 | 0.00 | 0.00 | 46 | 1012.9 |
| 20260905125403 | 25 | 117 | 1.6 | 11.3 | 0.00 | 0.00 | 0.00 | 48 | 1012.7 |
| 20260905125306 | 25 | 115 | 1.6 | 11.3 | 0.00 | 0.00 | 0.00 | 47 | 1012.8 |
| 20260905125204 | 25 | 105 | 1.6 | 11.3 | 0.00 | 0.00 | 0.00 | 47 | 1013.0 |
| 20260905125103 | 25 | 93 | 1.6 | 11.3 | 0.00 | 0.00 | 0.00 | 48 | 1012.6 |
| 20260905125025 | 25 | 101 | 1.6 | 11.3 | 0.00 | 0.00 | 0.00 | 47 | 1012.6 |
| 20260905124904 | 25 | 112 | 1.6 | 9.7 | 0.00 | 0.00 | 0.00 | 47 | 1012.8 |
| 20260905124804 | 25 | 144 | 1.6 | 11.3 | 0.00 | 0.00 | 0.00 | 47 | 1012.8 |
| 20260905124703 | 25 | 164 | 1.6 | 11.3 | 0.00 | 0.00 | 0.00 | 48 | 1012.8 |
| 20260905124604 | 26 | 139 | 1.6 | 11.3 | 0.00 | 0.00 | 0.00 | 47 | 1012.7 |
| 20260905124504 | 26 | 160 | 0.0 | 11.3 | 0.00 | 0.00 | 0.00 | 48 | 1012.8 |
| 20260905124403 | 26 | 150 | 1.6 | 11.3 | 0.00 | 0.00 | 0.00 | 48 | 1012.8 |
| 20260905124303 | 26 | 174 | 1.6 | 11.3 | 0.00 | 0.00 | 0.00 | 48 | 1012.8 |
| 20260905124203 | 26 | 171 | 1.6 | 11.3 | 0.00 | 0.00 | 0.00 | 47 | 1012.7 |
| 20260905124124 | 26 | 169 | 1.6 | 11.3 | 0.00 | 0.00 | 0.00 | 47 | 1012.7 |
| 20260905124024 | 26 | 139 | 1.6 | 11.3 | 0.00 | 0.00 | 0.00 | 47 | 1012.7 |
| 20260905123924 | 26 | 120 | 1.6 | 11.3 | 0.00 | 0.00 | 0.00 | 47 | 1012.6 |
| 20260905123803 | 26 | 147 | 1.6 | 9.7 | 0.00 | 0.00 | 0.00 | 47 | 1012.7 |
| 20260905123724 | 26 | 141 | 1.6 | 9.7 | 0.00 | 0.00 | 0.00 | 47 | 1012.7 |
| 20260905123603 | 26 | 159 | 1.6 | 9.7 | 0.00 | 0.00 | 0.00 | 47 | 1012.6 |
| 20260905123525 | 26 | 152 | 1.6 | 9.7 | 0.00 | 0.00 | 0.00 | 47 | 1012.6 |
| 20260905123403 | 26 | 169 | 1.6 | 11.3 | 0.00 | 0.00 | 0.00 | 47 | 1012.6 |
| 20260905123303 | 26 | 171 | 1.6 | 11.3 | 0.00 | 0.00 | 0.00 | 47 | 1012.6 |
| 20260905123203 | 26 | 173 | 1.6 | 12.9 | 0.00 | 0.00 | 0.00 | 47 | 1012.6 |
| 20260905123103 | 26 | 175 | 1.6 | 12.9 | 0.00 | 0.00 | 0.00 | 47 | 1012.5 |
| 20260905123003 | 26 | 171 | 1.6 | 12.9 | 0.00 | 0.00 | 0.00 | 47 | 1012.6 |
| 20260905122903 | 26 | 176 | 1.6 | 12.9 | 0.00 | 0.00 | 0.00 | 47 | 1012.6 |
| 20260905122803 | 26 | 168 | 1.6 | 12.9 | 0.00 | 0.00 | 0.00 | 47 | 1012.9 |
| 20260905122703 | 26 | 165 | 1.6 | 12.9 | 0.00 | 0.00 | 0.00 | 47 | 1012.4 |
| 20260905122604 | 26 | 165 | 3.2 | 12.9 | 0.00 | 0.00 | 0.00 | 46 | 1012.6 |
| 20260905122504 | 26 | 166 | 1.6 | 12.9 | 0.00 | 0.00 | 0.00 | 46 | 1012.7 |
| 20260905122404 | 26 | 163 | 1.6 | 12.9 | 0.00 | 0.00 | 0.00 | 46 | 1012.6 |
| 20260905122306 | 26 | 159 | 1.6 | 12.9 | 0.00 | 0.00 | 0.00 | 46 | 1012.5 |
| 20260905122204 | 26 | 157 | 1.6 | 11.3 | 0.00 | 0.00 | 0.00 | 46 | 1012.4 |
| 20260905122105 | 26 | 158 | 1.6 | 11.3 | 0.00 | 0.00 | 0.00 | 47 | 1012.3 |
| 20260905122003 | 26 | 168 | 1.6 | 11.3 | 0.00 | 0.00 | 0.00 | 46 | 1012.4 |
| 20260905121903 | 26 | 164 | 1.6 | 11.3 | 0.00 | 0.00 | 0.00 | 46 | 1012.5 |
| 20260905121804 | 26 | 168 | 1.6 | 11.3 | 0.00 | 0.00 | 0.00 | 46 | 1012.5 |
| 20260905121703 | 26 | 175 | 1.6 | 11.3 | 0.00 | 0.00 | 0.00 | 46 | 1012.3 |
| 20260905121604 | 26 | 173 | 1.6 | 11.3 | 0.00 | 0.00 | 0.00 | 46 | 1012.5 |
| 20260905121504 | 26 | 173 | 1.6 | 11.3 | 0.00 | 0.00 | 0.00 | 46 | 1012.4 |
| 20260905121403 | 26 | 177 | 1.6 | 11.3 | 0.00 | 0.00 | 0.00 | 46 | 1012.4 |
| 20260905121303 | 26 | 163 | 3.2 | 11.3 | 0.00 | 0.00 | 0.00 | 46 | 1012.6 |
| 20260905121203 | 26 | 166 | 1.6 | 11.3 | 0.00 | 0.00 | 0.00 | 46 | 1012.4 |
| 20260905121103 | 26 | 167 | 3.2 | 16.1 | 0.00 | 0.00 | 0.00 | 46 | 1012.4 |
| 20260905121003 | 26 | 155 | 3.2 | 16.1 | 0.00 | 0.00 | 0.00 | 46 | 1012.3 |
| 20260905120904 | 26 | 152 | 3.2 | 16.1 | 0.00 | 0.00 | 0.00 | 46 | 1012.7 |
| 20260905120805 | 26 | 145 | 3.2 | 16.1 | 0.00 | 0.00 | 0.00 | 46 | 1012.5 |
| 20260905120704 | 26 | 143 | 3.2 | 16.1 | 0.00 | 0.00 | 0.00 | 46 | 1012.3 |
| 20260905120625 | 26 | 141 | 3.2 | 16.1 | 0.00 | 0.00 | 0.00 | 45 | 1012.3 |
| 20260905120503 | 26 | 134 | 3.2 | 16.1 | 0.00 | 0.00 | 0.00 | 45 | 1012.4 |
| 20260905120404 | 26 | 134 | 3.2 | 16.1 | 0.00 | 0.00 | 0.00 | 45 | 1012.3 |
| 20260905120303 | 26 | 145 | 1.6 | 16.1 | 0.00 | 0.00 | 0.00 | 45 | 1012.5 |
| 20260905120205 | 26 | 149 | 1.6 | 16.1 | 0.00 | 0.00 | 0.00 | 45 | 1012.4 |
| 20260905120104 | 26 | 151 | 1.6 | 11.3 | 0.00 | 0.00 | 0.00 | 45 | 1012.4 |
| 20260905120004 | 26 | 183 | 1.6 | 11.3 | 0.00 | 0.00 | 0.00 | 45 | 1012.5 |
| 20260905115905 | 26 | 197 | 1.6 | 12.9 | 0.00 | 0.00 | 0.00 | 46 | 1012.5 |
| 20260905115804 | 26 | 201 | 1.6 | 12.9 | 0.00 | 0.00 | 0.00 | 45 | 1012.1 |
| 20260905115703 | 27 | 213 | 1.6 | 12.9 | 0.00 | 0.00 | 0.00 | 45 | 1012.4 |
| 20260905115625 | 27 | 212 | 1.6 | 12.9 | 0.00 | 0.00 | 0.00 | 45 | 1012.4 |
| 20260905115503 | 27 | 231 | 1.6 | 12.9 | 0.00 | 0.00 | 0.00 | 45 | 1012.3 |
| 20260905115403 | 27 | 237 | 1.6 | 12.9 | 0.00 | 0.00 | 0.00 | 45 | 1012.5 |
| 20260905115306 | 27 | 241 | 1.6 | 12.9 | 0.00 | 0.00 | 0.00 | 45 | 1012.1 |
| 20260905115203 | 27 | 221 | 1.6 | 12.9 | 0.00 | 0.00 | 0.00 | 45 | 1011.9 |
| 20260905115103 | 27 | 191 | 1.6 | 12.9 | 0.00 | 0.00 | 0.00 | 45 | 1012.2 |
| 20260905115003 | 27 | 191 | 1.6 | 12.9 | 0.00 | 0.00 | 0.00 | 45 | 1012.3 |
| 20260905114905 | 27 | 140 | 1.6 | 12.9 | 0.00 | 0.00 | 0.00 | 45 | 1012.3 |
| 20260905114803 | 27 | 105 | 1.6 | 11.3 | 0.00 | 0.00 | 0.00 | 45 | 1011.9 |
| 20260905114703 | 27 | 127 | 1.6 | 11.3 | 0.00 | 0.00 | 0.00 | 45 | 1012.4 |
| 20260905114604 | 27 | 116 | 1.6 | 11.3 | 0.00 | 0.00 | 0.00 | 45 | 1012.1 |
| 20260905114504 | 27 | 127 | 1.6 | 11.3 | 0.00 | 0.00 | 0.00 | 45 | 1012.2 |
| 20260905114404 | 27 | 118 | 1.6 | 11.3 | 0.00 | 0.00 | 0.00 | 45 | 1012.2 |
| 20260905114304 | 27 | 130 | 1.6 | 11.3 | 0.00 | 0.00 | 0.00 | 45 | 1012.1 |
| 20260905114224 | 27 | 133 | 1.6 | 11.3 | 0.00 | 0.00 | 0.00 | 45 | 1012.1 |
| 20260905114103 | 27 | 153 | 1.6 | 11.3 | 0.00 | 0.00 | 0.00 | 44 | 1012.1 |
| 20260905114024 | 27 | 155 | 1.6 | 11.3 | 0.00 | 0.00 | 0.00 | 44 | 1012.1 |
| 20260905113903 | 27 | 167 | 1.6 | 9.7 | 0.00 | 0.00 | 0.00 | 44 | 1012.2 |
| 20260905113803 | 27 | 170 | 1.6 | 9.7 | 0.00 | 0.00 | 0.00 | 44 | 1012.0 |
| 20260905113724 | 27 | 166 | 1.6 | 9.7 | 0.00 | 0.00 | 0.00 | 44 | 1012.0 |
| 20260905113624 | 27 | 176 | 1.6 | 12.9 | 0.00 | 0.00 | 0.00 | 44 | 1012.1 |
| 20260905113503 | 27 | 187 | 1.6 | 12.9 | 0.00 | 0.00 | 0.00 | 44 | 1012.0 |
| 20260905113403 | 27 | 202 | 3.2 | 12.9 | 0.00 | 0.00 | 0.00 | 44 | 1012.0 |
| 20260905113303 | 27 | 205 | 3.2 | 12.9 | 0.00 | 0.00 | 0.00 | 44 | 1011.9 |
| 20260905113203 | 27 | 204 | 3.2 | 12.9 | 0.00 | 0.00 | 0.00 | 44 | 1012.0 |
| 20260905113103 | 27 | 210 | 1.6 | 12.9 | 0.00 | 0.00 | 0.00 | 43 | 1012.0 |
| 20260905113024 | 27 | 214 | 1.6 | 12.9 | 0.00 | 0.00 | 0.00 | 43 | 1012.0 |
| 20260905112903 | 27 | 219 | 1.6 | 12.9 | 0.00 | 0.00 | 0.00 | 43 | 1011.8 |
| 20260905112803 | 27 | 217 | 1.6 | 12.9 | 0.00 | 0.00 | 0.00 | 43 | 1012.0 |
| 20260905112703 | 28 | 218 | 1.6 | 12.9 | 0.00 | 0.00 | 0.00 | 43 | 1011.9 |
| 20260905112603 | 28 | 211 | 1.6 | 9.7 | 0.00 | 0.00 | 0.00 | 42 | 1012.0 |
| 20260905112503 | 28 | 208 | 1.6 | 9.7 | 0.00 | 0.00 | 0.00 | 42 | 1011.8 |
| 20260905112424 | 28 | 195 | 1.6 | 9.7 | 0.00 | 0.00 | 0.00 | 42 | 1011.8 |
| 20260905112305 | 28 | 188 | 1.6 | 6.4 | 0.00 | 0.00 | 0.00 | 44 | 1011.7 |
| 20260905112203 | 28 | 183 | 1.6 | 6.4 | 0.00 | 0.00 | 0.00 | 43 | 1011.7 |
| 20260905112103 | 28 | 183 | 1.6 | 6.4 | 0.00 | 0.00 | 0.00 | 43 | 1011.7 |
| 20260905112003 | 28 | 182 | 1.6 | 6.4 | 0.00 | 0.00 | 0.00 | 44 | 1012.0 |
| 20260905111924 | 28 | 176 | 1.6 | 6.4 | 0.00 | 0.00 | 0.00 | 43 | 1012.0 |
| 20260905111803 | 28 | 177 | 1.6 | 6.4 | 0.00 | 0.00 | 0.00 | 43 | 1011.8 |
| 20260905111703 | 28 | 177 | 1.6 | 6.4 | 0.00 | 0.00 | 0.00 | 43 | 1011.7 |
| 20260905111603 | 28 | 177 | 1.6 | 6.4 | 0.00 | 0.00 | 0.00 | 43 | 1011.8 |
| 20260905111503 | 28 | 173 | 1.6 | 6.4 | 0.00 | 0.00 | 0.00 | 43 | 1011.7 |
| 20260905111403 | 28 | 171 | 1.6 | 6.4 | 0.00 | 0.00 | 0.00 | 43 | 1011.9 |
| 20260905111303 | 28 | 166 | 1.6 | 6.4 | 0.00 | 0.00 | 0.00 | 43 | 1011.7 |
| 20260905111203 | 28 | 177 | 1.6 | 6.4 | 0.00 | 0.00 | 0.00 | 44 | 1011.8 |
| 20260905111103 | 28 | 177 | 1.6 | 6.4 | 0.00 | 0.00 | 0.00 | 43 | 1011.9 |
| 20260905111024 | 28 | 173 | 1.6 | 6.4 | 0.00 | 0.00 | 0.00 | 43 | 1011.9 |
| 20260905110903 | 28 | 178 | 1.6 | 6.4 | 0.00 | 0.00 | 0.00 | 42 | 1011.7 |
| 20260905110803 | 28 | 176 | 1.6 | 6.4 | 0.00 | 0.00 | 0.00 | 42 | 1011.6 |
| 20260905110703 | 28 | 172 | 1.6 | 6.4 | 0.00 | 0.00 | 0.00 | 42 | 1011.8 |
| 20260905110603 | 28 | 179 | 1.6 | 6.4 | 0.00 | 0.00 | 0.00 | 42 | 1011.6 |
| 20260905110503 | 28 | 181 | 1.6 | 9.7 | 0.00 | 0.00 | 0.00 | 42 | 1011.7 |
| 20260905110403 | 28 | 184 | 3.2 | 12.9 | 0.00 | 0.00 | 0.00 | 42 | 1011.8 |
| 20260905110303 | 28 | 193 | 3.2 | 12.9 | 0.00 | 0.00 | 0.00 | 42 | 1011.7 |
| 20260905110203 | 29 | 193 | 3.2 | 12.9 | 0.00 | 0.00 | 0.00 | 41 | 1011.8 |
| 20260905110124 | 29 | 191 | 3.2 | 12.9 | 0.00 | 0.00 | 0.00 | 42 | 1011.8 |
| 20260905110003 | 29 | 192 | 3.2 | 12.9 | 0.00 | 0.00 | 0.00 | 42 | 1011.6 |
| 20260905105903 | 29 | 193 | 1.6 | 12.9 | 0.00 | 0.00 | 0.00 | 41 | 1011.7 |
| 20260905105824 | 29 | 187 | 1.6 | 12.9 | 0.00 | 0.00 | 0.00 | 41 | 1011.7 |
| 20260905105703 | 30 | 204 | 3.2 | 12.9 | 0.00 | 0.00 | 0.00 | 41 | 1011.9 |
| 20260905105603 | 30 | 201 | 3.2 | 12.9 | 0.00 | 0.00 | 0.00 | 40 | 1011.6 |
| 20260905105503 | 30 | 201 | 1.6 | 12.9 | 0.00 | 0.00 | 0.00 | 40 | 1011.7 |
| 20260905105403 | 30 | 205 | 1.6 | 12.9 | 0.00 | 0.00 | 0.00 | 40 | 1011.7 |
| 20260905105306 | 30 | 195 | 1.6 | 12.9 | 0.00 | 0.00 | 0.00 | 40 | 1011.6 |
| 20260905105203 | 30 | 190 | 1.6 | 12.9 | 0.00 | 0.00 | 0.00 | 39 | 1011.6 |
| 20260905105124 | 30 | 191 | 1.6 | 12.9 | 0.00 | 0.00 | 0.00 | 39 | 1011.6 |
| 20260905105003 | 30 | 179 | 1.6 | 12.9 | 0.00 | 0.00 | 0.00 | 39 | 1011.7 |
| 20260905104903 | 30 | 186 | 1.6 | 12.9 | 0.00 | 0.00 | 0.00 | 39 | 1011.5 |
| 20260905104803 | 30 | 188 | 1.6 | 12.9 | 0.00 | 0.00 | 0.00 | 39 | 1011.6 |
| 20260905104704 | 30 | 180 | 1.6 | 12.9 | 0.00 | 0.00 | 0.00 | 39 | 1011.5 |
| 20260905104603 | 30 | 166 | 1.6 | 11.3 | 0.00 | 0.00 | 0.00 | 40 | 1011.7 |
| 20260905104503 | 30 | 176 | 1.6 | 11.3 | 0.00 | 0.00 | 0.00 | 41 | 1011.7 |
| 20260905104403 | 29 | 170 | 1.6 | 11.3 | 0.00 | 0.00 | 0.00 | 42 | 1011.7 |
| 20260905104303 | 29 | 174 | 1.6 | 11.3 | 0.00 | 0.00 | 0.00 | 42 | 1011.7 |
| 20260905104203 | 29 | 177 | 1.6 | 11.3 | 0.00 | 0.00 | 0.00 | 42 | 1011.6 |
| 20260905104103 | 28 | 175 | 1.6 | 11.3 | 0.00 | 0.00 | 0.00 | 42 | 1011.7 |
| 20260905104003 | 28 | 191 | 1.6 | 11.3 | 0.00 | 0.00 | 0.00 | 42 | 1011.5 |
| 20260905103903 | 28 | 182 | 1.6 | 11.3 | 0.00 | 0.00 | 0.00 | 42 | 1011.6 |
| 20260905103803 | 28 | 179 | 1.6 | 11.3 | 0.00 | 0.00 | 0.00 | 42 | 1011.7 |
| 20260905103724 | 28 | 177 | 1.6 | 16.1 | 0.00 | 0.00 | 0.00 | 42 | 1011.7 |
| 20260905103603 | 29 | 169 | 1.6 | 16.1 | 0.00 | 0.00 | 0.00 | 41 | 1011.8 |
| 20260905103503 | 29 | 164 | 1.6 | 16.1 | 0.00 | 0.00 | 0.00 | 40 | 1011.9 |
| 20260905103403 | 29 | 162 | 1.6 | 16.1 | 0.00 | 0.00 | 0.00 | 40 | 1011.7 |
| 20260905103303 | 29 | 159 | 1.6 | 16.1 | 0.00 | 0.00 | 0.00 | 41 | 1011.5 |
| 20260905103203 | 29 | 164 | 1.6 | 16.1 | 0.00 | 0.00 | 0.00 | 41 | 1011.6 |
| 20260905103103 | 28 | 167 | 1.6 | 16.1 | 0.00 | 0.00 | 0.00 | 42 | 1011.4 |
| 20260905103003 | 28 | 169 | 1.6 | 16.1 | 0.00 | 0.00 | 0.00 | 43 | 1011.5 |
| 20260905102925 | 28 | 174 | 1.6 | 16.1 | 0.00 | 0.00 | 0.00 | 43 | 1011.5 |
| 20260905102803 | 28 | 181 | 1.6 | 16.1 | 0.00 | 0.00 | 0.00 | 43 | 1011.7 |
| 20260905102703 | 27 | 182 | 1.6 | 9.7 | 0.00 | 0.00 | 0.00 | 43 | 1011.9 |
| 20260905102603 | 27 | 180 | 1.6 | 9.7 | 0.00 | 0.00 | 0.00 | 44 | 1011.5 |
| 20260905102524 | 28 | 182 | 1.6 | 9.7 | 0.00 | 0.00 | 0.00 | 43 | 1011.5 |
| 20260905102424 | 28 | 181 | 1.6 | 9.7 | 0.00 | 0.00 | 0.00 | 43 | 1011.8 |
| 20260905102324 | 28 | 178 | 1.6 | 12.9 | 0.00 | 0.00 | 0.00 | 43 | 1011.7 |
| 20260905102203 | 28 | 187 | 1.6 | 14.5 | 0.00 | 0.00 | 0.00 | 43 | 1011.8 |
| 20260905102103 | 28 | 187 | 1.6 | 14.5 | 0.00 | 0.00 | 0.00 | 43 | 1011.7 |
| 20260905102003 | 28 | 203 | 1.6 | 14.5 | 0.00 | 0.00 | 0.00 | 43 | 1011.8 |
| 20260905101903 | 28 | 203 | 1.6 | 14.5 | 0.00 | 0.00 | 0.00 | 43 | 1011.8 |
| 20260905101824 | 28 | 199 | 1.6 | 14.5 | 0.00 | 0.00 | 0.00 | 43 | 1011.8 |
| 20260905101703 | 28 | 199 | 1.6 | 14.5 | 0.00 | 0.00 | 0.00 | 43 | 1011.8 |
| 20260905101624 | 28 | 198 | 1.6 | 14.5 | 0.00 | 0.00 | 0.00 | 42 | 1011.8 |
| 20260905101505 | 28 | 193 | 3.2 | 14.5 | 0.00 | 0.00 | 0.00 | 42 | 1011.8 |
| 20260905101424 | 28 | 197 | 3.2 | 14.5 | 0.00 | 0.00 | 0.00 | 42 | 1011.8 |
| 20260905101304 | 28 | 203 | 3.2 | 14.5 | 0.00 | 0.00 | 0.00 | 41 | 1011.7 |
| 20260905101203 | 28 | 204 | 3.2 | 12.9 | 0.00 | 0.00 | 0.00 | 41 | 1011.7 |
| 20260905101103 | 28 | 201 | 3.2 | 12.9 | 0.00 | 0.00 | 0.00 | 41 | 1012.0 |
| 20260905101003 | 28 | 198 | 3.2 | 12.9 | 0.00 | 0.00 | 0.00 | 42 | 1011.7 |
| 20260905100924 | 28 | 201 | 3.2 | 12.9 | 0.00 | 0.00 | 0.00 | 41 | 1011.7 |
| 20260905100803 | 28 | 204 | 3.2 | 12.9 | 0.00 | 0.00 | 0.00 | 41 | 1011.8 |
| 20260905100703 | 28 | 205 | 3.2 | 14.5 | 0.00 | 0.00 | 0.00 | 41 | 1011.7 |
| 20260905100603 | 28 | 211 | 3.2 | 14.5 | 0.00 | 0.00 | 0.00 | 42 | 1011.7 |
| 20260905100504 | 28 | 212 | 3.2 | 14.5 | 0.00 | 0.00 | 0.00 | 42 | 1011.9 |
| 20260905100403 | 28 | 211 | 3.2 | 14.5 | 0.00 | 0.00 | 0.00 | 42 | 1011.9 |
| 20260905100303 | 28 | 214 | 3.2 | 14.5 | 0.00 | 0.00 | 0.00 | 42 | 1011.9 |
| 20260905100203 | 28 | 207 | 3.2 | 14.5 | 0.00 | 0.00 | 0.00 | 42 | 1012.0 |
| 20260905100003 | 28 | 202 | 3.2 | 14.5 | 0.00 | 0.00 | 0.00 | 41 | 1011.9 |
| 20260905095903 | 28 | 199 | 3.2 | 14.5 | 0.00 | 0.00 | 0.00 | 42 | 1011.7 |
| 20260905095803 | 28 | 198 | 3.2 | 14.5 | 0.00 | 0.00 | 0.00 | 42 | 1011.8 |
| 20260905095703 | 28 | 190 | 3.2 | 14.5 | 0.00 | 0.00 | 0.00 | 42 | 1011.8 |
| 20260905095603 | 28 | 180 | 1.6 | 11.3 | 0.00 | 0.00 | 0.00 | 43 | 1011.8 |
| 20260905095503 | 28 | 188 | 3.2 | 11.3 | 0.00 | 0.00 | 0.00 | 42 | 1011.7 |
| 20260905095403 | 28 | 199 | 3.2 | 12.9 | 0.00 | 0.00 | 0.00 | 42 | 1011.8 |
| 20260905095305 | 28 | 199 | 3.2 | 12.9 | 0.00 | 0.00 | 0.00 | 42 | 1011.7 |
| 20260905095224 | 28 | 205 | 3.2 | 12.9 | 0.00 | 0.00 | 0.00 | 42 | 1011.7 |
| 20260905095103 | 28 | 211 | 3.2 | 12.9 | 0.00 | 0.00 | 0.00 | 42 | 1011.7 |
| 20260905095003 | 28 | 213 | 3.2 | 12.9 | 0.00 | 0.00 | 0.00 | 43 | 1011.6 |
| 20260905094924 | 28 | 211 | 3.2 | 12.9 | 0.00 | 0.00 | 0.00 | 43 | 1011.6 |
| 20260905094803 | 28 | 208 | 3.2 | 12.9 | 0.00 | 0.00 | 0.00 | 42 | 1011.7 |
| 20260905094724 | 28 | 209 | 3.2 | 12.9 | 0.00 | 0.00 | 0.00 | 42 | 1011.7 |
| 20260905094603 | 28 | 204 | 3.2 | 12.9 | 0.00 | 0.00 | 0.00 | 42 | 1011.9 |
| 20260905094503 | 28 | 203 | 3.2 | 12.9 | 0.00 | 0.00 | 0.00 | 41 | 1011.6 |
| 20260905094424 | 28 | 198 | 3.2 | 12.9 | 0.00 | 0.00 | 0.00 | 42 | 1011.6 |
| 20260905094303 | 28 | 194 | 3.2 | 12.9 | 0.00 | 0.00 | 0.00 | 42 | 1011.8 |
| 20260905094203 | 28 | 182 | 3.2 | 14.5 | 0.00 | 0.00 | 0.00 | 42 | 1012.0 |
| 20260905094103 | 28 | 184 | 3.2 | 14.5 | 0.00 | 0.00 | 0.00 | 42 | 1011.8 |
| 20260905094003 | 28 | 188 | 1.6 | 14.5 | 0.00 | 0.00 | 0.00 | 42 | 1012.0 |
| 20260905093903 | 28 | 180 | 1.6 | 14.5 | 0.00 | 0.00 | 0.00 | 42 | 1011.6 |
| 20260905093803 | 28 | 178 | 1.6 | 14.5 | 0.00 | 0.00 | 0.00 | 42 | 1011.9 |
| 20260905093703 | 28 | 194 | 1.6 | 14.5 | 0.00 | 0.00 | 0.00 | 42 | 1011.9 |
| 20260905093603 | 28 | 208 | 3.2 | 14.5 | 0.00 | 0.00 | 0.00 | 43 | 1011.6 |
| 20260905093503 | 28 | 209 | 3.2 | 14.5 | 0.00 | 0.00 | 0.00 | 43 | 1011.8 |
| 20260905093403 | 28 | 212 | 3.2 | 14.5 | 0.00 | 0.00 | 0.00 | 43 | 1011.8 |
| 20260905093304 | 28 | 218 | 3.2 | 14.5 | 0.00 | 0.00 | 0.00 | 43 | 1011.8 |
| 20260905093203 | 28 | 219 | 3.2 | 14.5 | 0.00 | 0.00 | 0.00 | 43 | 1011.9 |
| 20260905093103 | 28 | 219 | 3.2 | 12.9 | 0.00 | 0.00 | 0.00 | 43 | 1011.8 |
| 20260905093003 | 27 | 206 | 3.2 | 12.9 | 0.00 | 0.00 | 0.00 | 43 | 1012.0 |
| 20260905092903 | 27 | 219 | 3.2 | 12.9 | 0.00 | 0.00 | 0.00 | 43 | 1011.5 |
| 20260905092803 | 27 | 225 | 4.8 | 16.1 | 0.00 | 0.00 | 0.00 | 43 | 1011.8 |
| 20260905092703 | 27 | 220 | 4.8 | 16.1 | 0.00 | 0.00 | 0.00 | 43 | 1011.8 |
| 20260905092603 | 27 | 216 | 4.8 | 16.1 | 0.00 | 0.00 | 0.00 | 43 | 1011.4 |
| 20260905092524 | 27 | 212 | 4.8 | 16.1 | 0.00 | 0.00 | 0.00 | 43 | 1011.4 |
| 20260905092403 | 27 | 201 | 3.2 | 16.1 | 0.00 | 0.00 | 0.00 | 43 | 1011.7 |
| 20260905092324 | 27 | 197 | 3.2 | 16.1 | 0.00 | 0.00 | 0.00 | 44 | 1011.7 |
| 20260905092203 | 27 | 198 | 3.2 | 16.1 | 0.00 | 0.00 | 0.00 | 44 | 1011.6 |
| 20260905092103 | 27 | 195 | 3.2 | 16.1 | 0.00 | 0.00 | 0.00 | 44 | 1011.6 |
| 20260905092024 | 27 | 200 | 3.2 | 16.1 | 0.00 | 0.00 | 0.00 | 44 | 1011.6 |
| 20260905091903 | 27 | 194 | 3.2 | 16.1 | 0.00 | 0.00 | 0.00 | 43 | 1011.9 |
| 20260905091803 | 27 | 188 | 3.2 | 11.3 | 0.00 | 0.00 | 0.00 | 43 | 1011.5 |
| 20260905091724 | 27 | 190 | 3.2 | 11.3 | 0.00 | 0.00 | 0.00 | 43 | 1011.5 |
| 20260905091603 | 27 | 189 | 3.2 | 11.3 | 0.00 | 0.00 | 0.00 | 44 | 1011.7 |
| 20260905091503 | 27 | 200 | 3.2 | 11.3 | 0.00 | 0.00 | 0.00 | 45 | 1011.8 |
| 20260905091407 | 27 | 206 | 3.2 | 11.3 | 0.00 | 0.00 | 0.00 | 45 | 1011.5 |
| 20260905091304 | 27 | 207 | 3.2 | 11.3 | 0.00 | 0.00 | 0.00 | 45 | 1011.7 |
| 20260905091203 | 27 | 209 | 4.8 | 11.3 | 0.00 | 0.00 | 0.00 | 44 | 1011.6 |
| 20260905091103 | 27 | 212 | 3.2 | 11.3 | 0.00 | 0.00 | 0.00 | 44 | 1011.6 |
| 20260905091003 | 27 | 206 | 3.2 | 11.3 | 0.00 | 0.00 | 0.00 | 45 | 1011.7 |
| 20260905090903 | 27 | 207 | 3.2 | 11.3 | 0.00 | 0.00 | 0.00 | 44 | 1011.6 |
| 20260905090803 | 27 | 206 | 3.2 | 11.3 | 0.00 | 0.00 | 0.00 | 45 | 1011.7 |
| 20260905090703 | 27 | 195 | 3.2 | 11.3 | 0.00 | 0.00 | 0.00 | 45 | 1011.7 |
| 20260905090603 | 27 | 204 | 3.2 | 11.3 | 0.00 | 0.00 | 0.00 | 44 | 1011.7 |
| 20260905090503 | 27 | 177 | 3.2 | 11.3 | 0.00 | 0.00 | 0.00 | 44 | 1011.7 |
| 20260905090403 | 27 | 176 | 3.2 | 14.5 | 0.00 | 0.00 | 0.00 | 44 | 1011.6 |
| 20260905090303 | 27 | 183 | 3.2 | 14.5 | 0.00 | 0.00 | 0.00 | 44 | 1011.6 |
| 20260905090203 | 27 | 180 | 3.2 | 14.5 | 0.00 | 0.00 | 0.00 | 44 | 1011.6 |
| 20260905090103 | 27 | 183 | 3.2 | 14.5 | 0.00 | 0.00 | 0.00 | 44 | 1011.6 |
| 20260905090003 | 27 | 190 | 3.2 | 14.5 | 0.00 | 0.00 | 0.00 | 44 | 1011.4 |
| 20260905085903 | 27 | 195 | 3.2 | 14.5 | 0.00 | 0.00 | 0.00 | 44 | 1011.6 |
| 20260905085803 | 27 | 196 | 3.2 | 14.5 | 0.00 | 0.00 | 0.00 | 44 | 1011.7 |
| 20260905085703 | 27 | 197 | 3.2 | 14.5 | 0.00 | 0.00 | 0.00 | 44 | 1011.7 |
| 20260905085603 | 27 | 195 | 3.2 | 14.5 | 0.00 | 0.00 | 0.00 | 44 | 1011.8 |
| 20260905085503 | 27 | 201 | 3.2 | 14.5 | 0.00 | 0.00 | 0.00 | 45 | 1011.8 |
| 20260905085403 | 27 | 206 | 1.6 | 11.3 | 0.00 | 0.00 | 0.00 | 44 | 1011.7 |
| 20260905085305 | 27 | 203 | 1.6 | 6.4 | 0.00 | 0.00 | 0.00 | 47 | 1011.4 |
| 20260905085203 | 27 | 210 | 1.6 | 6.4 | 0.00 | 0.00 | 0.00 | 46 | 1011.8 |
| 20260905085103 | 27 | 207 | 1.6 | 6.4 | 0.00 | 0.00 | 0.00 | 46 | 1011.7 |
| 20260905085024 | 27 | 201 | 1.6 | 6.4 | 0.00 | 0.00 | 0.00 | 45 | 1011.7 |
| 20260905084903 | 26 | 180 | 1.6 | 6.4 | 0.00 | 0.00 | 0.00 | 46 | 1011.6 |
| 20260905084803 | 26 | 181 | 1.6 | 6.4 | 0.00 | 0.00 | 0.00 | 47 | 1011.7 |
| 20260905084703 | 26 | 183 | 1.6 | 6.4 | 0.00 | 0.00 | 0.00 | 46 | 1011.6 |
| 20260905084603 | 26 | 182 | 1.6 | 9.7 | 0.00 | 0.00 | 0.00 | 47 | 1011.4 |
| 20260905084503 | 26 | 178 | 1.6 | 9.7 | 0.00 | 0.00 | 0.00 | 47 | 1011.4 |
| 20260905084403 | 26 | 182 | 1.6 | 9.7 | 0.00 | 0.00 | 0.00 | 47 | 1011.4 |
| 20260905084303 | 26 | 185 | 3.2 | 11.3 | 0.00 | 0.00 | 0.00 | 47 | 1011.4 |
| 20260905084224 | 26 | 183 | 3.2 | 11.3 | 0.00 | 0.00 | 0.00 | 47 | 1011.4 |
| 20260905084103 | 26 | 189 | 3.2 | 11.3 | 0.00 | 0.00 | 0.00 | 47 | 1011.5 |
| 20260905084003 | 26 | 191 | 3.2 | 11.3 | 0.00 | 0.00 | 0.00 | 47 | 1011.4 |
| 20260905083924 | 26 | 197 | 3.2 | 11.3 | 0.00 | 0.00 | 0.00 | 47 | 1011.4 |
| 20260905083803 | 26 | 195 | 3.2 | 11.3 | 0.00 | 0.00 | 0.00 | 47 | 1011.5 |
| 20260905083703 | 26 | 195 | 3.2 | 11.3 | 0.00 | 0.00 | 0.00 | 47 | 1011.7 |
| 20260905083603 | 26 | 202 | 3.2 | 11.3 | 0.00 | 0.00 | 0.00 | 47 | 1011.6 |
| 20260905083503 | 26 | 201 | 3.2 | 11.3 | 0.00 | 0.00 | 0.00 | 47 | 1011.7 |
| 20260905083403 | 26 | 204 | 3.2 | 11.3 | 0.00 | 0.00 | 0.00 | 46 | 1011.6 |
| 20260905083303 | 26 | 207 | 1.6 | 9.7 | 0.00 | 0.00 | 0.00 | 46 | 1011.3 |
| 20260905083203 | 26 | 204 | 1.6 | 9.7 | 0.00 | 0.00 | 0.00 | 46 | 1011.4 |
| 20260905083103 | 26 | 208 | 1.6 | 9.7 | 0.00 | 0.00 | 0.00 | 46 | 1011.4 |
| 20260905083003 | 26 | 209 | 1.6 | 14.5 | 0.00 | 0.00 | 0.00 | 45 | 1011.6 |
| 20260905082903 | 26 | 198 | 1.6 | 14.5 | 0.00 | 0.00 | 0.00 | 46 | 1011.7 |
| 20260905082824 | 26 | 196 | 1.6 | 14.5 | 0.00 | 0.00 | 0.00 | 46 | 1011.7 |
| 20260905082724 | 26 | 198 | 1.6 | 14.5 | 0.00 | 0.00 | 0.00 | 46 | 1011.4 |
| 20260905082603 | 26 | 188 | 1.6 | 14.5 | 0.00 | 0.00 | 0.00 | 45 | 1011.5 |
| 20260905082503 | 26 | 190 | 1.6 | 14.5 | 0.00 | 0.00 | 0.00 | 45 | 1011.7 |
| 20260905082403 | 26 | 186 | 1.6 | 14.5 | 0.00 | 0.00 | 0.00 | 46 | 1011.6 |
| 20260905082307 | 26 | 186 | 1.6 | 14.5 | 0.00 | 0.00 | 0.00 | 46 | 1011.7 |
| 20260905082203 | 26 | 189 | 1.6 | 14.5 | 0.00 | 0.00 | 0.00 | 46 | 1011.6 |
| 20260905082124 | 26 | 181 | 3.2 | 14.5 | 0.00 | 0.00 | 0.00 | 46 | 1011.6 |
| 20260905082003 | 26 | 182 | 3.2 | 11.3 | 0.00 | 0.00 | 0.00 | 46 | 1011.6 |
| 20260905081903 | 26 | 187 | 3.2 | 11.3 | 0.00 | 0.00 | 0.00 | 46 | 1011.7 |
| 20260905081804 | 26 | 188 | 3.2 | 11.3 | 0.00 | 0.00 | 0.00 | 46 | 1011.6 |
| 20260905081703 | 26 | 184 | 3.2 | 11.3 | 0.00 | 0.00 | 0.00 | 46 | 1011.6 |
| 20260905081603 | 26 | 185 | 3.2 | 11.3 | 0.00 | 0.00 | 0.00 | 47 | 1011.8 |
| 20260905081504 | 26 | 191 | 3.2 | 11.3 | 0.00 | 0.00 | 0.00 | 46 | 1012.0 |
| 20260905081403 | 26 | 189 | 3.2 | 11.3 | 0.00 | 0.00 | 0.00 | 46 | 1011.6 |
| 20260905081303 | 26 | 192 | 3.2 | 11.3 | 0.00 | 0.00 | 0.00 | 46 | 1011.6 |
| 20260905081203 | 26 | 189 | 3.2 | 11.3 | 0.00 | 0.00 | 0.00 | 46 | 1011.8 |
| 20260905081103 | 26 | 195 | 3.2 | 11.3 | 0.00 | 0.00 | 0.00 | 47 | 1012.0 |
| 20260905081003 | 26 | 191 | 3.2 | 11.3 | 0.00 | 0.00 | 0.00 | 46 | 1011.8 |
| 20260905080903 | 26 | 189 | 3.2 | 9.7 | 0.00 | 0.00 | 0.00 | 47 | 1011.6 |
| 20260905080803 | 26 | 184 | 3.2 | 9.7 | 0.00 | 0.00 | 0.00 | 47 | 1012.0 |
| 20260905080724 | 26 | 184 | 3.2 | 9.7 | 0.00 | 0.00 | 0.00 | 47 | 1012.0 |
| 20260905080603 | 26 | 187 | 3.2 | 11.3 | 0.00 | 0.00 | 0.00 | 47 | 1011.8 |
| 20260905080503 | 26 | 191 | 3.2 | 11.3 | 0.00 | 0.00 | 0.00 | 48 | 1011.9 |
| 20260905080403 | 26 | 188 | 3.2 | 11.3 | 0.00 | 0.00 | 0.00 | 47 | 1012.0 |
| 20260905080303 | 26 | 181 | 3.2 | 11.3 | 0.00 | 0.00 | 0.00 | 47 | 1012.0 |
| 20260905080203 | 26 | 175 | 1.6 | 11.3 | 0.00 | 0.00 | 0.00 | 47 | 1012.0 |
| 20260905080004 | 26 | 177 | 1.6 | 11.3 | 0.00 | 0.00 | 0.00 | 47 | 1012.2 |
| 20260905075903 | 26 | 172 | 1.6 | 11.3 | 0.00 | 0.00 | 0.00 | 48 | 1011.9 |
| 20260905075803 | 26 | 180 | 1.6 | 11.3 | 0.00 | 0.00 | 0.00 | 48 | 1011.8 |
| 20260905075703 | 26 | 181 | 1.6 | 11.3 | 0.00 | 0.00 | 0.00 | 48 | 1012.1 |
| 20260905075603 | 26 | 182 | 1.6 | 9.7 | 0.00 | 0.00 | 0.00 | 47 | 1011.8 |
| 20260905075503 | 26 | 174 | 1.6 | 9.7 | 0.00 | 0.00 | 0.00 | 48 | 1012.0 |
| 20260905075403 | 25 | 178 | 1.6 | 9.7 | 0.00 | 0.00 | 0.00 | 49 | 1011.9 |
| 20260905075306 | 25 | 189 | 1.6 | 9.7 | 0.00 | 0.00 | 0.00 | 50 | 1011.9 |
| 20260905075203 | 25 | 192 | 1.6 | 9.7 | 0.00 | 0.00 | 0.00 | 49 | 1012.1 |
| 20260905075103 | 25 | 193 | 1.6 | 9.7 | 0.00 | 0.00 | 0.00 | 49 | 1011.9 |